﻿<?xml version="1.0" encoding="utf-8"?><gpx creator="Garmin Desktop App" version="1.1" xsi:schemaLocation="http://www.topografix.com/GPX/1/1 http://www.topografix.com/GPX/1/1/gpx.xsd http://www.garmin.com/xmlschemas/WaypointExtension/v1 http://www8.garmin.com/xmlschemas/WaypointExtensionv1.xsd http://www.garmin.com/xmlschemas/TrackPointExtension/v1 http://www.garmin.com/xmlschemas/TrackPointExtensionv1.xsd http://www.garmin.com/xmlschemas/GpxExtensions/v3 http://www8.garmin.com/xmlschemas/GpxExtensionsv3.xsd http://www.garmin.com/xmlschemas/ActivityExtension/v1 http://www8.garmin.com/xmlschemas/ActivityExtensionv1.xsd http://www.garmin.com/xmlschemas/AdventuresExtensions/v1 http://www8.garmin.com/xmlschemas/AdventuresExtensionv1.xsd http://www.garmin.com/xmlschemas/PressureExtension/v1 http://www.garmin.com/xmlschemas/PressureExtensionv1.xsd http://www.garmin.com/xmlschemas/TripExtensions/v1 http://www.garmin.com/xmlschemas/TripExtensionsv1.xsd http://www.garmin.com/xmlschemas/TripMetaDataExtensions/v1 http://www.garmin.com/xmlschemas/TripMetaDataExtensionsv1.xsd http://www.garmin.com/xmlschemas/ViaPointTransportationModeExtensions/v1 http://www.garmin.com/xmlschemas/ViaPointTransportationModeExtensionsv1.xsd http://www.garmin.com/xmlschemas/CreationTimeExtension/v1 http://www.garmin.com/xmlschemas/CreationTimeExtensionsv1.xsd http://www.garmin.com/xmlschemas/AccelerationExtension/v1 http://www.garmin.com/xmlschemas/AccelerationExtensionv1.xsd http://www.garmin.com/xmlschemas/PowerExtension/v1 http://www.garmin.com/xmlschemas/PowerExtensionv1.xsd http://www.garmin.com/xmlschemas/VideoExtension/v1 http://www.garmin.com/xmlschemas/VideoExtensionv1.xsd" xmlns="http://www.topografix.com/GPX/1/1" xmlns:xsi="http://www.w3.org/2001/XMLSchema-instance" xmlns:wptx1="http://www.garmin.com/xmlschemas/WaypointExtension/v1" xmlns:gpxtrx="http://www.garmin.com/xmlschemas/GpxExtensions/v3" xmlns:gpxtpx="http://www.garmin.com/xmlschemas/TrackPointExtension/v1" xmlns:gpxx="http://www.garmin.com/xmlschemas/GpxExtensions/v3" xmlns:trp="http://www.garmin.com/xmlschemas/TripExtensions/v1" xmlns:adv="http://www.garmin.com/xmlschemas/AdventuresExtensions/v1" xmlns:prs="http://www.garmin.com/xmlschemas/PressureExtension/v1" xmlns:tmd="http://www.garmin.com/xmlschemas/TripMetaDataExtensions/v1" xmlns:vptm="http://www.garmin.com/xmlschemas/ViaPointTransportationModeExtensions/v1" xmlns:ctx="http://www.garmin.com/xmlschemas/CreationTimeExtension/v1" xmlns:gpxacc="http://www.garmin.com/xmlschemas/AccelerationExtension/v1" xmlns:gpxpx="http://www.garmin.com/xmlschemas/PowerExtension/v1" xmlns:vidx1="http://www.garmin.com/xmlschemas/VideoExtension/v1">

  <metadata>
    <link href="http://www.garmin.com">
      <text>Garmin International</text>
    </link>
    <time>2019-02-11T16:43:51Z</time>
    <bounds maxlat="46.262062825262547" maxlon="8.025402724742889" minlat="46.246254974976182" minlon="8.008909234777093" />
  </metadata>

  <trk>
    <name>staldehorn2019-02-10</name>
    <extensions>
      <gpxx:TrackExtension>
        <gpxx:DisplayColor>Yellow</gpxx:DisplayColor>
      </gpxx:TrackExtension>
      <gpxtrkx:TrackStatsExtension xmlns:gpxtrkx="http://www.garmin.com/xmlschemas/TrackStatsExtension/v1">
        <gpxtrkx:Distance>8925</gpxtrkx:Distance>
        <gpxtrkx:TotalElapsedTime>20980</gpxtrkx:TotalElapsedTime>
        <gpxtrkx:MovingTime>11756</gpxtrkx:MovingTime>
        <gpxtrkx:StoppedTime>9078</gpxtrkx:StoppedTime>
        <gpxtrkx:MovingSpeed>1</gpxtrkx:MovingSpeed>
        <gpxtrkx:MaxSpeed>2</gpxtrkx:MaxSpeed>
        <gpxtrkx:MaxElevation>2465</gpxtrkx:MaxElevation>
        <gpxtrkx:MinElevation>1994</gpxtrkx:MinElevation>
        <gpxtrkx:Ascent>624</gpxtrkx:Ascent>
        <gpxtrkx:Descent>626</gpxtrkx:Descent>
        <gpxtrkx:AvgAscentRate>0</gpxtrkx:AvgAscentRate>
        <gpxtrkx:MaxAscentRate>0</gpxtrkx:MaxAscentRate>
        <gpxtrkx:AvgDescentRate>0</gpxtrkx:AvgDescentRate>
        <gpxtrkx:MaxDescentRate>-1</gpxtrkx:MaxDescentRate>
      </gpxtrkx:TrackStatsExtension>
    </extensions>
    <trkseg>
      <trkpt lat="46.246373075991869" lon="8.025293340906501">
        <ele>2004.01</ele>
        <time>2019-02-10T08:11:00Z</time>
      </trkpt>
      <trkpt lat="46.24637994915247" lon="8.025300800800324">
        <ele>2002.0799999999999</ele>
        <time>2019-02-10T08:11:10Z</time>
      </trkpt>
      <trkpt lat="46.24637852422893" lon="8.025402724742889">
        <ele>2005.45</ele>
        <time>2019-02-10T08:11:42Z</time>
      </trkpt>
      <trkpt lat="46.246372237801552" lon="8.025400461629033">
        <ele>2005.9300000000001</ele>
        <time>2019-02-10T08:11:43Z</time>
      </trkpt>
      <trkpt lat="46.24637215398252" lon="8.025364503264427">
        <ele>2002.5599999999999</ele>
        <time>2019-02-10T08:11:54Z</time>
      </trkpt>
      <trkpt lat="46.246363269165158" lon="8.025338016450405">
        <ele>2003.04</ele>
        <time>2019-02-10T08:12:06Z</time>
      </trkpt>
      <trkpt lat="46.24637994915247" lon="8.025307925418019">
        <ele>2004.97</ele>
        <time>2019-02-10T08:12:23Z</time>
      </trkpt>
      <trkpt lat="46.246366202831268" lon="8.025300549343228">
        <ele>2004.97</ele>
        <time>2019-02-10T08:12:38Z</time>
      </trkpt>
      <trkpt lat="46.246337033808231" lon="8.025308512151241">
        <ele>2004.49</ele>
        <time>2019-02-10T08:12:50Z</time>
      </trkpt>
      <trkpt lat="46.246342901140451" lon="8.02531823515892">
        <ele>2005.45</ele>
        <time>2019-02-10T08:13:05Z</time>
      </trkpt>
      <trkpt lat="46.246359497308731" lon="8.025330305099487">
        <ele>2004.01</ele>
        <time>2019-02-10T08:13:10Z</time>
      </trkpt>
      <trkpt lat="46.246377350762486" lon="8.02534363232553">
        <ele>2002.0799999999999</ele>
        <time>2019-02-10T08:13:13Z</time>
      </trkpt>
      <trkpt lat="46.24636335298419" lon="8.025338351726532">
        <ele>2002.5599999999999</ele>
        <time>2019-02-10T08:13:22Z</time>
      </trkpt>
      <trkpt lat="46.246364694088697" lon="8.025328796356916">
        <ele>2003.52</ele>
        <time>2019-02-10T08:13:41Z</time>
      </trkpt>
      <trkpt lat="46.246358323842287" lon="8.025302058085799">
        <ele>2004.97</ele>
        <time>2019-02-10T08:14:04Z</time>
      </trkpt>
      <trkpt lat="46.246343990787864" lon="8.025328628718853">
        <ele>2005.45</ele>
        <time>2019-02-10T08:14:20Z</time>
      </trkpt>
      <trkpt lat="46.246347008273005" lon="8.025310942903161">
        <ele>2006.8900000000001</ele>
        <time>2019-02-10T08:14:38Z</time>
      </trkpt>
      <trkpt lat="46.246367879211903" lon="8.02530113607645">
        <ele>2004.49</ele>
        <time>2019-02-10T08:14:55Z</time>
      </trkpt>
      <trkpt lat="46.246356731280684" lon="8.025318738073111">
        <ele>2005.9300000000001</ele>
        <time>2019-02-10T08:15:08Z</time>
      </trkpt>
      <trkpt lat="46.246357234194875" lon="8.025312284007669">
        <ele>2007.3699999999999</ele>
        <time>2019-02-10T08:15:22Z</time>
      </trkpt>
      <trkpt lat="46.246351199224591" lon="8.025323264300823">
        <ele>2004.97</ele>
        <time>2019-02-10T08:15:40Z</time>
      </trkpt>
      <trkpt lat="46.246346672996879" lon="8.025325192138553">
        <ele>2003.52</ele>
        <time>2019-02-10T08:15:58Z</time>
      </trkpt>
      <trkpt lat="46.246365113183856" lon="8.025306751951575">
        <ele>2003.04</ele>
        <time>2019-02-10T08:16:15Z</time>
      </trkpt>
      <trkpt lat="46.246359162032604" lon="8.025325611233711">
        <ele>2002.5599999999999</ele>
        <time>2019-02-10T08:16:34Z</time>
      </trkpt>
      <trkpt lat="46.246360335499048" lon="8.025308763608336">
        <ele>2001.5999999999999</ele>
        <time>2019-02-10T08:16:49Z</time>
      </trkpt>
      <trkpt lat="46.246357318013906" lon="8.025312535464764">
        <ele>2000.6400000000001</ele>
        <time>2019-02-10T08:17:08Z</time>
      </trkpt>
      <trkpt lat="46.24634969048202" lon="8.025317983701825">
        <ele>2001.1199999999999</ele>
        <time>2019-02-10T08:17:26Z</time>
      </trkpt>
      <trkpt lat="46.24635212123394" lon="8.025334998965263">
        <ele>2001.1199999999999</ele>
        <time>2019-02-10T08:17:43Z</time>
      </trkpt>
      <trkpt lat="46.246346840634942" lon="8.025331227108836">
        <ele>2002.5599999999999</ele>
        <time>2019-02-10T08:18:00Z</time>
      </trkpt>
      <trkpt lat="46.246345415711403" lon="8.025335669517517">
        <ele>2001.5999999999999</ele>
        <time>2019-02-10T08:18:16Z</time>
      </trkpt>
      <trkpt lat="46.246352707967162" lon="8.025324437767267">
        <ele>2002.5599999999999</ele>
        <time>2019-02-10T08:18:34Z</time>
      </trkpt>
      <trkpt lat="46.246356563642621" lon="8.025313206017017">
        <ele>2003.04</ele>
        <time>2019-02-10T08:18:51Z</time>
      </trkpt>
      <trkpt lat="46.246350361034274" lon="8.025315469130874">
        <ele>2003.04</ele>
        <time>2019-02-10T08:19:09Z</time>
      </trkpt>
      <trkpt lat="46.246344996616244" lon="8.025312200188637">
        <ele>2003.04</ele>
        <time>2019-02-10T08:19:27Z</time>
      </trkpt>
      <trkpt lat="46.246325215324759" lon="8.025347152724862">
        <ele>2002.0799999999999</ele>
        <time>2019-02-10T08:19:46Z</time>
      </trkpt>
      <trkpt lat="46.246353713795543" lon="8.025336675345898">
        <ele>2002.0799999999999</ele>
        <time>2019-02-10T08:20:02Z</time>
      </trkpt>
      <trkpt lat="46.246359329670668" lon="8.025326700881124">
        <ele>2003.04</ele>
        <time>2019-02-10T08:20:20Z</time>
      </trkpt>
      <trkpt lat="46.246358323842287" lon="8.025305410847068">
        <ele>2004.49</ele>
        <time>2019-02-10T08:20:37Z</time>
      </trkpt>
      <trkpt lat="46.246359245851636" lon="8.025297112762928">
        <ele>2006.4100000000001</ele>
        <time>2019-02-10T08:20:54Z</time>
      </trkpt>
      <trkpt lat="46.246352288872004" lon="8.025333071127534">
        <ele>2004.49</ele>
        <time>2019-02-10T08:21:08Z</time>
      </trkpt>
      <trkpt lat="46.246351283043623" lon="8.025339776650071">
        <ele>2004.49</ele>
        <time>2019-02-10T08:21:25Z</time>
      </trkpt>
      <trkpt lat="46.246365197002888" lon="8.025335837155581">
        <ele>2004.97</ele>
        <time>2019-02-10T08:21:37Z</time>
      </trkpt>
      <trkpt lat="46.246366873383522" lon="8.025340447202325">
        <ele>2002.5599999999999</ele>
        <time>2019-02-10T08:21:48Z</time>
      </trkpt>
      <trkpt lat="46.246369136497378" lon="8.025325695052743">
        <ele>2002.0799999999999</ele>
        <time>2019-02-10T08:22:04Z</time>
      </trkpt>
      <trkpt lat="46.246362682431936" lon="8.02534019574523">
        <ele>2001.5999999999999</ele>
        <time>2019-02-10T08:22:23Z</time>
      </trkpt>
      <trkpt lat="46.246366370469332" lon="8.02534656599164">
        <ele>2002.0799999999999</ele>
        <time>2019-02-10T08:22:45Z</time>
      </trkpt>
      <trkpt lat="46.24637114815414" lon="8.025325695052743">
        <ele>2002.0799999999999</ele>
        <time>2019-02-10T08:22:56Z</time>
      </trkpt>
      <trkpt lat="46.246367795392871" lon="8.025330053642392">
        <ele>2001.5999999999999</ele>
        <time>2019-02-10T08:23:13Z</time>
      </trkpt>
      <trkpt lat="46.246360838413239" lon="8.02534120157361">
        <ele>2000.6400000000001</ele>
        <time>2019-02-10T08:23:32Z</time>
      </trkpt>
      <trkpt lat="46.246343906968832" lon="8.025346817448735">
        <ele>2001.1199999999999</ele>
        <time>2019-02-10T08:23:46Z</time>
      </trkpt>
      <trkpt lat="46.246360167860985" lon="8.025336675345898">
        <ele>2002.0799999999999</ele>
        <time>2019-02-10T08:24:02Z</time>
      </trkpt>
      <trkpt lat="46.246364610269666" lon="8.025335250422359">
        <ele>2004.49</ele>
        <time>2019-02-10T08:24:15Z</time>
      </trkpt>
      <trkpt lat="46.246383469551802" lon="8.025301555171609">
        <ele>2004.01</ele>
        <time>2019-02-10T08:24:22Z</time>
      </trkpt>
      <trkpt lat="46.246458990499377" lon="8.025286383926868">
        <ele>2000.1600000000001</ele>
        <time>2019-02-10T08:24:29Z</time>
      </trkpt>
      <trkpt lat="46.246541468426585" lon="8.025260483846068">
        <ele>1996.8</ele>
        <time>2019-02-10T08:24:38Z</time>
      </trkpt>
      <trkpt lat="46.246607014909387" lon="8.025225112214685">
        <ele>1995.3499999999999</ele>
        <time>2019-02-10T08:24:48Z</time>
      </trkpt>
      <trkpt lat="46.246607601642609" lon="8.02523659542203">
        <ele>1998.24</ele>
        <time>2019-02-10T08:25:02Z</time>
      </trkpt>
      <trkpt lat="46.246621431782842" lon="8.025212539359927">
        <ele>1996.3199999999999</ele>
        <time>2019-02-10T08:25:16Z</time>
      </trkpt>
      <trkpt lat="46.246647331863642" lon="8.025193763896823">
        <ele>1995.8299999999999</ele>
        <time>2019-02-10T08:25:27Z</time>
      </trkpt>
      <trkpt lat="46.246683709323406" lon="8.025188483297825">
        <ele>1996.3199999999999</ele>
        <time>2019-02-10T08:25:35Z</time>
      </trkpt>
      <trkpt lat="46.246741125360131" lon="8.025155290961266">
        <ele>1996.8</ele>
        <time>2019-02-10T08:25:45Z</time>
      </trkpt>
      <trkpt lat="46.246747160330415" lon="8.025139952078462">
        <ele>1997.28</ele>
        <time>2019-02-10T08:25:50Z</time>
      </trkpt>
      <trkpt lat="46.24682410620153" lon="8.025097288191319">
        <ele>1996.3199999999999</ele>
        <time>2019-02-10T08:26:02Z</time>
      </trkpt>
      <trkpt lat="46.246824692934752" lon="8.025098880752921">
        <ele>1996.3199999999999</ele>
        <time>2019-02-10T08:26:13Z</time>
      </trkpt>
      <trkpt lat="46.246818825602531" lon="8.025089995935559">
        <ele>1996.3199999999999</ele>
        <time>2019-02-10T08:26:25Z</time>
      </trkpt>
      <trkpt lat="46.246826704591513" lon="8.025096785277128">
        <ele>1995.8299999999999</ele>
        <time>2019-02-10T08:26:40Z</time>
      </trkpt>
      <trkpt lat="46.246823519468307" lon="8.025095444172621">
        <ele>1995.8299999999999</ele>
        <time>2019-02-10T08:26:54Z</time>
      </trkpt>
      <trkpt lat="46.246829135343432" lon="8.025087313726544">
        <ele>1994.8699999999999</ele>
        <time>2019-02-10T08:27:11Z</time>
      </trkpt>
      <trkpt lat="46.246821507811546" lon="8.025102149695158">
        <ele>1995.3499999999999</ele>
        <time>2019-02-10T08:27:23Z</time>
      </trkpt>
      <trkpt lat="46.246817735955119" lon="8.025101646780968">
        <ele>1997.28</ele>
        <time>2019-02-10T08:27:39Z</time>
      </trkpt>
      <trkpt lat="46.246827710419893" lon="8.025098377838731">
        <ele>1996.3199999999999</ele>
        <time>2019-02-10T08:27:49Z</time>
      </trkpt>
      <trkpt lat="46.246827961876988" lon="8.02510617300868">
        <ele>1995.3499999999999</ele>
        <time>2019-02-10T08:27:59Z</time>
      </trkpt>
      <trkpt lat="46.246831901371479" lon="8.025118913501501">
        <ele>1994.8699999999999</ele>
        <time>2019-02-10T08:28:11Z</time>
      </trkpt>
      <trkpt lat="46.246824944391847" lon="8.025097623467445">
        <ele>1995.3499999999999</ele>
        <time>2019-02-10T08:28:21Z</time>
      </trkpt>
      <trkpt lat="46.246818993240595" lon="8.025099216029048">
        <ele>1995.3499999999999</ele>
        <time>2019-02-10T08:28:33Z</time>
      </trkpt>
      <trkpt lat="46.24682511202991" lon="8.025103406980634">
        <ele>1995.8299999999999</ele>
        <time>2019-02-10T08:28:50Z</time>
      </trkpt>
      <trkpt lat="46.24681924469769" lon="8.025102652609348">
        <ele>1995.8299999999999</ele>
        <time>2019-02-10T08:29:02Z</time>
      </trkpt>
      <trkpt lat="46.246820921078324" lon="8.025101060047746">
        <ele>1996.3199999999999</ele>
        <time>2019-02-10T08:29:13Z</time>
      </trkpt>
      <trkpt lat="46.246824692934752" lon="8.025098964571953">
        <ele>1996.3199999999999</ele>
        <time>2019-02-10T08:29:23Z</time>
      </trkpt>
      <trkpt lat="46.246824273839593" lon="8.025097288191319">
        <ele>1997.28</ele>
        <time>2019-02-10T08:29:39Z</time>
      </trkpt>
      <trkpt lat="46.246820753440261" lon="8.02509737201035">
        <ele>1997.76</ele>
        <time>2019-02-10T08:29:55Z</time>
      </trkpt>
      <trkpt lat="46.246822932735085" lon="8.02510223351419">
        <ele>1996.8</ele>
        <time>2019-02-10T08:30:10Z</time>
      </trkpt>
      <trkpt lat="46.246823268011212" lon="8.025090415030718">
        <ele>1997.28</ele>
        <time>2019-02-10T08:30:24Z</time>
      </trkpt>
      <trkpt lat="46.246820501983166" lon="8.025103574618697">
        <ele>1997.76</ele>
        <time>2019-02-10T08:30:35Z</time>
      </trkpt>
      <trkpt lat="46.246818155050278" lon="8.025100808590651">
        <ele>1996.8</ele>
        <time>2019-02-10T08:30:47Z</time>
      </trkpt>
      <trkpt lat="46.246811700984836" lon="8.025101982057095">
        <ele>1997.28</ele>
        <time>2019-02-10T08:31:04Z</time>
      </trkpt>
      <trkpt lat="46.246821340173483" lon="8.025100389495492">
        <ele>1995.3499999999999</ele>
        <time>2019-02-10T08:31:19Z</time>
      </trkpt>
      <trkpt lat="46.246821926906705" lon="8.025103993713856">
        <ele>1995.8299999999999</ele>
        <time>2019-02-10T08:31:33Z</time>
      </trkpt>
      <trkpt lat="46.246821423992515" lon="8.02509929984808">
        <ele>1995.3499999999999</ele>
        <time>2019-02-10T08:31:47Z</time>
      </trkpt>
      <trkpt lat="46.246823519468307" lon="8.025087397545576">
        <ele>1996.8</ele>
        <time>2019-02-10T08:32:00Z</time>
      </trkpt>
      <trkpt lat="46.246813125908375" lon="8.025090917944908">
        <ele>1998.72</ele>
        <time>2019-02-10T08:32:14Z</time>
      </trkpt>
      <trkpt lat="46.246814383193851" lon="8.025089157745242">
        <ele>1999.6800000000001</ele>
        <time>2019-02-10T08:32:31Z</time>
      </trkpt>
      <trkpt lat="46.246817568317056" lon="8.025091588497162">
        <ele>1999.2</ele>
        <time>2019-02-10T08:32:47Z</time>
      </trkpt>
      <trkpt lat="46.246840702369809" lon="8.025069460272789">
        <ele>1999.2</ele>
        <time>2019-02-10T08:32:59Z</time>
      </trkpt>
      <trkpt lat="46.246936256065965" lon="8.025028053671122">
        <ele>1997.76</ele>
        <time>2019-02-10T08:33:09Z</time>
      </trkpt>
      <trkpt lat="46.247027786448598" lon="8.024991843849421">
        <ele>1997.76</ele>
        <time>2019-02-10T08:33:18Z</time>
      </trkpt>
      <trkpt lat="46.247060056775808" lon="8.024974158033729">
        <ele>1997.28</ele>
        <time>2019-02-10T08:33:21Z</time>
      </trkpt>
      <trkpt lat="46.247173380106688" lon="8.024916825816035">
        <ele>1996.8</ele>
        <time>2019-02-10T08:33:32Z</time>
      </trkpt>
      <trkpt lat="46.247251834720373" lon="8.024910958483815">
        <ele>1996.3199999999999</ele>
        <time>2019-02-10T08:33:40Z</time>
      </trkpt>
      <trkpt lat="46.247276226058602" lon="8.024909868836403">
        <ele>1996.3199999999999</ele>
        <time>2019-02-10T08:33:42Z</time>
      </trkpt>
      <trkpt lat="46.247343700379133" lon="8.024896206334233">
        <ele>1996.3199999999999</ele>
        <time>2019-02-10T08:33:48Z</time>
      </trkpt>
      <trkpt lat="46.247377647086978" lon="8.024888662621379">
        <ele>1996.3199999999999</ele>
        <time>2019-02-10T08:33:52Z</time>
      </trkpt>
      <trkpt lat="46.247401032596827" lon="8.024890087544918">
        <ele>1996.3199999999999</ele>
        <time>2019-02-10T08:33:54Z</time>
      </trkpt>
      <trkpt lat="46.247435230761766" lon="8.024884890764952">
        <ele>1995.8299999999999</ele>
        <time>2019-02-10T08:33:57Z</time>
      </trkpt>
      <trkpt lat="46.247534975409508" lon="8.024874916300178">
        <ele>1995.8299999999999</ele>
        <time>2019-02-10T08:34:07Z</time>
      </trkpt>
      <trkpt lat="46.247619800269604" lon="8.024860750883818">
        <ele>1997.76</ele>
        <time>2019-02-10T08:34:16Z</time>
      </trkpt>
      <trkpt lat="46.247679647058249" lon="8.024828899651766">
        <ele>1997.28</ele>
        <time>2019-02-10T08:34:26Z</time>
      </trkpt>
      <trkpt lat="46.247687274590135" lon="8.024860331788659">
        <ele>1997.28</ele>
        <time>2019-02-10T08:34:34Z</time>
      </trkpt>
      <trkpt lat="46.247728932648897" lon="8.024824876338244">
        <ele>1997.28</ele>
        <time>2019-02-10T08:34:43Z</time>
      </trkpt>
      <trkpt lat="46.247739242389798" lon="8.024828396737576">
        <ele>1997.76</ele>
        <time>2019-02-10T08:34:54Z</time>
      </trkpt>
      <trkpt lat="46.247770674526691" lon="8.024786822497845">
        <ele>1996.8</ele>
        <time>2019-02-10T08:35:06Z</time>
      </trkpt>
      <trkpt lat="46.247803783044219" lon="8.024750696495175">
        <ele>1996.8</ele>
        <time>2019-02-10T08:35:16Z</time>
      </trkpt>
      <trkpt lat="46.247799592092633" lon="8.024802496656776">
        <ele>1995.8299999999999</ele>
        <time>2019-02-10T08:35:27Z</time>
      </trkpt>
      <trkpt lat="46.247795149683952" lon="8.024792270734906">
        <ele>1996.8</ele>
        <time>2019-02-10T08:35:37Z</time>
      </trkpt>
      <trkpt lat="46.247795904055238" lon="8.02478707395494">
        <ele>1997.28</ele>
        <time>2019-02-10T08:35:52Z</time>
      </trkpt>
      <trkpt lat="46.247801268473268" lon="8.02479344420135">
        <ele>1996.8</ele>
        <time>2019-02-10T08:36:17Z</time>
      </trkpt>
      <trkpt lat="46.247804705053568" lon="8.024791851639748">
        <ele>1997.28</ele>
        <time>2019-02-10T08:36:33Z</time>
      </trkpt>
      <trkpt lat="46.247808560729027" lon="8.024746421724558">
        <ele>1996.8</ele>
        <time>2019-02-10T08:36:40Z</time>
      </trkpt>
      <trkpt lat="46.247822809964418" lon="8.024707613512874">
        <ele>1997.28</ele>
        <time>2019-02-10T08:36:44Z</time>
      </trkpt>
      <trkpt lat="46.247877040877938" lon="8.0245974753052">
        <ele>2000.1600000000001</ele>
        <time>2019-02-10T08:36:54Z</time>
      </trkpt>
      <trkpt lat="46.247933115810156" lon="8.024541484192014">
        <ele>2001.5999999999999</ele>
        <time>2019-02-10T08:37:02Z</time>
      </trkpt>
      <trkpt lat="46.247969409450889" lon="8.024519691243768">
        <ele>2001.5999999999999</ele>
        <time>2019-02-10T08:37:06Z</time>
      </trkpt>
      <trkpt lat="46.248090527951717" lon="8.024513907730579">
        <ele>2000.6400000000001</ele>
        <time>2019-02-10T08:37:17Z</time>
      </trkpt>
      <trkpt lat="46.248197145760059" lon="8.024502424523234">
        <ele>2001.1199999999999</ele>
        <time>2019-02-10T08:37:28Z</time>
      </trkpt>
      <trkpt lat="46.248231260105968" lon="8.024477865546942">
        <ele>2002.5599999999999</ele>
        <time>2019-02-10T08:37:35Z</time>
      </trkpt>
      <trkpt lat="46.248285742476583" lon="8.024469064548612">
        <ele>2002.0799999999999</ele>
        <time>2019-02-10T08:37:40Z</time>
      </trkpt>
      <trkpt lat="46.248377608135343" lon="8.024439392611384">
        <ele>2001.5999999999999</ele>
        <time>2019-02-10T08:37:50Z</time>
      </trkpt>
      <trkpt lat="46.248475173488259" lon="8.024417851120234">
        <ele>2001.5999999999999</ele>
        <time>2019-02-10T08:38:01Z</time>
      </trkpt>
      <trkpt lat="46.248563015833497" lon="8.024387173354626">
        <ele>2000.6400000000001</ele>
        <time>2019-02-10T08:38:11Z</time>
      </trkpt>
      <trkpt lat="46.248647756874561" lon="8.024378707632422">
        <ele>2001.1199999999999</ele>
        <time>2019-02-10T08:38:21Z</time>
      </trkpt>
      <trkpt lat="46.248718081042171" lon="8.024390023201704">
        <ele>2002.5599999999999</ele>
        <time>2019-02-10T08:38:30Z</time>
      </trkpt>
      <trkpt lat="46.24881430529058" lon="8.024384239688516">
        <ele>2003.52</ele>
        <time>2019-02-10T08:38:42Z</time>
      </trkpt>
      <trkpt lat="46.248903321102262" lon="8.024370661005378">
        <ele>2002.5599999999999</ele>
        <time>2019-02-10T08:38:52Z</time>
      </trkpt>
      <trkpt lat="46.248966017737985" lon="8.024353142827749">
        <ele>2002.5599999999999</ele>
        <time>2019-02-10T08:38:59Z</time>
      </trkpt>
      <trkpt lat="46.249060900881886" lon="8.024298660457134">
        <ele>2000.6400000000001</ele>
        <time>2019-02-10T08:39:11Z</time>
      </trkpt>
      <trkpt lat="46.249143546447158" lon="8.024242501705885">
        <ele>2000.6400000000001</ele>
        <time>2019-02-10T08:39:21Z</time>
      </trkpt>
      <trkpt lat="46.249214624986053" lon="8.024176536127925">
        <ele>2001.1199999999999</ele>
        <time>2019-02-10T08:39:33Z</time>
      </trkpt>
      <trkpt lat="46.249286625534296" lon="8.024159269407392">
        <ele>2001.5999999999999</ele>
        <time>2019-02-10T08:39:44Z</time>
      </trkpt>
      <trkpt lat="46.249348651617765" lon="8.024168238043785">
        <ele>2003.04</ele>
        <time>2019-02-10T08:39:53Z</time>
      </trkpt>
      <trkpt lat="46.249432219192386" lon="8.024162454530597">
        <ele>2003.52</ele>
        <time>2019-02-10T08:40:03Z</time>
      </trkpt>
      <trkpt lat="46.249505896121264" lon="8.024144601076841">
        <ele>2004.49</ele>
        <time>2019-02-10T08:40:13Z</time>
      </trkpt>
      <trkpt lat="46.249534478411078" lon="8.024137727916241">
        <ele>2004.49</ele>
        <time>2019-02-10T08:40:19Z</time>
      </trkpt>
      <trkpt lat="46.249553505331278" lon="8.024120545014739">
        <ele>2004.97</ele>
        <time>2019-02-10T08:40:22Z</time>
      </trkpt>
      <trkpt lat="46.249602288007736" lon="8.024111576378346">
        <ele>2005.9300000000001</ele>
        <time>2019-02-10T08:40:32Z</time>
      </trkpt>
      <trkpt lat="46.249631037935615" lon="8.024094477295876">
        <ele>2005.9300000000001</ele>
        <time>2019-02-10T08:40:43Z</time>
      </trkpt>
      <trkpt lat="46.249648472294211" lon="8.024139069020748">
        <ele>2004.97</ele>
        <time>2019-02-10T08:40:53Z</time>
      </trkpt>
      <trkpt lat="46.24966062605381" lon="8.024126496165991">
        <ele>2005.45</ele>
        <time>2019-02-10T08:41:05Z</time>
      </trkpt>
      <trkpt lat="46.249648304656148" lon="8.024046532809734">
        <ele>2005.45</ele>
        <time>2019-02-10T08:41:13Z</time>
      </trkpt>
      <trkpt lat="46.249655010178685" lon="8.02396229468286">
        <ele>2004.97</ele>
        <time>2019-02-10T08:41:20Z</time>
      </trkpt>
      <trkpt lat="46.249696668237448" lon="8.023894485086203">
        <ele>2007.8499999999999</ele>
        <time>2019-02-10T08:41:30Z</time>
      </trkpt>
      <trkpt lat="46.249700356274843" lon="8.023908566683531">
        <ele>2008.3299999999999</ele>
        <time>2019-02-10T08:41:41Z</time>
      </trkpt>
      <trkpt lat="46.249721562489867" lon="8.02393052726984">
        <ele>2007.3699999999999</ele>
        <time>2019-02-10T08:41:50Z</time>
      </trkpt>
      <trkpt lat="46.249713432043791" lon="8.023918960243464">
        <ele>2007.3699999999999</ele>
        <time>2019-02-10T08:42:04Z</time>
      </trkpt>
      <trkpt lat="46.249706977978349" lon="8.023878308013082">
        <ele>2007.3699999999999</ele>
        <time>2019-02-10T08:42:14Z</time>
      </trkpt>
      <trkpt lat="46.249676970764995" lon="8.023867830634117">
        <ele>2007.3699999999999</ele>
        <time>2019-02-10T08:42:25Z</time>
      </trkpt>
      <trkpt lat="46.249605221673846" lon="8.023793566972017">
        <ele>2007.8499999999999</ele>
        <time>2019-02-10T08:42:35Z</time>
      </trkpt>
      <trkpt lat="46.249571274966002" lon="8.023699605837464">
        <ele>2009.77</ele>
        <time>2019-02-10T08:42:45Z</time>
      </trkpt>
      <trkpt lat="46.249556858092546" lon="8.023654008284211">
        <ele>2009.77</ele>
        <time>2019-02-10T08:42:49Z</time>
      </trkpt>
      <trkpt lat="46.249575465917587" lon="8.023539930582047">
        <ele>2011.7</ele>
        <time>2019-02-10T08:42:58Z</time>
      </trkpt>
      <trkpt lat="46.249629613012075" lon="8.023471450433135">
        <ele>2013.6199999999999</ele>
        <time>2019-02-10T08:43:08Z</time>
      </trkpt>
      <trkpt lat="46.249633468687534" lon="8.023488130420446">
        <ele>2011.7</ele>
        <time>2019-02-10T08:43:13Z</time>
      </trkpt>
      <trkpt lat="46.249638916924596" lon="8.023491902276874">
        <ele>2010.25</ele>
        <time>2019-02-10T08:43:25Z</time>
      </trkpt>
      <trkpt lat="46.249642688781023" lon="8.023506151512265">
        <ele>2013.1400000000001</ele>
        <time>2019-02-10T08:43:35Z</time>
      </trkpt>
      <trkpt lat="46.249634390696883" lon="8.023485783487558">
        <ele>2012.6600000000001</ele>
        <time>2019-02-10T08:43:49Z</time>
      </trkpt>
      <trkpt lat="46.249631708487868" lon="8.02349760197103">
        <ele>2012.6600000000001</ele>
        <time>2019-02-10T08:43:57Z</time>
      </trkpt>
      <trkpt lat="46.249631876125932" lon="8.023501373827457">
        <ele>2012.6600000000001</ele>
        <time>2019-02-10T08:44:10Z</time>
      </trkpt>
      <trkpt lat="46.249634893611073" lon="8.023496260866523">
        <ele>2011.7</ele>
        <time>2019-02-10T08:44:20Z</time>
      </trkpt>
      <trkpt lat="46.249637575820088" lon="8.023507492616773">
        <ele>2012.1800000000001</ele>
        <time>2019-02-10T08:44:36Z</time>
      </trkpt>
      <trkpt lat="46.249642185866833" lon="8.023517383262515">
        <ele>2014.0999999999999</ele>
        <time>2019-02-10T08:44:47Z</time>
      </trkpt>
      <trkpt lat="46.249643862247467" lon="8.023510510101914">
        <ele>2014.0999999999999</ele>
        <time>2019-02-10T08:45:00Z</time>
      </trkpt>
      <trkpt lat="46.249641347676516" lon="8.023492237553001">
        <ele>2014.5799999999999</ele>
        <time>2019-02-10T08:45:14Z</time>
      </trkpt>
      <trkpt lat="46.249635731801391" lon="8.023502631112933">
        <ele>2014.5799999999999</ele>
        <time>2019-02-10T08:45:31Z</time>
      </trkpt>
      <trkpt lat="46.249659787863493" lon="8.023459715768695">
        <ele>2014.0999999999999</ele>
        <time>2019-02-10T08:45:41Z</time>
      </trkpt>
      <trkpt lat="46.249725250527263" lon="8.023425936698914">
        <ele>2015.0599999999999</ele>
        <time>2019-02-10T08:45:50Z</time>
      </trkpt>
      <trkpt lat="46.249744361266494" lon="8.02342476323247">
        <ele>2015.54</ele>
        <time>2019-02-10T08:45:53Z</time>
      </trkpt>
      <trkpt lat="46.249772859737277" lon="8.023427445441485">
        <ele>2015.54</ele>
        <time>2019-02-10T08:45:57Z</time>
      </trkpt>
      <trkpt lat="46.24979549087584" lon="8.0234370008111">
        <ele>2016.98</ele>
        <time>2019-02-10T08:46:00Z</time>
      </trkpt>
      <trkpt lat="46.249802280217409" lon="8.023461140692234">
        <ele>2017.46</ele>
        <time>2019-02-10T08:46:03Z</time>
      </trkpt>
      <trkpt lat="46.249835137277842" lon="8.023466672748327">
        <ele>2017.46</ele>
        <time>2019-02-10T08:46:07Z</time>
      </trkpt>
      <trkpt lat="46.249906551092863" lon="8.023481676355004">
        <ele>2018.9100000000001</ele>
        <time>2019-02-10T08:46:17Z</time>
      </trkpt>
      <trkpt lat="46.249967906624079" lon="8.02346533164382">
        <ele>2021.79</ele>
        <time>2019-02-10T08:46:29Z</time>
      </trkpt>
      <trkpt lat="46.249961704015732" lon="8.023487627506256">
        <ele>2022.75</ele>
        <time>2019-02-10T08:46:39Z</time>
      </trkpt>
      <trkpt lat="46.249961787834764" lon="8.023493075743318">
        <ele>2021.3099999999999</ele>
        <time>2019-02-10T08:46:57Z</time>
      </trkpt>
      <trkpt lat="46.249951142817736" lon="8.023495590314269">
        <ele>2023.23</ele>
        <time>2019-02-10T08:47:11Z</time>
      </trkpt>
      <trkpt lat="46.249954998493195" lon="8.023510510101914">
        <ele>2023.23</ele>
        <time>2019-02-10T08:47:24Z</time>
      </trkpt>
      <trkpt lat="46.24995625577867" lon="8.023505313321948">
        <ele>2023.23</ele>
        <time>2019-02-10T08:47:43Z</time>
      </trkpt>
      <trkpt lat="46.249954327940941" lon="8.023514449596405">
        <ele>2023.23</ele>
        <time>2019-02-10T08:47:59Z</time>
      </trkpt>
      <trkpt lat="46.249943934381008" lon="8.023514868691564">
        <ele>2023.71</ele>
        <time>2019-02-10T08:48:15Z</time>
      </trkpt>
      <trkpt lat="46.24997042119503" lon="8.023474551737309">
        <ele>2024.1900000000001</ele>
        <time>2019-02-10T08:48:23Z</time>
      </trkpt>
      <trkpt lat="46.249992633238435" lon="8.023459129035473">
        <ele>2025.6400000000001</ele>
        <time>2019-02-10T08:48:33Z</time>
      </trkpt>
      <trkpt lat="46.249986765906215" lon="8.023466840386391">
        <ele>2025.6400000000001</ele>
        <time>2019-02-10T08:48:47Z</time>
      </trkpt>
      <trkpt lat="46.249994728714228" lon="8.023470779880881">
        <ele>2024.6700000000001</ele>
        <time>2019-02-10T08:48:59Z</time>
      </trkpt>
      <trkpt lat="46.249994644895196" lon="8.023469019681215">
        <ele>2025.6400000000001</ele>
        <time>2019-02-10T08:49:11Z</time>
      </trkpt>
      <trkpt lat="46.249998500570655" lon="8.0234819278121">
        <ele>2025.6400000000001</ele>
        <time>2019-02-10T08:49:27Z</time>
      </trkpt>
      <trkpt lat="46.250008894130588" lon="8.023429121822119">
        <ele>2025.6400000000001</ele>
        <time>2019-02-10T08:49:33Z</time>
      </trkpt>
      <trkpt lat="46.250023813918233" lon="8.023324767127633">
        <ele>2026.1199999999999</ele>
        <time>2019-02-10T08:49:40Z</time>
      </trkpt>
      <trkpt lat="46.250034878030419" lon="8.023190908133984">
        <ele>2027.5599999999999</ele>
        <time>2019-02-10T08:49:50Z</time>
      </trkpt>
      <trkpt lat="46.250037476420403" lon="8.023110777139664">
        <ele>2029.48</ele>
        <time>2019-02-10T08:49:56Z</time>
      </trkpt>
      <trkpt lat="46.250065052881837" lon="8.023005081340671">
        <ele>2030.9200000000001</ele>
        <time>2019-02-10T08:50:07Z</time>
      </trkpt>
      <trkpt lat="46.250067735090852" lon="8.022976163774729">
        <ele>2031.8800000000001</ele>
        <time>2019-02-10T08:50:10Z</time>
      </trkpt>
      <trkpt lat="46.250083995983005" lon="8.022925117984414">
        <ele>2033.8099999999999</ele>
        <time>2019-02-10T08:50:18Z</time>
      </trkpt>
      <trkpt lat="46.250084582716227" lon="8.022838868200779">
        <ele>2033.3299999999999</ele>
        <time>2019-02-10T08:50:30Z</time>
      </trkpt>
      <trkpt lat="46.250078631564975" lon="8.022757396101952">
        <ele>2032.8399999999999</ele>
        <time>2019-02-10T08:50:40Z</time>
      </trkpt>
      <trkpt lat="46.250075697898865" lon="8.022704338654876">
        <ele>2034.77</ele>
        <time>2019-02-10T08:50:48Z</time>
      </trkpt>
      <trkpt lat="46.250085169449449" lon="8.022654298692942">
        <ele>2036.21</ele>
        <time>2019-02-10T08:50:57Z</time>
      </trkpt>
      <trkpt lat="46.250101597979665" lon="8.022623201832175">
        <ele>2036.6900000000001</ele>
        <time>2019-02-10T08:51:07Z</time>
      </trkpt>
      <trkpt lat="46.250088857486844" lon="8.022645581513643">
        <ele>2036.21</ele>
        <time>2019-02-10T08:51:18Z</time>
      </trkpt>
      <trkpt lat="46.250086510553956" lon="8.022647257894278">
        <ele>2036.21</ele>
        <time>2019-02-10T08:51:30Z</time>
      </trkpt>
      <trkpt lat="46.250097658485174" lon="8.022634768858552">
        <ele>2036.6900000000001</ele>
        <time>2019-02-10T08:51:41Z</time>
      </trkpt>
      <trkpt lat="46.250109057873487" lon="8.022624794393778">
        <ele>2038.1300000000001</ele>
        <time>2019-02-10T08:51:58Z</time>
      </trkpt>
      <trkpt lat="46.250105369836092" lon="8.022635607048869">
        <ele>2037.1700000000001</ele>
        <time>2019-02-10T08:52:14Z</time>
      </trkpt>
      <trkpt lat="46.250104950740933" lon="8.022638121619821">
        <ele>2038.1300000000001</ele>
        <time>2019-02-10T08:52:31Z</time>
      </trkpt>
      <trkpt lat="46.250093132257462" lon="8.02256042137742">
        <ele>2037.6500000000001</ele>
        <time>2019-02-10T08:52:40Z</time>
      </trkpt>
      <trkpt lat="46.25009698793292" lon="8.02251742221415">
        <ele>2037.6500000000001</ele>
        <time>2019-02-10T08:52:43Z</time>
      </trkpt>
      <trkpt lat="46.250120624899864" lon="8.022483559325337">
        <ele>2038.1300000000001</ele>
        <time>2019-02-10T08:52:51Z</time>
      </trkpt>
      <trkpt lat="46.250128587707877" lon="8.022475512698293">
        <ele>2037.1700000000001</ele>
        <time>2019-02-10T08:53:01Z</time>
      </trkpt>
      <trkpt lat="46.250125402584672" lon="8.022440057247877">
        <ele>2037.6500000000001</ele>
        <time>2019-02-10T08:53:04Z</time>
      </trkpt>
      <trkpt lat="46.250124396756291" lon="8.022333439439535">
        <ele>2037.6500000000001</ele>
        <time>2019-02-10T08:53:11Z</time>
      </trkpt>
      <trkpt lat="46.250134874135256" lon="8.022281639277935">
        <ele>2037.6500000000001</ele>
        <time>2019-02-10T08:53:15Z</time>
      </trkpt>
      <trkpt lat="46.250130515545607" lon="8.022167477756739">
        <ele>2039.0899999999999</ele>
        <time>2019-02-10T08:53:24Z</time>
      </trkpt>
      <trkpt lat="46.250129006803036" lon="8.022044263780117">
        <ele>2040.54</ele>
        <time>2019-02-10T08:53:34Z</time>
      </trkpt>
      <trkpt lat="46.250148620456457" lon="8.021952314302325">
        <ele>2040.54</ele>
        <time>2019-02-10T08:53:43Z</time>
      </trkpt>
      <trkpt lat="46.250162869691849" lon="8.021867489442229">
        <ele>2041.98</ele>
        <time>2019-02-10T08:53:51Z</time>
      </trkpt>
      <trkpt lat="46.250173598527908" lon="8.021799009293318">
        <ele>2041.98</ele>
        <time>2019-02-10T08:53:58Z</time>
      </trkpt>
      <trkpt lat="46.250200923532248" lon="8.021699264645577">
        <ele>2043.9000000000001</ele>
        <time>2019-02-10T08:54:08Z</time>
      </trkpt>
      <trkpt lat="46.250207545235753" lon="8.021587114781141">
        <ele>2044.3800000000001</ele>
        <time>2019-02-10T08:54:18Z</time>
      </trkpt>
      <trkpt lat="46.250230260193348" lon="8.02147219888866">
        <ele>2044.8599999999999</ele>
        <time>2019-02-10T08:54:28Z</time>
      </trkpt>
      <trkpt lat="46.250291196629405" lon="8.021463649347425">
        <ele>2045.3399999999999</ele>
        <time>2019-02-10T08:54:37Z</time>
      </trkpt>
      <trkpt lat="46.250313911587" lon="8.021382596343756">
        <ele>2046.78</ele>
        <time>2019-02-10T08:54:47Z</time>
      </trkpt>
      <trkpt lat="46.25031927600503" lon="8.021271703764796">
        <ele>2046.78</ele>
        <time>2019-02-10T08:54:56Z</time>
      </trkpt>
      <trkpt lat="46.2503432482481" lon="8.021228453144431">
        <ele>2046.78</ele>
        <time>2019-02-10T08:55:00Z</time>
      </trkpt>
      <trkpt lat="46.250366801396012" lon="8.021166007965803">
        <ele>2046.3</ele>
        <time>2019-02-10T08:55:06Z</time>
      </trkpt>
      <trkpt lat="46.250403430312872" lon="8.021031059324741">
        <ele>2046.78</ele>
        <time>2019-02-10T08:55:18Z</time>
      </trkpt>
      <trkpt lat="46.250439723953605" lon="8.020967859774828">
        <ele>2048.23</ele>
        <time>2019-02-10T08:55:29Z</time>
      </trkpt>
      <trkpt lat="46.250444166362286" lon="8.020892255008221">
        <ele>2048.23</ele>
        <time>2019-02-10T08:55:36Z</time>
      </trkpt>
      <trkpt lat="46.250467216596007" lon="8.020852524787188">
        <ele>2046.78</ele>
        <time>2019-02-10T08:55:40Z</time>
      </trkpt>
      <trkpt lat="46.250503174960613" lon="8.020705590024591">
        <ele>2043.4200000000001</ele>
        <time>2019-02-10T08:55:52Z</time>
      </trkpt>
      <trkpt lat="46.250512730330229" lon="8.020674996078014">
        <ele>2043.4200000000001</ele>
        <time>2019-02-10T08:55:54Z</time>
      </trkpt>
      <trkpt lat="46.250560255721211" lon="8.020563684403896">
        <ele>2042.9400000000001</ele>
        <time>2019-02-10T08:56:02Z</time>
      </trkpt>
      <trkpt lat="46.250574924051762" lon="8.020543484017253">
        <ele>2042.9400000000001</ele>
        <time>2019-02-10T08:56:04Z</time>
      </trkpt>
      <trkpt lat="46.250647762790322" lon="8.020519930869341">
        <ele>2043.4200000000001</ele>
        <time>2019-02-10T08:56:13Z</time>
      </trkpt>
      <trkpt lat="46.250657066702843" lon="8.020515572279692">
        <ele>2042.9400000000001</ele>
        <time>2019-02-10T08:56:22Z</time>
      </trkpt>
      <trkpt lat="46.250692354515195" lon="8.020512722432613">
        <ele>2042.9400000000001</ele>
        <time>2019-02-10T08:56:26Z</time>
      </trkpt>
      <trkpt lat="46.250804336741567" lon="8.02051205188036">
        <ele>2043.4200000000001</ele>
        <time>2019-02-10T08:56:37Z</time>
      </trkpt>
      <trkpt lat="46.250923024490476" lon="8.020534012466669">
        <ele>2044.3800000000001</ele>
        <time>2019-02-10T08:56:48Z</time>
      </trkpt>
      <trkpt lat="46.251002820208669" lon="8.020531665533781">
        <ele>2044.3800000000001</ele>
        <time>2019-02-10T08:56:57Z</time>
      </trkpt>
      <trkpt lat="46.251047747209668" lon="8.020509034395218">
        <ele>2044.3800000000001</ele>
        <time>2019-02-10T08:57:03Z</time>
      </trkpt>
      <trkpt lat="46.251076580956578" lon="8.020495204254985">
        <ele>2044.3800000000001</ele>
        <time>2019-02-10T08:57:06Z</time>
      </trkpt>
      <trkpt lat="46.251160316169262" lon="8.02057265304029">
        <ele>2043.9000000000001</ele>
        <time>2019-02-10T08:57:15Z</time>
      </trkpt>
      <trkpt lat="46.251200884580612" lon="8.020559744909406">
        <ele>2043.4200000000001</ele>
        <time>2019-02-10T08:57:24Z</time>
      </trkpt>
      <trkpt lat="46.251192167401314" lon="8.020582124590874">
        <ele>2043.9000000000001</ele>
        <time>2019-02-10T08:57:32Z</time>
      </trkpt>
      <trkpt lat="46.251235250383615" lon="8.020603582262993">
        <ele>2043.9000000000001</ele>
        <time>2019-02-10T08:57:39Z</time>
      </trkpt>
      <trkpt lat="46.251264419406652" lon="8.020576927810907">
        <ele>2044.8599999999999</ele>
        <time>2019-02-10T08:57:48Z</time>
      </trkpt>
      <trkpt lat="46.251245560124516" lon="8.020600900053978">
        <ele>2046.78</ele>
        <time>2019-02-10T08:58:00Z</time>
      </trkpt>
      <trkpt lat="46.251265676692128" lon="8.020604755729437">
        <ele>2049.6700000000001</ele>
        <time>2019-02-10T08:58:12Z</time>
      </trkpt>
      <trkpt lat="46.251270202919841" lon="8.02059905603528">
        <ele>2051.5900000000001</ele>
        <time>2019-02-10T08:58:18Z</time>
      </trkpt>
      <trkpt lat="46.251298952847719" lon="8.020516410470009">
        <ele>2052.5500000000002</ele>
        <time>2019-02-10T08:58:34Z</time>
      </trkpt>
      <trkpt lat="46.251294175162911" lon="8.020522026345134">
        <ele>2049.1900000000001</ele>
        <time>2019-02-10T08:58:43Z</time>
      </trkpt>
      <trkpt lat="46.251317812129855" lon="8.020481122657657">
        <ele>2047.75</ele>
        <time>2019-02-10T08:58:48Z</time>
      </trkpt>
      <trkpt lat="46.251323511824012" lon="8.020471148192883">
        <ele>2047.26</ele>
        <time>2019-02-10T08:58:49Z</time>
      </trkpt>
      <trkpt lat="46.251360643655062" lon="8.02049009129405">
        <ele>2044.8599999999999</ele>
        <time>2019-02-10T08:58:54Z</time>
      </trkpt>
      <trkpt lat="46.251364331692457" lon="8.020415743812919">
        <ele>2043.9000000000001</ele>
        <time>2019-02-10T08:59:03Z</time>
      </trkpt>
      <trkpt lat="46.251350920647383" lon="8.020404595881701">
        <ele>2043.4200000000001</ele>
        <time>2019-02-10T08:59:05Z</time>
      </trkpt>
      <trkpt lat="46.251343293115497" lon="8.02038112655282">
        <ele>2043.9000000000001</ele>
        <time>2019-02-10T08:59:13Z</time>
      </trkpt>
      <trkpt lat="46.251332983374596" lon="8.020348101854324">
        <ele>2042.9400000000001</ele>
        <time>2019-02-10T08:59:22Z</time>
      </trkpt>
      <trkpt lat="46.251313704997301" lon="8.020293954759836">
        <ele>2042.9400000000001</ele>
        <time>2019-02-10T08:59:30Z</time>
      </trkpt>
      <trkpt lat="46.251334073022008" lon="8.020296804606915">
        <ele>2041.02</ele>
        <time>2019-02-10T08:59:45Z</time>
      </trkpt>
      <trkpt lat="46.251344885677099" lon="8.020282555371523">
        <ele>2041.5</ele>
        <time>2019-02-10T09:00:03Z</time>
      </trkpt>
      <trkpt lat="46.251347232609987" lon="8.020283980295062">
        <ele>2042.46</ele>
        <time>2019-02-10T09:00:14Z</time>
      </trkpt>
      <trkpt lat="46.251322589814663" lon="8.020278448238969">
        <ele>2041.98</ele>
        <time>2019-02-10T09:00:26Z</time>
      </trkpt>
      <trkpt lat="46.251333821564913" lon="8.020275849848986">
        <ele>2041.5</ele>
        <time>2019-02-10T09:00:36Z</time>
      </trkpt>
      <trkpt lat="46.25134689733386" lon="8.020235616713762">
        <ele>2041.5</ele>
        <time>2019-02-10T09:00:45Z</time>
      </trkpt>
      <trkpt lat="46.251357039436698" lon="8.020201502367854">
        <ele>2041.02</ele>
        <time>2019-02-10T09:00:48Z</time>
      </trkpt>
      <trkpt lat="46.251422334462404" lon="8.020148780196905">
        <ele>2042.46</ele>
        <time>2019-02-10T09:00:57Z</time>
      </trkpt>
      <trkpt lat="46.251451084390283" lon="8.020124053582549">
        <ele>2043.9000000000001</ele>
        <time>2019-02-10T09:01:05Z</time>
      </trkpt>
      <trkpt lat="46.251464830711484" lon="8.02007183432579">
        <ele>2043.4200000000001</ele>
        <time>2019-02-10T09:01:14Z</time>
      </trkpt>
      <trkpt lat="46.251481845974922" lon="8.020027996972203">
        <ele>2044.3800000000001</ele>
        <time>2019-02-10T09:01:21Z</time>
      </trkpt>
      <trkpt lat="46.251437924802303" lon="8.019961528480053">
        <ele>2046.3</ele>
        <time>2019-02-10T09:01:31Z</time>
      </trkpt>
      <trkpt lat="46.251414120197296" lon="8.019893132150173">
        <ele>2048.71</ele>
        <time>2019-02-10T09:01:41Z</time>
      </trkpt>
      <trkpt lat="46.251398278400302" lon="8.019806379452348">
        <ele>2050.1500000000001</ele>
        <time>2019-02-10T09:01:54Z</time>
      </trkpt>
      <trkpt lat="46.251400206238031" lon="8.019745694473386">
        <ele>2052.0700000000002</ele>
        <time>2019-02-10T09:02:03Z</time>
      </trkpt>
      <trkpt lat="46.251391237601638" lon="8.019678723067045">
        <ele>2054.96</ele>
        <time>2019-02-10T09:02:12Z</time>
      </trkpt>
      <trkpt lat="46.251401882618666" lon="8.019594568759203">
        <ele>2056.4000000000001</ele>
        <time>2019-02-10T09:02:22Z</time>
      </trkpt>
      <trkpt lat="46.251422418281436" lon="8.019513264298439">
        <ele>2058.3200000000002</ele>
        <time>2019-02-10T09:02:31Z</time>
      </trkpt>
      <trkpt lat="46.251435074955225" lon="8.019447633996606">
        <ele>2060.7199999999998</ele>
        <time>2019-02-10T09:02:41Z</time>
      </trkpt>
      <trkpt lat="46.251475308090448" lon="8.019407568499446">
        <ele>2061.1999999999998</ele>
        <time>2019-02-10T09:02:49Z</time>
      </trkpt>
      <trkpt lat="46.251526102423668" lon="8.019425086677074">
        <ele>2061.1999999999998</ele>
        <time>2019-02-10T09:02:59Z</time>
      </trkpt>
      <trkpt lat="46.251561557874084" lon="8.019470265135169">
        <ele>2063.6100000000001</ele>
        <time>2019-02-10T09:03:09Z</time>
      </trkpt>
      <trkpt lat="46.251606065779924" lon="8.019508654251695">
        <ele>2064.5700000000002</ele>
        <time>2019-02-10T09:03:19Z</time>
      </trkpt>
      <trkpt lat="46.251642275601625" lon="8.019513851031661">
        <ele>2066.9699999999998</ele>
        <time>2019-02-10T09:03:26Z</time>
      </trkpt>
      <trkpt lat="46.251653507351875" lon="8.019504714757204">
        <ele>2067.9299999999998</ele>
        <time>2019-02-10T09:03:35Z</time>
      </trkpt>
      <trkpt lat="46.251679994165897" lon="8.019434474408627">
        <ele>2068.4099999999999</ele>
        <time>2019-02-10T09:03:44Z</time>
      </trkpt>
      <trkpt lat="46.251699859276414" lon="8.019347470253706">
        <ele>2068.4099999999999</ele>
        <time>2019-02-10T09:03:53Z</time>
      </trkpt>
      <trkpt lat="46.251696841791272" lon="8.019361887127161">
        <ele>2067.4499999999998</ele>
        <time>2019-02-10T09:04:02Z</time>
      </trkpt>
      <trkpt lat="46.251704972237349" lon="8.019358869642019">
        <ele>2068.8899999999999</ele>
        <time>2019-02-10T09:04:13Z</time>
      </trkpt>
      <trkpt lat="46.251690303906798" lon="8.019369933754206">
        <ele>2068.4099999999999</ele>
        <time>2019-02-10T09:04:22Z</time>
      </trkpt>
      <trkpt lat="46.251694327220321" lon="8.019368005916476">
        <ele>2068.8899999999999</ele>
        <time>2019-02-10T09:04:33Z</time>
      </trkpt>
      <trkpt lat="46.251689717173576" lon="8.019375130534172">
        <ele>2067.9299999999998</ele>
        <time>2019-02-10T09:04:48Z</time>
      </trkpt>
      <trkpt lat="46.251686783507466" lon="8.019364736974239">
        <ele>2066.9699999999998</ele>
        <time>2019-02-10T09:05:03Z</time>
      </trkpt>
      <trkpt lat="46.251690974459052" lon="8.019373873248696">
        <ele>2068.8899999999999</ele>
        <time>2019-02-10T09:05:18Z</time>
      </trkpt>
      <trkpt lat="46.251713521778584" lon="8.019325006753206">
        <ele>2068.4099999999999</ele>
        <time>2019-02-10T09:05:27Z</time>
      </trkpt>
      <trkpt lat="46.251729866489768" lon="8.019260885193944">
        <ele>2069.3800000000001</ele>
        <time>2019-02-10T09:05:35Z</time>
      </trkpt>
      <trkpt lat="46.251756604760885" lon="8.019190980121493">
        <ele>2069.8600000000001</ele>
        <time>2019-02-10T09:05:43Z</time>
      </trkpt>
      <trkpt lat="46.251771273091435" lon="8.01909115165472">
        <ele>2071.7800000000002</ele>
        <time>2019-02-10T09:05:54Z</time>
      </trkpt>
      <trkpt lat="46.251781163737178" lon="8.019004818052054">
        <ele>2074.1799999999998</ele>
        <time>2019-02-10T09:06:04Z</time>
      </trkpt>
      <trkpt lat="46.251802621409297" lon="8.018957963213325">
        <ele>2075.1399999999999</ele>
        <time>2019-02-10T09:06:12Z</time>
      </trkpt>
      <trkpt lat="46.251811170950532" lon="8.018868109211326">
        <ele>2076.0999999999999</ele>
        <time>2019-02-10T09:06:23Z</time>
      </trkpt>
      <trkpt lat="46.251842435449362" lon="8.018775824457407">
        <ele>2075.6199999999999</ele>
        <time>2019-02-10T09:06:35Z</time>
      </trkpt>
      <trkpt lat="46.251858528703451" lon="8.018709691241384">
        <ele>2078.9899999999998</ele>
        <time>2019-02-10T09:06:44Z</time>
      </trkpt>
      <trkpt lat="46.251856852322817" lon="8.018687311559916">
        <ele>2080.4299999999998</ele>
        <time>2019-02-10T09:06:47Z</time>
      </trkpt>
      <trkpt lat="46.251867413520813" lon="8.018593266606331">
        <ele>2082.3499999999999</ele>
        <time>2019-02-10T09:06:57Z</time>
      </trkpt>
      <trkpt lat="46.251865988597274" lon="8.0185292288661">
        <ele>2082.3499999999999</ele>
        <time>2019-02-10T09:07:05Z</time>
      </trkpt>
      <trkpt lat="46.251823408529162" lon="8.018473656848073">
        <ele>2081.8699999999999</ele>
        <time>2019-02-10T09:07:15Z</time>
      </trkpt>
      <trkpt lat="46.251774877309799" lon="8.018426215276122">
        <ele>2083.3099999999999</ele>
        <time>2019-02-10T09:07:24Z</time>
      </trkpt>
      <trkpt lat="46.251725340262055" lon="8.018363770097494">
        <ele>2081.3899999999999</ele>
        <time>2019-02-10T09:07:32Z</time>
      </trkpt>
      <trkpt lat="46.25168452039361" lon="8.018270647153258">
        <ele>2081.3899999999999</ele>
        <time>2019-02-10T09:07:42Z</time>
      </trkpt>
      <trkpt lat="46.251667002215981" lon="8.018205184489489">
        <ele>2080.9099999999999</ele>
        <time>2019-02-10T09:07:48Z</time>
      </trkpt>
      <trkpt lat="46.251685442402959" lon="8.01807040348649">
        <ele>2081.8699999999999</ele>
        <time>2019-02-10T09:07:59Z</time>
      </trkpt>
      <trkpt lat="46.251709163188934" lon="8.017975352704525">
        <ele>2081.8699999999999</ele>
        <time>2019-02-10T09:08:08Z</time>
      </trkpt>
      <trkpt lat="46.251734811812639" lon="8.017849624156952">
        <ele>2081.8699999999999</ele>
        <time>2019-02-10T09:08:18Z</time>
      </trkpt>
      <trkpt lat="46.251744283363223" lon="8.0177694093436">
        <ele>2082.8299999999999</ele>
        <time>2019-02-10T09:08:25Z</time>
      </trkpt>
      <trkpt lat="46.251778230071068" lon="8.017687937244773">
        <ele>2083.79</ele>
        <time>2019-02-10T09:08:36Z</time>
      </trkpt>
      <trkpt lat="46.251762891188264" lon="8.017705203965306">
        <ele>2083.79</ele>
        <time>2019-02-10T09:08:46Z</time>
      </trkpt>
      <trkpt lat="46.251767249777913" lon="8.017579223960638">
        <ele>2083.79</ele>
        <time>2019-02-10T09:08:57Z</time>
      </trkpt>
      <trkpt lat="46.251765573397279" lon="8.017567992210388">
        <ele>2084.2800000000002</ele>
        <time>2019-02-10T09:08:58Z</time>
      </trkpt>
      <trkpt lat="46.251738499850035" lon="8.017458021640778">
        <ele>2085.7199999999998</ele>
        <time>2019-02-10T09:09:09Z</time>
      </trkpt>
      <trkpt lat="46.251723831519485" lon="8.017374286428094">
        <ele>2087.1599999999999</ele>
        <time>2019-02-10T09:09:19Z</time>
      </trkpt>
      <trkpt lat="46.251711091026664" lon="8.017324833199382">
        <ele>2087.6399999999999</ele>
        <time>2019-02-10T09:09:24Z</time>
      </trkpt>
      <trkpt lat="46.25168108381331" lon="8.017199859023094">
        <ele>2088.5999999999999</ele>
        <time>2019-02-10T09:09:37Z</time>
      </trkpt>
      <trkpt lat="46.251674881204963" lon="8.017124338075519">
        <ele>2091.4899999999998</ele>
        <time>2019-02-10T09:09:46Z</time>
      </trkpt>
      <trkpt lat="46.251657782122493" lon="8.017050493508577">
        <ele>2091.9699999999998</ele>
        <time>2019-02-10T09:09:56Z</time>
      </trkpt>
      <trkpt lat="46.251647556200624" lon="8.01693675108254">
        <ele>2092.4499999999998</ele>
        <time>2019-02-10T09:10:08Z</time>
      </trkpt>
      <trkpt lat="46.251628696918488" lon="8.016873635351658">
        <ele>2092.9299999999998</ele>
        <time>2019-02-10T09:10:18Z</time>
      </trkpt>
      <trkpt lat="46.251595253124833" lon="8.016779003664851">
        <ele>2094.3699999999999</ele>
        <time>2019-02-10T09:10:34Z</time>
      </trkpt>
      <trkpt lat="46.251593660563231" lon="8.016669200733304">
        <ele>2097.25</ele>
        <time>2019-02-10T09:10:46Z</time>
      </trkpt>
      <trkpt lat="46.251588547602296" lon="8.016551854088903">
        <ele>2099.6599999999999</ele>
        <time>2019-02-10T09:10:56Z</time>
      </trkpt>
      <trkpt lat="46.251588212326169" lon="8.016455294564366">
        <ele>2100.6199999999999</ele>
        <time>2019-02-10T09:11:05Z</time>
      </trkpt>
      <trkpt lat="46.251587374135852" lon="8.016388071700931">
        <ele>2102.54</ele>
        <time>2019-02-10T09:11:13Z</time>
      </trkpt>
      <trkpt lat="46.251582177355886" lon="8.016304085031152">
        <ele>2103.98</ele>
        <time>2019-02-10T09:11:22Z</time>
      </trkpt>
      <trkpt lat="46.251578405499458" lon="8.016232419759035">
        <ele>2105.9099999999999</ele>
        <time>2019-02-10T09:11:30Z</time>
      </trkpt>
      <trkpt lat="46.251577818766236" lon="8.016157988458872">
        <ele>2107.3499999999999</ele>
        <time>2019-02-10T09:11:39Z</time>
      </trkpt>
      <trkpt lat="46.251571616157889" lon="8.016070229932666">
        <ele>2105.9099999999999</ele>
        <time>2019-02-10T09:11:48Z</time>
      </trkpt>
      <trkpt lat="46.251582261174917" lon="8.015951626002789">
        <ele>2106.3899999999999</ele>
        <time>2019-02-10T09:12:00Z</time>
      </trkpt>
      <trkpt lat="46.251601874828339" lon="8.015886330977082">
        <ele>2108.3099999999999</ele>
        <time>2019-02-10T09:12:08Z</time>
      </trkpt>
      <trkpt lat="46.251605227589607" lon="8.015815420076251">
        <ele>2110.71</ele>
        <time>2019-02-10T09:12:16Z</time>
      </trkpt>
      <trkpt lat="46.251603802666068" lon="8.015694636851549">
        <ele>2110.71</ele>
        <time>2019-02-10T09:12:28Z</time>
      </trkpt>
      <trkpt lat="46.25159852206707" lon="8.015655158087611">
        <ele>2109.27</ele>
        <time>2019-02-10T09:12:32Z</time>
      </trkpt>
      <trkpt lat="46.25160631723702" lon="8.015605285763741">
        <ele>2108.79</ele>
        <time>2019-02-10T09:12:37Z</time>
      </trkpt>
      <trkpt lat="46.251625260338187" lon="8.015519455075264">
        <ele>2109.27</ele>
        <time>2019-02-10T09:12:48Z</time>
      </trkpt>
      <trkpt lat="46.251627104356885" lon="8.015409233048558">
        <ele>2110.23</ele>
        <time>2019-02-10T09:13:01Z</time>
      </trkpt>
      <trkpt lat="46.251642527058721" lon="8.015267662703991">
        <ele>2110.23</ele>
        <time>2019-02-10T09:13:15Z</time>
      </trkpt>
      <trkpt lat="46.251663565635681" lon="8.015180239453912">
        <ele>2111.1900000000001</ele>
        <time>2019-02-10T09:13:24Z</time>
      </trkpt>
      <trkpt lat="46.251673037186265" lon="8.015101114287973">
        <ele>2114.0799999999999</ele>
        <time>2019-02-10T09:13:33Z</time>
      </trkpt>
      <trkpt lat="46.251676138490438" lon="8.015024419873953">
        <ele>2115.52</ele>
        <time>2019-02-10T09:13:42Z</time>
      </trkpt>
      <trkpt lat="46.251660715788603" lon="8.014951078221202">
        <ele>2118.4000000000001</ele>
        <time>2019-02-10T09:13:54Z</time>
      </trkpt>
      <trkpt lat="46.251667588949203" lon="8.014931129291654">
        <ele>2119.3600000000001</ele>
        <time>2019-02-10T09:13:56Z</time>
      </trkpt>
      <trkpt lat="46.251680077984929" lon="8.014835240319371">
        <ele>2120.3200000000002</ele>
        <time>2019-02-10T09:14:05Z</time>
      </trkpt>
      <trkpt lat="46.251677563413978" lon="8.014697190374136">
        <ele>2120.3200000000002</ele>
        <time>2019-02-10T09:14:17Z</time>
      </trkpt>
      <trkpt lat="46.251669935882092" lon="8.014583615586162">
        <ele>2119.8400000000001</ele>
        <time>2019-02-10T09:14:28Z</time>
      </trkpt>
      <trkpt lat="46.251671109348536" lon="8.014570958912373">
        <ele>2119.8400000000001</ele>
        <time>2019-02-10T09:14:29Z</time>
      </trkpt>
      <trkpt lat="46.251676389947534" lon="8.014482110738754">
        <ele>2122.73</ele>
        <time>2019-02-10T09:14:39Z</time>
      </trkpt>
      <trkpt lat="46.251686112955213" lon="8.014511363580823">
        <ele>2120.8099999999999</ele>
        <time>2019-02-10T09:14:55Z</time>
      </trkpt>
      <trkpt lat="46.251707738265395" lon="8.014487391337752">
        <ele>2122.25</ele>
        <time>2019-02-10T09:15:08Z</time>
      </trkpt>
      <trkpt lat="46.251708492636681" lon="8.014489822089672">
        <ele>2124.1700000000001</ele>
        <time>2019-02-10T09:15:17Z</time>
      </trkpt>
      <trkpt lat="46.251690723001957" lon="8.014500550925732">
        <ele>2122.73</ele>
        <time>2019-02-10T09:15:23Z</time>
      </trkpt>
      <trkpt lat="46.251714108511806" lon="8.014527456834912">
        <ele>2117.9200000000001</ele>
        <time>2019-02-10T09:16:43Z</time>
      </trkpt>
      <trkpt lat="46.25170212239027" lon="8.014533659443259">
        <ele>2118.8800000000001</ele>
        <time>2019-02-10T09:16:46Z</time>
      </trkpt>
      <trkpt lat="46.251633977517486" lon="8.014568025246263">
        <ele>2122.25</ele>
        <time>2019-02-10T09:16:47Z</time>
      </trkpt>
      <trkpt lat="46.251661218702793" lon="8.014556290581822">
        <ele>2121.29</ele>
        <time>2019-02-10T09:16:48Z</time>
      </trkpt>
      <trkpt lat="46.251661721616983" lon="8.014536509290338">
        <ele>2119.3600000000001</ele>
        <time>2019-02-10T09:16:50Z</time>
      </trkpt>
      <trkpt lat="46.251660464331508" lon="8.014530641958118">
        <ele>2119.8400000000001</ele>
        <time>2019-02-10T09:17:01Z</time>
      </trkpt>
      <trkpt lat="46.251690974459052" lon="8.014514381065965">
        <ele>2116.96</ele>
        <time>2019-02-10T09:17:14Z</time>
      </trkpt>
      <trkpt lat="46.251690136268735" lon="8.014543214812875">
        <ele>2116.96</ele>
        <time>2019-02-10T09:17:27Z</time>
      </trkpt>
      <trkpt lat="46.251676809042692" lon="8.014555284753442">
        <ele>2119.8400000000001</ele>
        <time>2019-02-10T09:17:50Z</time>
      </trkpt>
      <trkpt lat="46.251663565635681" lon="8.014555620029569">
        <ele>2121.29</ele>
        <time>2019-02-10T09:18:16Z</time>
      </trkpt>
      <trkpt lat="46.251653674989939" lon="8.014527121558785">
        <ele>2122.25</ele>
        <time>2019-02-10T09:18:49Z</time>
      </trkpt>
      <trkpt lat="46.251647975295782" lon="8.014564672484994">
        <ele>2123.6900000000001</ele>
        <time>2019-02-10T09:19:20Z</time>
      </trkpt>
      <trkpt lat="46.251639174297452" lon="8.014550087973476">
        <ele>2124.6500000000001</ele>
        <time>2019-02-10T09:19:43Z</time>
      </trkpt>
      <trkpt lat="46.251641102135181" lon="8.014552183449268">
        <ele>2124.6500000000001</ele>
        <time>2019-02-10T09:20:11Z</time>
      </trkpt>
      <trkpt lat="46.251641185954213" lon="8.014548160135746">
        <ele>2122.25</ele>
        <time>2019-02-10T09:20:43Z</time>
      </trkpt>
      <trkpt lat="46.251634983345866" lon="8.014558302238584">
        <ele>2122.25</ele>
        <time>2019-02-10T09:21:05Z</time>
      </trkpt>
      <trkpt lat="46.251647723838687" lon="8.014550926163793">
        <ele>2123.21</ele>
        <time>2019-02-10T09:21:32Z</time>
      </trkpt>
      <trkpt lat="46.251641940325499" lon="8.014543214812875">
        <ele>2123.21</ele>
        <time>2019-02-10T09:22:02Z</time>
      </trkpt>
      <trkpt lat="46.251638252288103" lon="8.014561990275979">
        <ele>2125.1300000000001</ele>
        <time>2019-02-10T09:22:24Z</time>
      </trkpt>
      <trkpt lat="46.251645712181926" lon="8.014545729383826">
        <ele>2124.1700000000001</ele>
        <time>2019-02-10T09:22:40Z</time>
      </trkpt>
      <trkpt lat="46.251655519008636" lon="8.014552434906364">
        <ele>2124.1700000000001</ele>
        <time>2019-02-10T09:22:58Z</time>
      </trkpt>
      <trkpt lat="46.25166105106473" lon="8.014554027467966">
        <ele>2122.73</ele>
        <time>2019-02-10T09:23:20Z</time>
      </trkpt>
      <trkpt lat="46.251649903133512" lon="8.014550004154444">
        <ele>2121.29</ele>
        <time>2019-02-10T09:23:46Z</time>
      </trkpt>
      <trkpt lat="46.251651914790273" lon="8.014546735212207">
        <ele>2121.77</ele>
        <time>2019-02-10T09:24:10Z</time>
      </trkpt>
      <trkpt lat="46.251640934497118" lon="8.014559224247932">
        <ele>2123.21</ele>
        <time>2019-02-10T09:24:32Z</time>
      </trkpt>
      <trkpt lat="46.251635989174247" lon="8.014576658606529">
        <ele>2124.1700000000001</ele>
        <time>2019-02-10T09:24:56Z</time>
      </trkpt>
      <trkpt lat="46.251640012487769" lon="8.014561571180821">
        <ele>2124.1700000000001</ele>
        <time>2019-02-10T09:25:15Z</time>
      </trkpt>
      <trkpt lat="46.251651244238019" lon="8.014556961134076">
        <ele>2125.6100000000001</ele>
        <time>2019-02-10T09:25:33Z</time>
      </trkpt>
      <trkpt lat="46.251651411876082" lon="8.014567689970136">
        <ele>2124.1700000000001</ele>
        <time>2019-02-10T09:26:02Z</time>
      </trkpt>
      <trkpt lat="46.251650908961892" lon="8.014538185670972">
        <ele>2124.6500000000001</ele>
        <time>2019-02-10T09:26:26Z</time>
      </trkpt>
      <trkpt lat="46.251647220924497" lon="8.014544723555446">
        <ele>2126.0900000000001</ele>
        <time>2019-02-10T09:26:51Z</time>
      </trkpt>
      <trkpt lat="46.251642694696784" lon="8.014554278925061">
        <ele>2124.1700000000001</ele>
        <time>2019-02-10T09:27:23Z</time>
      </trkpt>
      <trkpt lat="46.251641856506467" lon="8.014577915892005">
        <ele>2124.6500000000001</ele>
        <time>2019-02-10T09:27:50Z</time>
      </trkpt>
      <trkpt lat="46.251648645848036" lon="8.014554027467966">
        <ele>2122.73</ele>
        <time>2019-02-10T09:28:09Z</time>
      </trkpt>
      <trkpt lat="46.251660212874413" lon="8.014552434906364">
        <ele>2123.21</ele>
        <time>2019-02-10T09:28:39Z</time>
      </trkpt>
      <trkpt lat="46.251668510958552" lon="8.01455277018249">
        <ele>2122.25</ele>
        <time>2019-02-10T09:29:09Z</time>
      </trkpt>
      <trkpt lat="46.251674210652709" lon="8.014548663049936">
        <ele>2120.3200000000002</ele>
        <time>2019-02-10T09:29:37Z</time>
      </trkpt>
      <trkpt lat="46.251675467938185" lon="8.01457280293107">
        <ele>2119.8400000000001</ele>
        <time>2019-02-10T09:30:03Z</time>
      </trkpt>
      <trkpt lat="46.251679239794612" lon="8.014550758525729">
        <ele>2119.8400000000001</ele>
        <time>2019-02-10T09:30:26Z</time>
      </trkpt>
      <trkpt lat="46.251670690253377" lon="8.014549752697349">
        <ele>2121.29</ele>
        <time>2019-02-10T09:30:55Z</time>
      </trkpt>
      <trkpt lat="46.251668343320489" lon="8.014554446563125">
        <ele>2120.3200000000002</ele>
        <time>2019-02-10T09:31:23Z</time>
      </trkpt>
      <trkpt lat="46.251664152368903" lon="8.014556458219886">
        <ele>2121.29</ele>
        <time>2019-02-10T09:31:53Z</time>
      </trkpt>
      <trkpt lat="46.251655854284763" lon="8.014564085751772">
        <ele>2121.29</ele>
        <time>2019-02-10T09:32:19Z</time>
      </trkpt>
      <trkpt lat="46.25165669247508" lon="8.014543550089002">
        <ele>2121.77</ele>
        <time>2019-02-10T09:32:28Z</time>
      </trkpt>
      <trkpt lat="46.251670103520155" lon="8.014518152922392">
        <ele>2123.21</ele>
        <time>2019-02-10T09:32:37Z</time>
      </trkpt>
      <trkpt lat="46.251658033579588" lon="8.014539526775479">
        <ele>2123.6900000000001</ele>
        <time>2019-02-10T09:32:50Z</time>
      </trkpt>
      <trkpt lat="46.251653591170907" lon="8.014523768797517">
        <ele>2123.6900000000001</ele>
        <time>2019-02-10T09:32:59Z</time>
      </trkpt>
      <trkpt lat="46.251648226752877" lon="8.014476411044598">
        <ele>2123.6900000000001</ele>
        <time>2019-02-10T09:33:09Z</time>
      </trkpt>
      <trkpt lat="46.251641772687435" lon="8.014516392722726">
        <ele>2126.0900000000001</ele>
        <time>2019-02-10T09:33:23Z</time>
      </trkpt>
      <trkpt lat="46.251658704131842" lon="8.014510860666633">
        <ele>2125.6100000000001</ele>
        <time>2019-02-10T09:33:35Z</time>
      </trkpt>
      <trkpt lat="46.251657530665398" lon="8.014519745483995">
        <ele>2124.1700000000001</ele>
        <time>2019-02-10T09:33:48Z</time>
      </trkpt>
      <trkpt lat="46.251657865941525" lon="8.014539275318384">
        <ele>2124.6500000000001</ele>
        <time>2019-02-10T09:34:07Z</time>
      </trkpt>
      <trkpt lat="46.251658704131842" lon="8.014535922557116">
        <ele>2123.6900000000001</ele>
        <time>2019-02-10T09:34:25Z</time>
      </trkpt>
      <trkpt lat="46.251657949760556" lon="8.014532905071974">
        <ele>2123.6900000000001</ele>
        <time>2019-02-10T09:34:37Z</time>
      </trkpt>
      <trkpt lat="46.251659374684095" lon="8.014519829303026">
        <ele>2123.21</ele>
        <time>2019-02-10T09:34:55Z</time>
      </trkpt>
      <trkpt lat="46.251661889255047" lon="8.014534078538418">
        <ele>2124.6500000000001</ele>
        <time>2019-02-10T09:35:14Z</time>
      </trkpt>
      <trkpt lat="46.251665074378252" lon="8.014533240348101">
        <ele>2124.1700000000001</ele>
        <time>2019-02-10T09:35:33Z</time>
      </trkpt>
      <trkpt lat="46.251661386340857" lon="8.01453860476613">
        <ele>2124.1700000000001</ele>
        <time>2019-02-10T09:35:50Z</time>
      </trkpt>
      <trkpt lat="46.25165618956089" lon="8.014540113508701">
        <ele>2124.1700000000001</ele>
        <time>2019-02-10T09:36:07Z</time>
      </trkpt>
      <trkpt lat="46.251651914790273" lon="8.0145298037678">
        <ele>2123.6900000000001</ele>
        <time>2019-02-10T09:36:18Z</time>
      </trkpt>
      <trkpt lat="46.251658452674747" lon="8.014483954757452">
        <ele>2123.21</ele>
        <time>2019-02-10T09:36:32Z</time>
      </trkpt>
      <trkpt lat="46.251658871769905" lon="8.014442883431912">
        <ele>2122.73</ele>
        <time>2019-02-10T09:36:34Z</time>
      </trkpt>
      <trkpt lat="46.25165082514286" lon="8.01429720595479">
        <ele>2122.73</ele>
        <time>2019-02-10T09:36:43Z</time>
      </trkpt>
      <trkpt lat="46.251643365249038" lon="8.014138620346785">
        <ele>2121.77</ele>
        <time>2019-02-10T09:36:53Z</time>
      </trkpt>
      <trkpt lat="46.251613525673747" lon="8.013969389721751">
        <ele>2121.77</ele>
        <time>2019-02-10T09:37:04Z</time>
      </trkpt>
      <trkpt lat="46.251610089093447" lon="8.013954889029265">
        <ele>2121.77</ele>
        <time>2019-02-10T09:37:05Z</time>
      </trkpt>
      <trkpt lat="46.251600617542863" lon="8.013825388625264">
        <ele>2120.8099999999999</ele>
        <time>2019-02-10T09:37:14Z</time>
      </trkpt>
      <trkpt lat="46.2515848595649" lon="8.013693373650312">
        <ele>2121.29</ele>
        <time>2019-02-10T09:37:24Z</time>
      </trkpt>
      <trkpt lat="46.251568095758557" lon="8.013564627617598">
        <ele>2121.29</ele>
        <time>2019-02-10T09:37:33Z</time>
      </trkpt>
      <trkpt lat="46.251559546217322" lon="8.013421967625618">
        <ele>2121.77</ele>
        <time>2019-02-10T09:37:43Z</time>
      </trkpt>
      <trkpt lat="46.251561054959893" lon="8.013318618759513">
        <ele>2121.77</ele>
        <time>2019-02-10T09:37:50Z</time>
      </trkpt>
      <trkpt lat="46.251548565924168" lon="8.013180820271373">
        <ele>2121.77</ele>
        <time>2019-02-10T09:38:00Z</time>
      </trkpt>
      <trkpt lat="46.25152911990881" lon="8.013063557446003">
        <ele>2120.8099999999999</ele>
        <time>2019-02-10T09:38:10Z</time>
      </trkpt>
      <trkpt lat="46.251521995291114" lon="8.013006392866373">
        <ele>2122.25</ele>
        <time>2019-02-10T09:38:14Z</time>
      </trkpt>
      <trkpt lat="46.251506572589278" lon="8.012925507500768">
        <ele>2122.25</ele>
        <time>2019-02-10T09:38:20Z</time>
      </trkpt>
      <trkpt lat="46.251503638923168" lon="8.012878401204944">
        <ele>2123.21</ele>
        <time>2019-02-10T09:38:24Z</time>
      </trkpt>
      <trkpt lat="46.251488300040364" lon="8.012744458392263">
        <ele>2123.6900000000001</ele>
        <time>2019-02-10T09:38:34Z</time>
      </trkpt>
      <trkpt lat="46.251461897045374" lon="8.012626357376576">
        <ele>2124.6500000000001</ele>
        <time>2019-02-10T09:38:45Z</time>
      </trkpt>
      <trkpt lat="46.25144069083035" lon="8.012503311038017">
        <ele>2125.1300000000001</ele>
        <time>2019-02-10T09:38:56Z</time>
      </trkpt>
      <trkpt lat="46.251410851255059" lon="8.012388395145536">
        <ele>2126.0900000000001</ele>
        <time>2019-02-10T09:39:06Z</time>
      </trkpt>
      <trkpt lat="46.251395847648382" lon="8.012310191988945">
        <ele>2127.5300000000002</ele>
        <time>2019-02-10T09:39:15Z</time>
      </trkpt>
      <trkpt lat="46.251376653090119" lon="8.012223187834024">
        <ele>2128.98</ele>
        <time>2019-02-10T09:39:23Z</time>
      </trkpt>
      <trkpt lat="46.251319320872426" lon="8.012096704915166">
        <ele>2128.98</ele>
        <time>2019-02-10T09:39:35Z</time>
      </trkpt>
      <trkpt lat="46.251294510439038" lon="8.012002157047391">
        <ele>2128.02</ele>
        <time>2019-02-10T09:39:44Z</time>
      </trkpt>
      <trkpt lat="46.251261234283447" lon="8.011917332187295">
        <ele>2128.5</ele>
        <time>2019-02-10T09:39:54Z</time>
      </trkpt>
      <trkpt lat="46.251230472698808" lon="8.011859832331538">
        <ele>2130.9000000000001</ele>
        <time>2019-02-10T09:40:03Z</time>
      </trkpt>
      <trkpt lat="46.251195017248392" lon="8.011779449880123">
        <ele>2133.3000000000002</ele>
        <time>2019-02-10T09:40:13Z</time>
      </trkpt>
      <trkpt lat="46.251172805204988" lon="8.011705605313182">
        <ele>2136.1900000000001</ele>
        <time>2019-02-10T09:40:26Z</time>
      </trkpt>
      <trkpt lat="46.251167356967926" lon="8.011677945032716">
        <ele>2137.1500000000001</ele>
        <time>2019-02-10T09:40:29Z</time>
      </trkpt>
      <trkpt lat="46.251150006428361" lon="8.011625893414021">
        <ele>2138.5900000000001</ele>
        <time>2019-02-10T09:40:38Z</time>
      </trkpt>
      <trkpt lat="46.251138104125857" lon="8.01155649125576">
        <ele>2140.0300000000002</ele>
        <time>2019-02-10T09:40:48Z</time>
      </trkpt>
      <trkpt lat="46.25113483518362" lon="8.011544505134225">
        <ele>2140.0300000000002</ele>
        <time>2019-02-10T09:40:51Z</time>
      </trkpt>
      <trkpt lat="46.251118322834373" lon="8.011479796841741">
        <ele>2140.5100000000002</ele>
        <time>2019-02-10T09:41:00Z</time>
      </trkpt>
      <trkpt lat="46.251102732494473" lon="8.011428080499172">
        <ele>2141.4699999999998</ele>
        <time>2019-02-10T09:41:09Z</time>
      </trkpt>
      <trkpt lat="46.251078173518181" lon="8.01135029643774">
        <ele>2142.9200000000001</ele>
        <time>2019-02-10T09:41:19Z</time>
      </trkpt>
      <trkpt lat="46.25108202919364" lon="8.011295478790999">
        <ele>2143.8800000000001</ele>
        <time>2019-02-10T09:41:29Z</time>
      </trkpt>
      <trkpt lat="46.251104576513171" lon="8.011237727478147">
        <ele>2145.8000000000002</ele>
        <time>2019-02-10T09:41:38Z</time>
      </trkpt>
      <trkpt lat="46.251085884869099" lon="8.011210570111871">
        <ele>2146.7600000000002</ele>
        <time>2019-02-10T09:41:48Z</time>
      </trkpt>
      <trkpt lat="46.251085381954908" lon="8.01115533336997">
        <ele>2148.1999999999998</ele>
        <time>2019-02-10T09:41:57Z</time>
      </trkpt>
      <trkpt lat="46.251096110790968" lon="8.011105712503195">
        <ele>2151.0900000000001</ele>
        <time>2019-02-10T09:42:04Z</time>
      </trkpt>
      <trkpt lat="46.251105414703488" lon="8.011058354750276">
        <ele>2153.0100000000002</ele>
        <time>2019-02-10T09:42:12Z</time>
      </trkpt>
      <trkpt lat="46.251085717231035" lon="8.011021558195353">
        <ele>2154.4499999999998</ele>
        <time>2019-02-10T09:42:22Z</time>
      </trkpt>
      <trkpt lat="46.251071384176612" lon="8.010974870994687">
        <ele>2155.8899999999999</ele>
        <time>2019-02-10T09:42:33Z</time>
      </trkpt>
      <trkpt lat="46.251069623976946" lon="8.010916700586677">
        <ele>2157.3400000000001</ele>
        <time>2019-02-10T09:42:43Z</time>
      </trkpt>
      <trkpt lat="46.251065097749233" lon="8.010872192680836">
        <ele>2158.3000000000002</ele>
        <time>2019-02-10T09:42:52Z</time>
      </trkpt>
      <trkpt lat="46.251065265387297" lon="8.010827768594027">
        <ele>2159.2600000000002</ele>
        <time>2019-02-10T09:43:00Z</time>
      </trkpt>
      <trkpt lat="46.251060822978616" lon="8.010774794965982">
        <ele>2161.6599999999999</ele>
        <time>2019-02-10T09:43:09Z</time>
      </trkpt>
      <trkpt lat="46.251047411933541" lon="8.010741854086518">
        <ele>2161.1799999999998</ele>
        <time>2019-02-10T09:43:18Z</time>
      </trkpt>
      <trkpt lat="46.25104246661067" lon="8.010692736133933">
        <ele>2162.1399999999999</ele>
        <time>2019-02-10T09:43:28Z</time>
      </trkpt>
      <trkpt lat="46.251003239303827" lon="8.010647892951965">
        <ele>2164.0599999999999</ele>
        <time>2019-02-10T09:43:38Z</time>
      </trkpt>
      <trkpt lat="46.250988068059087" lon="8.010582681745291">
        <ele>2165.5100000000002</ele>
        <time>2019-02-10T09:43:48Z</time>
      </trkpt>
      <trkpt lat="46.250938531011343" lon="8.010507076978684">
        <ele>2166.9499999999998</ele>
        <time>2019-02-10T09:43:59Z</time>
      </trkpt>
      <trkpt lat="46.250884216278791" lon="8.010425353422761">
        <ele>2169.3499999999999</ele>
        <time>2019-02-10T09:44:11Z</time>
      </trkpt>
      <trkpt lat="46.250861249864101" lon="8.010393166914582">
        <ele>2169.8299999999999</ele>
        <time>2019-02-10T09:44:14Z</time>
      </trkpt>
      <trkpt lat="46.250853538513184" lon="8.010356705635786">
        <ele>2169.3499999999999</ele>
        <time>2019-02-10T09:44:21Z</time>
      </trkpt>
      <trkpt lat="46.25085630454123" lon="8.010379169136286">
        <ele>2168.8699999999999</ele>
        <time>2019-02-10T09:44:31Z</time>
      </trkpt>
      <trkpt lat="46.250860914587975" lon="8.010337008163333">
        <ele>2170.3099999999999</ele>
        <time>2019-02-10T09:44:43Z</time>
      </trkpt>
      <trkpt lat="46.250841217115521" lon="8.010344216600061">
        <ele>2170.79</ele>
        <time>2019-02-10T09:44:52Z</time>
      </trkpt>
      <trkpt lat="46.250805342569947" lon="8.010403895750642">
        <ele>2170.3099999999999</ele>
        <time>2019-02-10T09:45:00Z</time>
      </trkpt>
      <trkpt lat="46.250815317034721" lon="8.010351005941629">
        <ele>2169.3499999999999</ele>
        <time>2019-02-10T09:45:11Z</time>
      </trkpt>
      <trkpt lat="46.250804085284472" lon="8.010350167751312">
        <ele>2168.8699999999999</ele>
        <time>2019-02-10T09:45:35Z</time>
      </trkpt>
      <trkpt lat="46.250848844647408" lon="8.010350586846471">
        <ele>2167.9099999999999</ele>
        <time>2019-02-10T09:45:44Z</time>
      </trkpt>
      <trkpt lat="46.250866781920195" lon="8.010364668443799">
        <ele>2166.9499999999998</ele>
        <time>2019-02-10T09:45:54Z</time>
      </trkpt>
      <trkpt lat="46.250880360603333" lon="8.010391490533948">
        <ele>2167.4299999999998</ele>
        <time>2019-02-10T09:46:03Z</time>
      </trkpt>
      <trkpt lat="46.250888574868441" lon="8.010416720062494">
        <ele>2166.9499999999998</ele>
        <time>2019-02-10T09:46:10Z</time>
      </trkpt>
      <trkpt lat="46.250876672565937" lon="8.0104008782655">
        <ele>2167.4299999999998</ele>
        <time>2019-02-10T09:46:21Z</time>
      </trkpt>
      <trkpt lat="46.250854795798659" lon="8.010356118902564">
        <ele>2167.4299999999998</ele>
        <time>2019-02-10T09:46:26Z</time>
      </trkpt>
      <trkpt lat="46.250843228772283" lon="8.010287387296557">
        <ele>2167.4299999999998</ele>
        <time>2019-02-10T09:46:32Z</time>
      </trkpt>
      <trkpt lat="46.250790925696492" lon="8.010172890499234">
        <ele>2169.3499999999999</ele>
        <time>2019-02-10T09:46:43Z</time>
      </trkpt>
      <trkpt lat="46.25075270421803" lon="8.010047832503915">
        <ele>2171.27</ele>
        <time>2019-02-10T09:46:53Z</time>
      </trkpt>
      <trkpt lat="46.250741304829717" lon="8.009918080642819">
        <ele>2170.79</ele>
        <time>2019-02-10T09:47:04Z</time>
      </trkpt>
      <trkpt lat="46.250713476911187" lon="8.009826214984059">
        <ele>2171.27</ele>
        <time>2019-02-10T09:47:15Z</time>
      </trkpt>
      <trkpt lat="46.250735437497497" lon="8.00970115698874">
        <ele>2171.7600000000002</ele>
        <time>2019-02-10T09:47:25Z</time>
      </trkpt>
      <trkpt lat="46.250751782208681" lon="8.009579787030816">
        <ele>2174.1599999999999</ele>
        <time>2019-02-10T09:47:37Z</time>
      </trkpt>
      <trkpt lat="46.250755889341235" lon="8.009560508653522">
        <ele>2173.6799999999998</ele>
        <time>2019-02-10T09:47:39Z</time>
      </trkpt>
      <trkpt lat="46.250803247094154" lon="8.009468810632825">
        <ele>2174.6399999999999</ele>
        <time>2019-02-10T09:47:49Z</time>
      </trkpt>
      <trkpt lat="46.250823363661766" lon="8.009383147582412">
        <ele>2176.5599999999999</ele>
        <time>2019-02-10T09:47:59Z</time>
      </trkpt>
      <trkpt lat="46.25086753629148" lon="8.009309638291597">
        <ele>2177.52</ele>
        <time>2019-02-10T09:48:08Z</time>
      </trkpt>
      <trkpt lat="46.250894106924534" lon="8.009219951927662">
        <ele>2179.4499999999998</ele>
        <time>2019-02-10T09:48:19Z</time>
      </trkpt>
      <trkpt lat="46.250920761376619" lon="8.009139485657215">
        <ele>2181.3699999999999</ele>
        <time>2019-02-10T09:48:29Z</time>
      </trkpt>
      <trkpt lat="46.250940794125199" lon="8.009063042700291">
        <ele>2182.8099999999999</ele>
        <time>2019-02-10T09:48:39Z</time>
      </trkpt>
      <trkpt lat="46.250974908471107" lon="8.008969752117991">
        <ele>2183.29</ele>
        <time>2019-02-10T09:48:51Z</time>
      </trkpt>
      <trkpt lat="46.251024277880788" lon="8.008930943906307">
        <ele>2186.6599999999999</ele>
        <time>2019-02-10T09:49:02Z</time>
      </trkpt>
      <trkpt lat="46.251072725281119" lon="8.008909234777093">
        <ele>2187.1399999999999</ele>
        <time>2019-02-10T09:49:12Z</time>
      </trkpt>
      <trkpt lat="46.251121507957578" lon="8.008918790146709">
        <ele>2189.54</ele>
        <time>2019-02-10T09:49:21Z</time>
      </trkpt>
      <trkpt lat="46.251188982278109" lon="8.008971093222499">
        <ele>2192.4200000000001</ele>
        <time>2019-02-10T09:49:30Z</time>
      </trkpt>
      <trkpt lat="46.251191748306155" lon="8.009004956111312">
        <ele>2191.46</ele>
        <time>2019-02-10T09:49:40Z</time>
      </trkpt>
      <trkpt lat="46.25121932476759" lon="8.009045692160726">
        <ele>2190.02</ele>
        <time>2019-02-10T09:49:50Z</time>
      </trkpt>
      <trkpt lat="46.251207925379276" lon="8.009023647755384">
        <ele>2190.02</ele>
        <time>2019-02-10T09:50:01Z</time>
      </trkpt>
      <trkpt lat="46.251227036118507" lon="8.009009147062898">
        <ele>2190.5</ele>
        <time>2019-02-10T09:50:12Z</time>
      </trkpt>
      <trkpt lat="46.251223850995302" lon="8.009000010788441">
        <ele>2189.0599999999999</ele>
        <time>2019-02-10T09:50:18Z</time>
      </trkpt>
      <trkpt lat="46.251224773004651" lon="8.009014762938023">
        <ele>2189.0599999999999</ele>
        <time>2019-02-10T09:50:31Z</time>
      </trkpt>
      <trkpt lat="46.251229634508491" lon="8.009033622220159">
        <ele>2187.6199999999999</ele>
        <time>2019-02-10T09:50:41Z</time>
      </trkpt>
      <trkpt lat="46.251277746632695" lon="8.009084248915315">
        <ele>2189.54</ele>
        <time>2019-02-10T09:50:55Z</time>
      </trkpt>
      <trkpt lat="46.251292331144214" lon="8.009101767092943">
        <ele>2189.0599999999999</ele>
        <time>2019-02-10T09:50:58Z</time>
      </trkpt>
      <trkpt lat="46.251333989202976" lon="8.00914753228426">
        <ele>2188.0999999999999</ele>
        <time>2019-02-10T09:51:04Z</time>
      </trkpt>
      <trkpt lat="46.251382352784276" lon="8.009216096252203">
        <ele>2188.5799999999999</ele>
        <time>2019-02-10T09:51:15Z</time>
      </trkpt>
      <trkpt lat="46.251410935074091" lon="8.009247276932001">
        <ele>2190.02</ele>
        <time>2019-02-10T09:51:24Z</time>
      </trkpt>
      <trkpt lat="46.251463489606977" lon="8.009311147034168">
        <ele>2190.02</ele>
        <time>2019-02-10T09:51:34Z</time>
      </trkpt>
      <trkpt lat="46.251526856794953" lon="8.009392870590091">
        <ele>2189.0599999999999</ele>
        <time>2019-02-10T09:51:43Z</time>
      </trkpt>
      <trkpt lat="46.251557199284434" lon="8.009423380717635">
        <ele>2189.0599999999999</ele>
        <time>2019-02-10T09:51:47Z</time>
      </trkpt>
      <trkpt lat="46.251630457118154" lon="8.009503511711955">
        <ele>2188.5799999999999</ele>
        <time>2019-02-10T09:51:58Z</time>
      </trkpt>
      <trkpt lat="46.25171679072082" lon="8.009539553895593">
        <ele>2188.0999999999999</ele>
        <time>2019-02-10T09:52:10Z</time>
      </trkpt>
      <trkpt lat="46.25177001580596" lon="8.009560089558363">
        <ele>2190.02</ele>
        <time>2019-02-10T09:52:19Z</time>
      </trkpt>
      <trkpt lat="46.251824162900448" lon="8.009591605514288">
        <ele>2192.4200000000001</ele>
        <time>2019-02-10T09:52:29Z</time>
      </trkpt>
      <trkpt lat="46.251884261146188" lon="8.009619433432818">
        <ele>2192.9000000000001</ele>
        <time>2019-02-10T09:52:39Z</time>
      </trkpt>
      <trkpt lat="46.251925751566887" lon="8.009615996852517">
        <ele>2194.8299999999999</ele>
        <time>2019-02-10T09:52:47Z</time>
      </trkpt>
      <trkpt lat="46.252014013007283" lon="8.00960292108357">
        <ele>2196.75</ele>
        <time>2019-02-10T09:52:57Z</time>
      </trkpt>
      <trkpt lat="46.252088779583573" lon="8.009589090943337">
        <ele>2197.23</ele>
        <time>2019-02-10T09:53:08Z</time>
      </trkpt>
      <trkpt lat="46.252108979970217" lon="8.009615913033485">
        <ele>2199.1500000000001</ele>
        <time>2019-02-10T09:53:19Z</time>
      </trkpt>
      <trkpt lat="46.252129012718797" lon="8.009593868628144">
        <ele>2199.6300000000001</ele>
        <time>2019-02-10T09:53:28Z</time>
      </trkpt>
      <trkpt lat="46.252195229753852" lon="8.00956042483449">
        <ele>2199.1500000000001</ele>
        <time>2019-02-10T09:53:38Z</time>
      </trkpt>
      <trkpt lat="46.252250550314784" lon="8.009547768160701">
        <ele>2199.6300000000001</ele>
        <time>2019-02-10T09:53:48Z</time>
      </trkpt>
      <trkpt lat="46.252300506457686" lon="8.009528238326311">
        <ele>2201.0799999999999</ele>
        <time>2019-02-10T09:53:59Z</time>
      </trkpt>
      <trkpt lat="46.252334620803595" lon="8.009523628279567">
        <ele>2203</ele>
        <time>2019-02-10T09:54:08Z</time>
      </trkpt>
      <trkpt lat="46.252394383773208" lon="8.00952916033566">
        <ele>2204.4400000000001</ele>
        <time>2019-02-10T09:54:15Z</time>
      </trkpt>
      <trkpt lat="46.252463534474373" lon="8.009533686563373">
        <ele>2204.4400000000001</ele>
        <time>2019-02-10T09:54:24Z</time>
      </trkpt>
      <trkpt lat="46.252495972439647" lon="8.009560508653522">
        <ele>2205.8800000000001</ele>
        <time>2019-02-10T09:54:34Z</time>
      </trkpt>
      <trkpt lat="46.252547856420279" lon="8.009630832821131">
        <ele>2205.4000000000001</ele>
        <time>2019-02-10T09:54:43Z</time>
      </trkpt>
      <trkpt lat="46.252609798684716" lon="8.009694367647171">
        <ele>2206.3600000000001</ele>
        <time>2019-02-10T09:54:57Z</time>
      </trkpt>
      <trkpt lat="46.252634022384882" lon="8.009726889431477">
        <ele>2206.3600000000001</ele>
        <time>2019-02-10T09:55:07Z</time>
      </trkpt>
      <trkpt lat="46.252657826989889" lon="8.009755806997418">
        <ele>2207.8099999999999</ele>
        <time>2019-02-10T09:55:12Z</time>
      </trkpt>
      <trkpt lat="46.252703089267015" lon="8.00981649197638">
        <ele>2211.1700000000001</ele>
        <time>2019-02-10T09:55:22Z</time>
      </trkpt>
      <trkpt lat="46.252726390957832" lon="8.009855886921287">
        <ele>2211.6500000000001</ele>
        <time>2019-02-10T09:55:27Z</time>
      </trkpt>
      <trkpt lat="46.252756984904408" lon="8.009896958246827">
        <ele>2211.6500000000001</ele>
        <time>2019-02-10T09:55:32Z</time>
      </trkpt>
      <trkpt lat="46.252830242738128" lon="8.009939203038812">
        <ele>2210.21</ele>
        <time>2019-02-10T09:55:43Z</time>
      </trkpt>
      <trkpt lat="46.252868715673685" lon="8.009986057877541">
        <ele>2212.1300000000001</ele>
        <time>2019-02-10T09:55:52Z</time>
      </trkpt>
      <trkpt lat="46.252867374569178" lon="8.009997289627791">
        <ele>2210.6900000000001</ele>
        <time>2019-02-10T09:56:04Z</time>
      </trkpt>
      <trkpt lat="46.252864776179194" lon="8.010003492236137">
        <ele>2209.73</ele>
        <time>2019-02-10T09:56:21Z</time>
      </trkpt>
      <trkpt lat="46.252864440903068" lon="8.010004917159677">
        <ele>2209.25</ele>
        <time>2019-02-10T09:56:34Z</time>
      </trkpt>
      <trkpt lat="46.252865949645638" lon="8.010006090626121">
        <ele>2209.25</ele>
        <time>2019-02-10T09:56:51Z</time>
      </trkpt>
      <trkpt lat="46.252869721502066" lon="8.010009862482548">
        <ele>2210.21</ele>
        <time>2019-02-10T09:57:12Z</time>
      </trkpt>
      <trkpt lat="46.252868380397558" lon="8.010010784491897">
        <ele>2211.1700000000001</ele>
        <time>2019-02-10T09:57:32Z</time>
      </trkpt>
      <trkpt lat="46.252867290750146" lon="8.009987566620112">
        <ele>2210.6900000000001</ele>
        <time>2019-02-10T09:57:49Z</time>
      </trkpt>
      <trkpt lat="46.252869637683034" lon="8.009984716773033">
        <ele>2210.6900000000001</ele>
        <time>2019-02-10T09:57:50Z</time>
      </trkpt>
      <trkpt lat="46.25285916030407" lon="8.009987147524953">
        <ele>2208.29</ele>
        <time>2019-02-10T09:57:54Z</time>
      </trkpt>
      <trkpt lat="46.252885898575187" lon="8.009971138089895">
        <ele>2208.77</ele>
        <time>2019-02-10T09:58:06Z</time>
      </trkpt>
      <trkpt lat="46.252879193052649" lon="8.009991506114602">
        <ele>2210.6900000000001</ele>
        <time>2019-02-10T09:58:15Z</time>
      </trkpt>
      <trkpt lat="46.252864357084036" lon="8.010001145303249">
        <ele>2210.6900000000001</ele>
        <time>2019-02-10T09:58:26Z</time>
      </trkpt>
      <trkpt lat="46.252877097576857" lon="8.010007850825787">
        <ele>2210.21</ele>
        <time>2019-02-10T09:58:41Z</time>
      </trkpt>
      <trkpt lat="46.252881288528442" lon="8.010007012635469">
        <ele>2208.77</ele>
        <time>2019-02-10T09:58:54Z</time>
      </trkpt>
      <trkpt lat="46.252870140597224" lon="8.010006006807089">
        <ele>2208.77</ele>
        <time>2019-02-10T09:59:05Z</time>
      </trkpt>
      <trkpt lat="46.2528679613024" lon="8.010003156960011">
        <ele>2209.73</ele>
        <time>2019-02-10T09:59:14Z</time>
      </trkpt>
      <trkpt lat="46.252895705401897" lon="8.009989829733968">
        <ele>2210.21</ele>
        <time>2019-02-10T09:59:23Z</time>
      </trkpt>
      <trkpt lat="46.252977345138788" lon="8.010016065090895">
        <ele>2210.6900000000001</ele>
        <time>2019-02-10T09:59:34Z</time>
      </trkpt>
      <trkpt lat="46.253034677356482" lon="8.010052442550659">
        <ele>2211.1700000000001</ele>
        <time>2019-02-10T09:59:43Z</time>
      </trkpt>
      <trkpt lat="46.253093937411904" lon="8.010083204135299">
        <ele>2213.5700000000002</ele>
        <time>2019-02-10T09:59:51Z</time>
      </trkpt>
      <trkpt lat="46.253145905211568" lon="8.010103655979037">
        <ele>2215.0100000000002</ele>
        <time>2019-02-10T10:00:01Z</time>
      </trkpt>
      <trkpt lat="46.253196448087692" lon="8.010142212733626">
        <ele>2216.46</ele>
        <time>2019-02-10T10:00:12Z</time>
      </trkpt>
      <trkpt lat="46.253263419494033" lon="8.010185295715928">
        <ele>2216.46</ele>
        <time>2019-02-10T10:00:21Z</time>
      </trkpt>
      <trkpt lat="46.253310525789857" lon="8.010206334292889">
        <ele>2217.9000000000001</ele>
        <time>2019-02-10T10:00:31Z</time>
      </trkpt>
      <trkpt lat="46.253349417820573" lon="8.010227037593722">
        <ele>2219.3400000000001</ele>
        <time>2019-02-10T10:00:40Z</time>
      </trkpt>
      <trkpt lat="46.253405911847949" lon="8.010250674560666">
        <ele>2220.3000000000002</ele>
        <time>2019-02-10T10:00:48Z</time>
      </trkpt>
      <trkpt lat="46.253448575735092" lon="8.010305827483535">
        <ele>2221.7399999999998</ele>
        <time>2019-02-10T10:00:58Z</time>
      </trkpt>
      <trkpt lat="46.253474978730083" lon="8.010350000113249">
        <ele>2223.1900000000001</ele>
        <time>2019-02-10T10:01:06Z</time>
      </trkpt>
      <trkpt lat="46.253518648445606" lon="8.010362824425101">
        <ele>2223.1900000000001</ele>
        <time>2019-02-10T10:01:15Z</time>
      </trkpt>
      <trkpt lat="46.253562569618225" lon="8.010390652343631">
        <ele>2224.6300000000001</ele>
        <time>2019-02-10T10:01:25Z</time>
      </trkpt>
      <trkpt lat="46.253622751682997" lon="8.010407332330942">
        <ele>2225.5900000000001</ele>
        <time>2019-02-10T10:01:35Z</time>
      </trkpt>
      <trkpt lat="46.253669019788504" lon="8.010435495525599">
        <ele>2226.5500000000002</ele>
        <time>2019-02-10T10:01:45Z</time>
      </trkpt>
      <trkpt lat="46.253704307600856" lon="8.010466676205397">
        <ele>2227.9899999999998</ele>
        <time>2019-02-10T10:01:53Z</time>
      </trkpt>
      <trkpt lat="46.253746887668967" lon="8.01050690934062">
        <ele>2230.4000000000001</ele>
        <time>2019-02-10T10:02:03Z</time>
      </trkpt>
      <trkpt lat="46.253785863518715" lon="8.010530462488532">
        <ele>2232.3200000000002</ele>
        <time>2019-02-10T10:02:13Z</time>
      </trkpt>
      <trkpt lat="46.253836657851934" lon="8.01054404117167">
        <ele>2234.2399999999998</ele>
        <time>2019-02-10T10:02:22Z</time>
      </trkpt>
      <trkpt lat="46.253884099423885" lon="8.010560888797045">
        <ele>2233.7600000000002</ele>
        <time>2019-02-10T10:02:30Z</time>
      </trkpt>
      <trkpt lat="46.253904886543751" lon="8.010572204366326">
        <ele>2235.1999999999998</ele>
        <time>2019-02-10T10:02:33Z</time>
      </trkpt>
      <trkpt lat="46.253935564309359" lon="8.01059483550489">
        <ele>2236.1599999999999</ele>
        <time>2019-02-10T10:02:42Z</time>
      </trkpt>
      <trkpt lat="46.253919471055269" lon="8.010623585432768">
        <ele>2236.1599999999999</ele>
        <time>2019-02-10T10:02:49Z</time>
      </trkpt>
      <trkpt lat="46.253963140770793" lon="8.010627441108227">
        <ele>2237.1300000000001</ele>
        <time>2019-02-10T10:02:58Z</time>
      </trkpt>
      <trkpt lat="46.254008319228888" lon="8.010666919872165">
        <ele>2239.5300000000002</ele>
        <time>2019-02-10T10:03:06Z</time>
      </trkpt>
      <trkpt lat="46.254049558192492" lon="8.010714780539274">
        <ele>2242.4099999999999</ele>
        <time>2019-02-10T10:03:15Z</time>
      </trkpt>
      <trkpt lat="46.25411493703723" lon="8.010745458304882">
        <ele>2241.4499999999998</ele>
        <time>2019-02-10T10:03:25Z</time>
      </trkpt>
      <trkpt lat="46.254111668094993" lon="8.010745709761977">
        <ele>2242.4099999999999</ele>
        <time>2019-02-10T10:03:39Z</time>
      </trkpt>
      <trkpt lat="46.25411787070334" lon="8.010755851864815">
        <ele>2241.9299999999998</ele>
        <time>2019-02-10T10:03:56Z</time>
      </trkpt>
      <trkpt lat="46.254105297848582" lon="8.010749230161309">
        <ele>2241.4499999999998</ele>
        <time>2019-02-10T10:04:11Z</time>
      </trkpt>
      <trkpt lat="46.254119630903006" lon="8.01075266674161">
        <ele>2241.9299999999998</ele>
        <time>2019-02-10T10:04:22Z</time>
      </trkpt>
      <trkpt lat="46.254096832126379" lon="8.010776471346617">
        <ele>2241.9299999999998</ele>
        <time>2019-02-10T10:04:37Z</time>
      </trkpt>
      <trkpt lat="46.254095239564776" lon="8.010772531852126">
        <ele>2242.8899999999999</ele>
        <time>2019-02-10T10:04:46Z</time>
      </trkpt>
      <trkpt lat="46.254092892631888" lon="8.010772615671158">
        <ele>2242.8899999999999</ele>
        <time>2019-02-10T10:04:58Z</time>
      </trkpt>
      <trkpt lat="46.254068166017532" lon="8.010748894885182">
        <ele>2241.9299999999998</ele>
        <time>2019-02-10T10:05:08Z</time>
      </trkpt>
      <trkpt lat="46.254079565405846" lon="8.010725677013397">
        <ele>2239.5300000000002</ele>
        <time>2019-02-10T10:05:25Z</time>
      </trkpt>
      <trkpt lat="46.254062885418534" lon="8.010745709761977">
        <ele>2241.4499999999998</ele>
        <time>2019-02-10T10:05:41Z</time>
      </trkpt>
      <trkpt lat="46.254062298685312" lon="8.010722743347287">
        <ele>2242.4099999999999</ele>
        <time>2019-02-10T10:06:00Z</time>
      </trkpt>
      <trkpt lat="46.254058023914695" lon="8.010709919035435">
        <ele>2242.4099999999999</ele>
        <time>2019-02-10T10:06:13Z</time>
      </trkpt>
      <trkpt lat="46.254051486030221" lon="8.010714864358306">
        <ele>2242.8899999999999</ele>
        <time>2019-02-10T10:06:27Z</time>
      </trkpt>
      <trkpt lat="46.254059867933393" lon="8.010721318423748">
        <ele>2242.4099999999999</ele>
        <time>2019-02-10T10:06:40Z</time>
      </trkpt>
      <trkpt lat="46.254038494080305" lon="8.010723413899541">
        <ele>2244.3299999999999</ele>
        <time>2019-02-10T10:06:57Z</time>
      </trkpt>
      <trkpt lat="46.254041595384479" lon="8.010707655921578">
        <ele>2243.3699999999999</ele>
        <time>2019-02-10T10:07:06Z</time>
      </trkpt>
      <trkpt lat="46.254029860720038" lon="8.010717881843448">
        <ele>2246.2600000000002</ele>
        <time>2019-02-10T10:07:27Z</time>
      </trkpt>
      <trkpt lat="46.2540353089571" lon="8.010714445263147">
        <ele>2244.8200000000002</ele>
        <time>2019-02-10T10:07:44Z</time>
      </trkpt>
      <trkpt lat="46.254048803821206" lon="8.010699525475502">
        <ele>2243.3699999999999</ele>
        <time>2019-02-10T10:07:56Z</time>
      </trkpt>
      <trkpt lat="46.254061963409185" lon="8.010694747790694">
        <ele>2242.8899999999999</ele>
        <time>2019-02-10T10:08:15Z</time>
      </trkpt>
      <trkpt lat="46.254050815477967" lon="8.010749481618404">
        <ele>2243.3699999999999</ele>
        <time>2019-02-10T10:08:28Z</time>
      </trkpt>
      <trkpt lat="46.254044026136398" lon="8.010755432769656">
        <ele>2244.8200000000002</ele>
        <time>2019-02-10T10:08:31Z</time>
      </trkpt>
      <trkpt lat="46.254081074148417" lon="8.010746631771326">
        <ele>2245.3000000000002</ele>
        <time>2019-02-10T10:08:41Z</time>
      </trkpt>
      <trkpt lat="46.254154583439231" lon="8.010817626491189">
        <ele>2245.3000000000002</ele>
        <time>2019-02-10T10:08:52Z</time>
      </trkpt>
      <trkpt lat="46.254196492955089" lon="8.010896751657128">
        <ele>2246.7399999999998</ele>
        <time>2019-02-10T10:09:01Z</time>
      </trkpt>
      <trkpt lat="46.254198336973786" lon="8.010974200442433">
        <ele>2247.2199999999998</ele>
        <time>2019-02-10T10:09:09Z</time>
      </trkpt>
      <trkpt lat="46.254191966727376" lon="8.011004710569978">
        <ele>2248.1799999999998</ele>
        <time>2019-02-10T10:09:21Z</time>
      </trkpt>
      <trkpt lat="46.254184003919363" lon="8.011026671156287">
        <ele>2248.1799999999998</ele>
        <time>2019-02-10T10:09:30Z</time>
      </trkpt>
      <trkpt lat="46.254171095788479" lon="8.011050056666136">
        <ele>2249.6199999999999</ele>
        <time>2019-02-10T10:09:37Z</time>
      </trkpt>
      <trkpt lat="46.254147458821535" lon="8.011087859049439">
        <ele>2252.5100000000002</ele>
        <time>2019-02-10T10:09:44Z</time>
      </trkpt>
      <trkpt lat="46.254154667258263" lon="8.011149801313877">
        <ele>2253.4699999999998</ele>
        <time>2019-02-10T10:09:52Z</time>
      </trkpt>
      <trkpt lat="46.254184423014522" lon="8.011173522099853">
        <ele>2253.4699999999998</ele>
        <time>2019-02-10T10:10:01Z</time>
      </trkpt>
      <trkpt lat="46.254205713048577" lon="8.011220879852772">
        <ele>2254.9099999999999</ele>
        <time>2019-02-10T10:10:10Z</time>
      </trkpt>
      <trkpt lat="46.254235217347741" lon="8.011276535689831">
        <ele>2255.8699999999999</ele>
        <time>2019-02-10T10:10:20Z</time>
      </trkpt>
      <trkpt lat="46.254264805465937" lon="8.011313332244754">
        <ele>2257.3099999999999</ele>
        <time>2019-02-10T10:10:31Z</time>
      </trkpt>
      <trkpt lat="46.254290454089642" lon="8.011360606178641">
        <ele>2258.75</ele>
        <time>2019-02-10T10:10:41Z</time>
      </trkpt>
      <trkpt lat="46.254331693053246" lon="8.011410143226385">
        <ele>2259.7199999999998</ele>
        <time>2019-02-10T10:10:53Z</time>
      </trkpt>
      <trkpt lat="46.254368992522359" lon="8.011476444080472">
        <ele>2261.1599999999999</ele>
        <time>2019-02-10T10:11:03Z</time>
      </trkpt>
      <trkpt lat="46.254403777420521" lon="8.011533357203007">
        <ele>2261.6399999999999</ele>
        <time>2019-02-10T10:11:12Z</time>
      </trkpt>
      <trkpt lat="46.254439065232873" lon="8.011610386893153">
        <ele>2261.6399999999999</ele>
        <time>2019-02-10T10:11:23Z</time>
      </trkpt>
      <trkpt lat="46.254455745220184" lon="8.01166545599699">
        <ele>2263.0799999999999</ele>
        <time>2019-02-10T10:11:33Z</time>
      </trkpt>
      <trkpt lat="46.254524225369096" lon="8.011692864820361">
        <ele>2263.5599999999999</ele>
        <time>2019-02-10T10:11:44Z</time>
      </trkpt>
      <trkpt lat="46.254590442404151" lon="8.011677945032716">
        <ele>2263.0799999999999</ele>
        <time>2019-02-10T10:11:53Z</time>
      </trkpt>
      <trkpt lat="46.254596812650561" lon="8.011708874255419">
        <ele>2262.1199999999999</ele>
        <time>2019-02-10T10:12:02Z</time>
      </trkpt>
      <trkpt lat="46.254619024693966" lon="8.011672580614686">
        <ele>2262.5999999999999</ele>
        <time>2019-02-10T10:12:10Z</time>
      </trkpt>
      <trkpt lat="46.254667388275266" lon="8.011655732989311">
        <ele>2264.52</ele>
        <time>2019-02-10T10:12:19Z</time>
      </trkpt>
      <trkpt lat="46.254690019413829" lon="8.011645507067442">
        <ele>2266.4499999999998</ele>
        <time>2019-02-10T10:12:27Z</time>
      </trkpt>
      <trkpt lat="46.25472865998745" lon="8.011647602543235">
        <ele>2266.4499999999998</ele>
        <time>2019-02-10T10:12:38Z</time>
      </trkpt>
      <trkpt lat="46.254756236448884" lon="8.011641819030047">
        <ele>2268.3699999999999</ele>
        <time>2019-02-10T10:12:46Z</time>
      </trkpt>
      <trkpt lat="46.254738550633192" lon="8.011637795716524">
        <ele>2268.8499999999999</ele>
        <time>2019-02-10T10:12:56Z</time>
      </trkpt>
      <trkpt lat="46.254779621958733" lon="8.011611895635724">
        <ele>2269.8099999999999</ele>
        <time>2019-02-10T10:13:02Z</time>
      </trkpt>
      <trkpt lat="46.254868553951383" lon="8.011582139879465">
        <ele>2271.25</ele>
        <time>2019-02-10T10:13:12Z</time>
      </trkpt>
      <trkpt lat="46.254936615005136" lon="8.011541571468115">
        <ele>2272.21</ele>
        <time>2019-02-10T10:13:22Z</time>
      </trkpt>
      <trkpt lat="46.254998808726668" lon="8.011494297534227">
        <ele>2273.1700000000001</ele>
        <time>2019-02-10T10:13:32Z</time>
      </trkpt>
      <trkpt lat="46.255017081275582" lon="8.011474013328552">
        <ele>2274.1399999999999</ele>
        <time>2019-02-10T10:13:42Z</time>
      </trkpt>
      <trkpt lat="46.255023702979088" lon="8.011505613103509">
        <ele>2274.1399999999999</ele>
        <time>2019-02-10T10:13:55Z</time>
      </trkpt>
      <trkpt lat="46.255080113187432" lon="8.011430343613029">
        <ele>2274.6199999999999</ele>
        <time>2019-02-10T10:14:06Z</time>
      </trkpt>
      <trkpt lat="46.255107689648867" lon="8.011393882334232">
        <ele>2277.02</ele>
        <time>2019-02-10T10:14:14Z</time>
      </trkpt>
      <trkpt lat="46.25517139211297" lon="8.011334203183651">
        <ele>2279.4200000000001</ele>
        <time>2019-02-10T10:14:27Z</time>
      </trkpt>
      <trkpt lat="46.255263676866889" lon="8.011268908157945">
        <ele>2280.8699999999999</ele>
        <time>2019-02-10T10:14:40Z</time>
      </trkpt>
      <trkpt lat="46.255351435393095" lon="8.011225322261453">
        <ele>2279.4200000000001</ele>
        <time>2019-02-10T10:14:50Z</time>
      </trkpt>
      <trkpt lat="46.255416311323643" lon="8.011207301169634">
        <ele>2279.4200000000001</ele>
        <time>2019-02-10T10:14:59Z</time>
      </trkpt>
      <trkpt lat="46.255467943847179" lon="8.011183748021722">
        <ele>2281.8299999999999</ele>
        <time>2019-02-10T10:15:09Z</time>
      </trkpt>
      <trkpt lat="46.255512535572052" lon="8.011159440502524">
        <ele>2283.27</ele>
        <time>2019-02-10T10:15:17Z</time>
      </trkpt>
      <trkpt lat="46.255537932738662" lon="8.011143263429403">
        <ele>2285.1900000000001</ele>
        <time>2019-02-10T10:15:28Z</time>
      </trkpt>
      <trkpt lat="46.255551679059863" lon="8.011123314499855">
        <ele>2284.71</ele>
        <time>2019-02-10T10:15:37Z</time>
      </trkpt>
      <trkpt lat="46.255607921630144" lon="8.011101856827736">
        <ele>2284.23</ele>
        <time>2019-02-10T10:15:46Z</time>
      </trkpt>
      <trkpt lat="46.255680257454515" lon="8.011112585663796">
        <ele>2283.75</ele>
        <time>2019-02-10T10:15:55Z</time>
      </trkpt>
      <trkpt lat="46.255680425092578" lon="8.011150974780321">
        <ele>2283.75</ele>
        <time>2019-02-10T10:16:04Z</time>
      </trkpt>
      <trkpt lat="46.255698194727302" lon="8.011155501008034">
        <ele>2283.75</ele>
        <time>2019-02-10T10:16:17Z</time>
      </trkpt>
      <trkpt lat="46.25574161298573" lon="8.011167990043759">
        <ele>2285.1900000000001</ele>
        <time>2019-02-10T10:16:26Z</time>
      </trkpt>
      <trkpt lat="46.255781594663858" lon="8.011198583990336">
        <ele>2286.6300000000001</ele>
        <time>2019-02-10T10:16:35Z</time>
      </trkpt>
      <trkpt lat="46.255852421745658" lon="8.011251138523221">
        <ele>2287.5900000000001</ele>
        <time>2019-02-10T10:16:48Z</time>
      </trkpt>
      <trkpt lat="46.255897684022784" lon="8.011293299496174">
        <ele>2290</ele>
        <time>2019-02-10T10:16:56Z</time>
      </trkpt>
      <trkpt lat="46.255940767005086" lon="8.011336047202349">
        <ele>2290.96</ele>
        <time>2019-02-10T10:17:04Z</time>
      </trkpt>
      <trkpt lat="46.256013354286551" lon="8.011380638927221">
        <ele>2292.4000000000001</ele>
        <time>2019-02-10T10:17:13Z</time>
      </trkpt>
      <trkpt lat="46.256062388420105" lon="8.011419698596001">
        <ele>2293.8400000000001</ele>
        <time>2019-02-10T10:17:21Z</time>
      </trkpt>
      <trkpt lat="46.256108656525612" lon="8.011438390240073">
        <ele>2294.8000000000002</ele>
        <time>2019-02-10T10:17:30Z</time>
      </trkpt>
      <trkpt lat="46.256123660132289" lon="8.011439479887486">
        <ele>2293.8400000000001</ele>
        <time>2019-02-10T10:17:44Z</time>
      </trkpt>
      <trkpt lat="46.25613740645349" lon="8.011446185410023">
        <ele>2293.3600000000001</ele>
        <time>2019-02-10T10:17:49Z</time>
      </trkpt>
      <trkpt lat="46.256187949329615" lon="8.011489016935229">
        <ele>2293.3600000000001</ele>
        <time>2019-02-10T10:18:00Z</time>
      </trkpt>
      <trkpt lat="46.25623119994998" lon="8.011531010270119">
        <ele>2295.77</ele>
        <time>2019-02-10T10:18:10Z</time>
      </trkpt>
      <trkpt lat="46.256280401721597" lon="8.011572333052754">
        <ele>2296.25</ele>
        <time>2019-02-10T10:18:19Z</time>
      </trkpt>
      <trkpt lat="46.256336728110909" lon="8.011622121557593">
        <ele>2297.21</ele>
        <time>2019-02-10T10:18:31Z</time>
      </trkpt>
      <trkpt lat="46.256390875205398" lon="8.011669060215354">
        <ele>2298.1700000000001</ele>
        <time>2019-02-10T10:18:39Z</time>
      </trkpt>
      <trkpt lat="46.256467821076512" lon="8.011739552021027">
        <ele>2297.6900000000001</ele>
        <time>2019-02-10T10:18:50Z</time>
      </trkpt>
      <trkpt lat="46.256526242941618" lon="8.011779868975282">
        <ele>2298.1700000000001</ele>
        <time>2019-02-10T10:19:02Z</time>
      </trkpt>
      <trkpt lat="46.256564799696207" lon="8.011850863695145">
        <ele>2300.0900000000001</ele>
        <time>2019-02-10T10:19:12Z</time>
      </trkpt>
      <trkpt lat="46.256615677848458" lon="8.011929402127862">
        <ele>2301.5300000000002</ele>
        <time>2019-02-10T10:19:21Z</time>
      </trkpt>
      <trkpt lat="46.256622970104218" lon="8.011944992467761">
        <ele>2300.5700000000002</ele>
        <time>2019-02-10T10:19:31Z</time>
      </trkpt>
      <trkpt lat="46.256630262359977" lon="8.011926468461752">
        <ele>2298.1700000000001</ele>
        <time>2019-02-10T10:19:53Z</time>
      </trkpt>
      <trkpt lat="46.256676865741611" lon="8.011998301371932">
        <ele>2299.1300000000001</ele>
        <time>2019-02-10T10:20:04Z</time>
      </trkpt>
      <trkpt lat="46.256731431931257" lon="8.012085724622011">
        <ele>2301.5300000000002</ele>
        <time>2019-02-10T10:20:15Z</time>
      </trkpt>
      <trkpt lat="46.256793793290854" lon="8.012182954698801">
        <ele>2303.46</ele>
        <time>2019-02-10T10:20:26Z</time>
      </trkpt>
      <trkpt lat="46.256834948435426" lon="8.012236263602972">
        <ele>2305.8600000000001</ele>
        <time>2019-02-10T10:20:35Z</time>
      </trkpt>
      <trkpt lat="46.256907368078828" lon="8.012270713225007">
        <ele>2308.7399999999998</ele>
        <time>2019-02-10T10:20:45Z</time>
      </trkpt>
      <trkpt lat="46.25693385489285" lon="8.012297032400966">
        <ele>2308.2600000000002</ele>
        <time>2019-02-10T10:20:56Z</time>
      </trkpt>
      <trkpt lat="46.256925137713552" lon="8.012313209474087">
        <ele>2307.7800000000002</ele>
        <time>2019-02-10T10:21:08Z</time>
      </trkpt>
      <trkpt lat="46.256925975903869" lon="8.012312958016992">
        <ele>2307.7800000000002</ele>
        <time>2019-02-10T10:21:28Z</time>
      </trkpt>
      <trkpt lat="46.256926814094186" lon="8.012318573892117">
        <ele>2308.7399999999998</ele>
        <time>2019-02-10T10:21:41Z</time>
      </trkpt>
      <trkpt lat="46.256936537101865" lon="8.012333912774921">
        <ele>2310.1900000000001</ele>
        <time>2019-02-10T10:21:54Z</time>
      </trkpt>
      <trkpt lat="46.256929496303201" lon="8.012332990765572">
        <ele>2308.7399999999998</ele>
        <time>2019-02-10T10:22:11Z</time>
      </trkpt>
      <trkpt lat="46.256937626749277" lon="8.012327877804637">
        <ele>2307.3000000000002</ele>
        <time>2019-02-10T10:22:24Z</time>
      </trkpt>
      <trkpt lat="46.256936956197023" lon="8.012312119826675">
        <ele>2307.7800000000002</ele>
        <time>2019-02-10T10:22:34Z</time>
      </trkpt>
      <trkpt lat="46.256938464939594" lon="8.012311197817326">
        <ele>2309.2199999999998</ele>
        <time>2019-02-10T10:22:46Z</time>
      </trkpt>
      <trkpt lat="46.256932178512216" lon="8.012321004644036">
        <ele>2310.6700000000001</ele>
        <time>2019-02-10T10:23:03Z</time>
      </trkpt>
      <trkpt lat="46.256932429969311" lon="8.012334164232016">
        <ele>2309.6999999999998</ele>
        <time>2019-02-10T10:23:15Z</time>
      </trkpt>
      <trkpt lat="46.256937123835087" lon="8.012345395982266">
        <ele>2309.2199999999998</ele>
        <time>2019-02-10T10:23:29Z</time>
      </trkpt>
      <trkpt lat="46.256935866549611" lon="8.012350676581264">
        <ele>2310.1900000000001</ele>
        <time>2019-02-10T10:23:43Z</time>
      </trkpt>
      <trkpt lat="46.256935447454453" lon="8.012342462316155">
        <ele>2308.7399999999998</ele>
        <time>2019-02-10T10:24:00Z</time>
      </trkpt>
      <trkpt lat="46.256941063329577" lon="8.012322848662734">
        <ele>2307.3000000000002</ele>
        <time>2019-02-10T10:24:22Z</time>
      </trkpt>
      <trkpt lat="46.256939973682165" lon="8.012313460931182">
        <ele>2308.2600000000002</ele>
        <time>2019-02-10T10:24:32Z</time>
      </trkpt>
      <trkpt lat="46.256919940933585" lon="8.012360818684101">
        <ele>2308.7399999999998</ele>
        <time>2019-02-10T10:24:41Z</time>
      </trkpt>
      <trkpt lat="46.256907032802701" lon="8.012406919151545">
        <ele>2309.2199999999998</ele>
        <time>2019-02-10T10:24:50Z</time>
      </trkpt>
      <trkpt lat="46.256896136328578" lon="8.012417396530509">
        <ele>2309.6999999999998</ele>
        <time>2019-02-10T10:25:03Z</time>
      </trkpt>
      <trkpt lat="46.256877947598696" lon="8.012398704886437">
        <ele>2310.6700000000001</ele>
        <time>2019-02-10T10:25:13Z</time>
      </trkpt>
      <trkpt lat="46.256883731111884" lon="8.012330560013652">
        <ele>2310.6700000000001</ele>
        <time>2019-02-10T10:25:21Z</time>
      </trkpt>
      <trkpt lat="46.256906278431416" lon="8.012296026572585">
        <ele>2310.1900000000001</ele>
        <time>2019-02-10T10:25:29Z</time>
      </trkpt>
      <trkpt lat="46.256923545151949" lon="8.012298876419663">
        <ele>2309.6999999999998</ele>
        <time>2019-02-10T10:25:38Z</time>
      </trkpt>
      <trkpt lat="46.256943074986339" lon="8.012298624962568">
        <ele>2310.1900000000001</ele>
        <time>2019-02-10T10:25:44Z</time>
      </trkpt>
      <trkpt lat="46.256944080814719" lon="8.012319914996624">
        <ele>2311.1500000000001</ele>
        <time>2019-02-10T10:25:54Z</time>
      </trkpt>
      <trkpt lat="46.256949193775654" lon="8.01231580786407">
        <ele>2310.6700000000001</ele>
        <time>2019-02-10T10:26:10Z</time>
      </trkpt>
      <trkpt lat="46.25693972222507" lon="8.012323854491115">
        <ele>2308.2600000000002</ele>
        <time>2019-02-10T10:26:20Z</time>
      </trkpt>
      <trkpt lat="46.256907535716891" lon="8.012308515608311">
        <ele>2308.2600000000002</ele>
        <time>2019-02-10T10:26:46Z</time>
      </trkpt>
      <trkpt lat="46.256943242624402" lon="8.012316478416324">
        <ele>2310.6700000000001</ele>
        <time>2019-02-10T10:27:06Z</time>
      </trkpt>
      <trkpt lat="46.256933268159628" lon="8.012281274423003">
        <ele>2313.5500000000002</ele>
        <time>2019-02-10T10:27:33Z</time>
      </trkpt>
      <trkpt lat="46.256923042237759" lon="8.012251267209649">
        <ele>2310.6700000000001</ele>
        <time>2019-02-10T10:27:52Z</time>
      </trkpt>
      <trkpt lat="46.25692212022841" lon="8.012255122885108">
        <ele>2310.6700000000001</ele>
        <time>2019-02-10T10:27:53Z</time>
      </trkpt>
      <trkpt lat="46.256915079429746" lon="8.012293092906475">
        <ele>2311.1500000000001</ele>
        <time>2019-02-10T10:28:16Z</time>
      </trkpt>
      <trkpt lat="46.256918013095856" lon="8.012298373505473">
        <ele>2309.6999999999998</ele>
        <time>2019-02-10T10:28:20Z</time>
      </trkpt>
      <trkpt lat="46.256925892084837" lon="8.012317987158895">
        <ele>2312.5900000000001</ele>
        <time>2019-02-10T10:28:41Z</time>
      </trkpt>
      <trkpt lat="46.256930334493518" lon="8.012334583327174">
        <ele>2315.4699999999998</ele>
        <time>2019-02-10T10:28:49Z</time>
      </trkpt>
      <trkpt lat="46.25689378939569" lon="8.012236515060067">
        <ele>2317.8800000000001</ele>
        <time>2019-02-10T10:29:14Z</time>
      </trkpt>
      <trkpt lat="46.256906278431416" lon="8.012268869206309">
        <ele>2316.9099999999999</ele>
        <time>2019-02-10T10:29:26Z</time>
      </trkpt>
      <trkpt lat="46.256938129663467" lon="8.012317148968577">
        <ele>2314.5100000000002</ele>
        <time>2019-02-10T10:29:34Z</time>
      </trkpt>
      <trkpt lat="46.256938632577658" lon="8.0123246088624">
        <ele>2312.1100000000001</ele>
        <time>2019-02-10T10:29:38Z</time>
      </trkpt>
      <trkpt lat="46.256966460496187" lon="8.012337600812316">
        <ele>2311.1500000000001</ele>
        <time>2019-02-10T10:29:44Z</time>
      </trkpt>
      <trkpt lat="46.256994539871812" lon="8.012358890846372">
        <ele>2309.6999999999998</ele>
        <time>2019-02-10T10:29:49Z</time>
      </trkpt>
      <trkpt lat="46.257054638117552" lon="8.012414881959558">
        <ele>2310.1900000000001</ele>
        <time>2019-02-10T10:29:57Z</time>
      </trkpt>
      <trkpt lat="46.257101828232408" lon="8.012457629665732">
        <ele>2310.1900000000001</ele>
        <time>2019-02-10T10:30:05Z</time>
      </trkpt>
      <trkpt lat="46.257168045267463" lon="8.012503311038017">
        <ele>2310.6700000000001</ele>
        <time>2019-02-10T10:30:15Z</time>
      </trkpt>
      <trkpt lat="46.257204590365291" lon="8.012535916641355">
        <ele>2312.1100000000001</ele>
        <time>2019-02-10T10:30:23Z</time>
      </trkpt>
      <trkpt lat="46.257222443819046" lon="8.012552764266729">
        <ele>2313.0700000000002</ele>
        <time>2019-02-10T10:30:31Z</time>
      </trkpt>
      <trkpt lat="46.257286397740245" lon="8.012602720409632">
        <ele>2313.5500000000002</ele>
        <time>2019-02-10T10:30:41Z</time>
      </trkpt>
      <trkpt lat="46.257349848747253" lon="8.012651419267058">
        <ele>2313.0700000000002</ele>
        <time>2019-02-10T10:30:50Z</time>
      </trkpt>
      <trkpt lat="46.257374156266451" lon="8.012684863060713">
        <ele>2314.0300000000002</ele>
        <time>2019-02-10T10:30:58Z</time>
      </trkpt>
      <trkpt lat="46.257396787405014" lon="8.012694586068392">
        <ele>2314.0300000000002</ele>
        <time>2019-02-10T10:31:11Z</time>
      </trkpt>
      <trkpt lat="46.257451018318534" lon="8.012764155864716">
        <ele>2314.5100000000002</ele>
        <time>2019-02-10T10:31:21Z</time>
      </trkpt>
      <trkpt lat="46.257487228140235" lon="8.012816878035665">
        <ele>2314.9899999999998</ele>
        <time>2019-02-10T10:31:30Z</time>
      </trkpt>
      <trkpt lat="46.257516480982304" lon="8.012858703732491">
        <ele>2314.9899999999998</ele>
        <time>2019-02-10T10:31:41Z</time>
      </trkpt>
      <trkpt lat="46.257540034130216" lon="8.012870689854026">
        <ele>2316.9099999999999</ele>
        <time>2019-02-10T10:31:52Z</time>
      </trkpt>
      <trkpt lat="46.25756124034524" lon="8.012909665703774">
        <ele>2317.4000000000001</ele>
        <time>2019-02-10T10:32:03Z</time>
      </trkpt>
      <trkpt lat="46.257588062435389" lon="8.012936823070049">
        <ele>2317.4000000000001</ele>
        <time>2019-02-10T10:32:13Z</time>
      </trkpt>
      <trkpt lat="46.257609520107508" lon="8.012976972386241">
        <ele>2318.8400000000001</ele>
        <time>2019-02-10T10:32:23Z</time>
      </trkpt>
      <trkpt lat="46.257623685523868" lon="8.013054337352514">
        <ele>2319.3200000000002</ele>
        <time>2019-02-10T10:32:37Z</time>
      </trkpt>
      <trkpt lat="46.257644640281796" lon="8.013106975704432">
        <ele>2322.1999999999998</ele>
        <time>2019-02-10T10:32:49Z</time>
      </trkpt>
      <trkpt lat="46.257652854546905" lon="8.013181993737817">
        <ele>2322.6799999999998</ele>
        <time>2019-02-10T10:32:58Z</time>
      </trkpt>
      <trkpt lat="46.257697278633714" lon="8.013187609612942">
        <ele>2323.6399999999999</ele>
        <time>2019-02-10T10:33:10Z</time>
      </trkpt>
      <trkpt lat="46.257707420736551" lon="8.013202697038651">
        <ele>2325.0900000000001</ele>
        <time>2019-02-10T10:33:20Z</time>
      </trkpt>
      <trkpt lat="46.257740445435047" lon="8.013229183852673">
        <ele>2326.0500000000002</ele>
        <time>2019-02-10T10:33:28Z</time>
      </trkpt>
      <trkpt lat="46.25775377266109" lon="8.013255503028631">
        <ele>2327.4899999999998</ele>
        <time>2019-02-10T10:33:37Z</time>
      </trkpt>
      <trkpt lat="46.257770201191306" lon="8.013266315683723">
        <ele>2328.9299999999998</ele>
        <time>2019-02-10T10:33:46Z</time>
      </trkpt>
      <trkpt lat="46.257808422669768" lon="8.013260615989566">
        <ele>2329.4099999999999</ele>
        <time>2019-02-10T10:33:56Z</time>
      </trkpt>
      <trkpt lat="46.257867515087128" lon="8.013263465836644">
        <ele>2331.8099999999999</ele>
        <time>2019-02-10T10:34:06Z</time>
      </trkpt>
      <trkpt lat="46.257875477895141" lon="8.013267740607262">
        <ele>2332.3000000000002</ele>
        <time>2019-02-10T10:34:08Z</time>
      </trkpt>
      <trkpt lat="46.257896265015006" lon="8.013283917680383">
        <ele>2333.7399999999998</ele>
        <time>2019-02-10T10:34:14Z</time>
      </trkpt>
      <trkpt lat="46.257937671616673" lon="8.013328090310097">
        <ele>2335.1799999999998</ele>
        <time>2019-02-10T10:34:23Z</time>
      </trkpt>
      <trkpt lat="46.257979748770595" lon="8.013364467769861">
        <ele>2337.0999999999999</ele>
        <time>2019-02-10T10:34:33Z</time>
      </trkpt>
      <trkpt lat="46.25801713205874" lon="8.013399755582213">
        <ele>2338.0599999999999</ele>
        <time>2019-02-10T10:34:43Z</time>
      </trkpt>
      <trkpt lat="46.258055185899138" lon="8.013455159962177">
        <ele>2340.9499999999998</ele>
        <time>2019-02-10T10:34:50Z</time>
      </trkpt>
      <trkpt lat="46.258081672713161" lon="8.013506205752492">
        <ele>2343.3499999999999</ele>
        <time>2019-02-10T10:35:00Z</time>
      </trkpt>
      <trkpt lat="46.258114445954561" lon="8.013566806912422">
        <ele>2343.8299999999999</ele>
        <time>2019-02-10T10:35:09Z</time>
      </trkpt>
      <trkpt lat="46.258155349642038" lon="8.013610895723105">
        <ele>2344.3099999999999</ele>
        <time>2019-02-10T10:35:19Z</time>
      </trkpt>
      <trkpt lat="46.258162138983607" lon="8.013615924865007">
        <ele>2345.27</ele>
        <time>2019-02-10T10:35:22Z</time>
      </trkpt>
      <trkpt lat="46.258212933316827" lon="8.013661187142134">
        <ele>2347.6799999999998</ele>
        <time>2019-02-10T10:35:33Z</time>
      </trkpt>
      <trkpt lat="46.258258279412985" lon="8.013690188527107">
        <ele>2346.23</ele>
        <time>2019-02-10T10:35:43Z</time>
      </trkpt>
      <trkpt lat="46.258280156180263" lon="8.013742910698056">
        <ele>2348.6399999999999</ele>
        <time>2019-02-10T10:35:52Z</time>
      </trkpt>
      <trkpt lat="46.25831033103168" lon="8.013783227652311">
        <ele>2348.6399999999999</ele>
        <time>2019-02-10T10:36:01Z</time>
      </trkpt>
      <trkpt lat="46.258337236940861" lon="8.013827735558152">
        <ele>2350.0799999999999</ele>
        <time>2019-02-10T10:36:09Z</time>
      </trkpt>
      <trkpt lat="46.258382080122828" lon="8.013869477435947">
        <ele>2352.96</ele>
        <time>2019-02-10T10:36:18Z</time>
      </trkpt>
      <trkpt lat="46.258414098992944" lon="8.013881966471672">
        <ele>2352.96</ele>
        <time>2019-02-10T10:36:28Z</time>
      </trkpt>
      <trkpt lat="46.258432036265731" lon="8.013916583731771">
        <ele>2353.9299999999998</ele>
        <time>2019-02-10T10:36:39Z</time>
      </trkpt>
      <trkpt lat="46.258494397625327" lon="8.013984812423587">
        <ele>2353.4400000000001</ele>
        <time>2019-02-10T10:36:49Z</time>
      </trkpt>
      <trkpt lat="46.258521387353539" lon="8.014035187661648">
        <ele>2353.9299999999998</ele>
        <time>2019-02-10T10:36:58Z</time>
      </trkpt>
      <trkpt lat="46.258558519184589" lon="8.014100985601544">
        <ele>2355.3699999999999</ele>
        <time>2019-02-10T10:37:07Z</time>
      </trkpt>
      <trkpt lat="46.258616521954536" lon="8.014162005856633">
        <ele>2356.8099999999999</ele>
        <time>2019-02-10T10:37:17Z</time>
      </trkpt>
      <trkpt lat="46.25867972150445" lon="8.014200311154127">
        <ele>2355.8499999999999</ele>
        <time>2019-02-10T10:37:27Z</time>
      </trkpt>
      <trkpt lat="46.258731354027987" lon="8.014251356944442">
        <ele>2355.8499999999999</ele>
        <time>2019-02-10T10:37:38Z</time>
      </trkpt>
      <trkpt lat="46.258796481415629" lon="8.014287650585175">
        <ele>2355.3699999999999</ele>
        <time>2019-02-10T10:37:50Z</time>
      </trkpt>
      <trkpt lat="46.258833361789584" lon="8.014361327514052">
        <ele>2356.3299999999999</ele>
        <time>2019-02-10T10:38:01Z</time>
      </trkpt>
      <trkpt lat="46.25886932015419" lon="8.014412373304367">
        <ele>2356.3299999999999</ele>
        <time>2019-02-10T10:38:11Z</time>
      </trkpt>
      <trkpt lat="46.25889765098691" lon="8.01443106494844">
        <ele>2357.29</ele>
        <time>2019-02-10T10:38:21Z</time>
      </trkpt>
      <trkpt lat="46.258941991254687" lon="8.014460233971477">
        <ele>2359.21</ele>
        <time>2019-02-10T10:38:31Z</time>
      </trkpt>
      <trkpt lat="46.258973255753517" lon="8.014493845403194">
        <ele>2360.6500000000001</ele>
        <time>2019-02-10T10:38:40Z</time>
      </trkpt>
      <trkpt lat="46.258994964882731" lon="8.014528378844261">
        <ele>2361.1399999999999</ele>
        <time>2019-02-10T10:38:50Z</time>
      </trkpt>
      <trkpt lat="46.259029749780893" lon="8.01456056535244">
        <ele>2362.0999999999999</ele>
        <time>2019-02-10T10:39:02Z</time>
      </trkpt>
      <trkpt lat="46.259066294878721" lon="8.014582777395845">
        <ele>2364.02</ele>
        <time>2019-02-10T10:39:11Z</time>
      </trkpt>
      <trkpt lat="46.259112562984228" lon="8.014623178169131">
        <ele>2363.0599999999999</ele>
        <time>2019-02-10T10:39:21Z</time>
      </trkpt>
      <trkpt lat="46.259146342054009" lon="8.014680342748761">
        <ele>2365.46</ele>
        <time>2019-02-10T10:39:30Z</time>
      </trkpt>
      <trkpt lat="46.259176433086395" lon="8.014725856482983">
        <ele>2366.9000000000001</ele>
        <time>2019-02-10T10:39:38Z</time>
      </trkpt>
      <trkpt lat="46.259210044518113" lon="8.014745134860277">
        <ele>2367.3800000000001</ele>
        <time>2019-02-10T10:39:48Z</time>
      </trkpt>
      <trkpt lat="46.259249355643988" lon="8.014812022447586">
        <ele>2366.4200000000001</ele>
        <time>2019-02-10T10:39:58Z</time>
      </trkpt>
      <trkpt lat="46.259273495525122" lon="8.014849321916699">
        <ele>2366.9000000000001</ele>
        <time>2019-02-10T10:40:07Z</time>
      </trkpt>
      <trkpt lat="46.25929000787437" lon="8.014880586415529">
        <ele>2366.9000000000001</ele>
        <time>2019-02-10T10:40:16Z</time>
      </trkpt>
      <trkpt lat="46.259311800822616" lon="8.014916125684977">
        <ele>2367.3800000000001</ele>
        <time>2019-02-10T10:40:25Z</time>
      </trkpt>
      <trkpt lat="46.25935161486268" lon="8.01499692723155">
        <ele>2367.3800000000001</ele>
        <time>2019-02-10T10:40:35Z</time>
      </trkpt>
      <trkpt lat="46.259383969008923" lon="8.015048475936055">
        <ele>2368.8299999999999</ele>
        <time>2019-02-10T10:40:46Z</time>
      </trkpt>
      <trkpt lat="46.259408360347152" lon="8.015093905851245">
        <ele>2369.3099999999999</ele>
        <time>2019-02-10T10:40:56Z</time>
      </trkpt>
      <trkpt lat="46.2594507727772" lon="8.015169259160757">
        <ele>2370.75</ele>
        <time>2019-02-10T10:41:08Z</time>
      </trkpt>
      <trkpt lat="46.259478600695729" lon="8.015238577499986">
        <ele>2371.71</ele>
        <time>2019-02-10T10:41:18Z</time>
      </trkpt>
      <trkpt lat="46.259541381150484" lon="8.015348883345723">
        <ele>2372.6700000000001</ele>
        <time>2019-02-10T10:41:30Z</time>
      </trkpt>
      <trkpt lat="46.259588235989213" lon="8.01544301211834">
        <ele>2374.1100000000001</ele>
        <time>2019-02-10T10:41:43Z</time>
      </trkpt>
      <trkpt lat="46.259640036150813" lon="8.015567399561405">
        <ele>2375.5500000000002</ele>
        <time>2019-02-10T10:41:55Z</time>
      </trkpt>
      <trkpt lat="46.25964623875916" lon="8.015631269663572">
        <ele>2376.04</ele>
        <time>2019-02-10T10:42:04Z</time>
      </trkpt>
      <trkpt lat="46.259682700037956" lon="8.015712322667241">
        <ele>2376.04</ele>
        <time>2019-02-10T10:42:14Z</time>
      </trkpt>
      <trkpt lat="46.259714802727103" lon="8.015783233568072">
        <ele>2377</ele>
        <time>2019-02-10T10:42:26Z</time>
      </trkpt>
      <trkpt lat="46.259749252349138" lon="8.015868812799454">
        <ele>2377.48</ele>
        <time>2019-02-10T10:42:37Z</time>
      </trkpt>
      <trkpt lat="46.259780349209905" lon="8.015934526920319">
        <ele>2379.4000000000001</ele>
        <time>2019-02-10T10:42:47Z</time>
      </trkpt>
      <trkpt lat="46.25980457291007" lon="8.016014071181417">
        <ele>2379.4000000000001</ele>
        <time>2019-02-10T10:42:57Z</time>
      </trkpt>
      <trkpt lat="46.259815050289035" lon="8.016062686219811">
        <ele>2379.4000000000001</ele>
        <time>2019-02-10T10:43:07Z</time>
      </trkpt>
      <trkpt lat="46.259825443848968" lon="8.016093615442514">
        <ele>2380.3600000000001</ele>
        <time>2019-02-10T10:43:15Z</time>
      </trkpt>
      <trkpt lat="46.259860480204225" lon="8.016140973195434">
        <ele>2379.8800000000001</ele>
        <time>2019-02-10T10:43:27Z</time>
      </trkpt>
      <trkpt lat="46.259888308122754" lon="8.016195958480239">
        <ele>2380.3600000000001</ele>
        <time>2019-02-10T10:43:38Z</time>
      </trkpt>
      <trkpt lat="46.25991839915514" lon="8.016207357868552">
        <ele>2381.3200000000002</ele>
        <time>2019-02-10T10:43:53Z</time>
      </trkpt>
      <trkpt lat="46.259932229295373" lon="8.016213979572058">
        <ele>2381.3200000000002</ele>
        <time>2019-02-10T10:44:02Z</time>
      </trkpt>
      <trkpt lat="46.259967936202884" lon="8.016223283484578">
        <ele>2382.2800000000002</ele>
        <time>2019-02-10T10:44:12Z</time>
      </trkpt>
      <trkpt lat="46.260023005306721" lon="8.016280615702272">
        <ele>2381.3200000000002</ele>
        <time>2019-02-10T10:44:20Z</time>
      </trkpt>
      <trkpt lat="46.26008503139019" lon="8.016345407813788">
        <ele>2381.8000000000002</ele>
        <time>2019-02-10T10:44:29Z</time>
      </trkpt>
      <trkpt lat="46.260155942291021" lon="8.016422940418124">
        <ele>2381.3200000000002</ele>
        <time>2019-02-10T10:44:40Z</time>
      </trkpt>
      <trkpt lat="46.260214867070317" lon="8.016509274020791">
        <ele>2381.8000000000002</ele>
        <time>2019-02-10T10:44:49Z</time>
      </trkpt>
      <trkpt lat="46.260263230651617" lon="8.016575910151005">
        <ele>2382.7600000000002</ele>
        <time>2019-02-10T10:44:58Z</time>
      </trkpt>
      <trkpt lat="46.260317210108042" lon="8.016667272895575">
        <ele>2383.25</ele>
        <time>2019-02-10T10:45:08Z</time>
      </trkpt>
      <trkpt lat="46.26033078879118" lon="8.016686551272869">
        <ele>2383.73</ele>
        <time>2019-02-10T10:45:10Z</time>
      </trkpt>
      <trkpt lat="46.26036356203258" lon="8.016757378354669">
        <ele>2383.25</ele>
        <time>2019-02-10T10:45:20Z</time>
      </trkpt>
      <trkpt lat="46.260369932278991" lon="8.016764838248491">
        <ele>2383.25</ele>
        <time>2019-02-10T10:45:21Z</time>
      </trkpt>
      <trkpt lat="46.260398682206869" lon="8.016812028363347">
        <ele>2383.25</ele>
        <time>2019-02-10T10:45:26Z</time>
      </trkpt>
      <trkpt lat="46.260453583672643" lon="8.016875730827451">
        <ele>2383.73</ele>
        <time>2019-02-10T10:45:36Z</time>
      </trkpt>
      <trkpt lat="46.260462636128068" lon="8.016918646171689">
        <ele>2384.21</ele>
        <time>2019-02-10T10:45:45Z</time>
      </trkpt>
      <trkpt lat="46.260477220639586" lon="8.016992239281535">
        <ele>2384.21</ele>
        <time>2019-02-10T10:45:53Z</time>
      </trkpt>
      <trkpt lat="46.26050672493875" lon="8.017092319205403">
        <ele>2384.6900000000001</ele>
        <time>2019-02-10T10:46:04Z</time>
      </trkpt>
      <trkpt lat="46.260514855384827" lon="8.017101958394051">
        <ele>2384.21</ele>
        <time>2019-02-10T10:46:13Z</time>
      </trkpt>
      <trkpt lat="46.260513179004192" lon="8.017126685008407">
        <ele>2385.1700000000001</ele>
        <time>2019-02-10T10:46:25Z</time>
      </trkpt>
      <trkpt lat="46.260509993880987" lon="8.017195081338286">
        <ele>2385.6500000000001</ele>
        <time>2019-02-10T10:46:33Z</time>
      </trkpt>
      <trkpt lat="46.260506389662623" lon="8.017268674448133">
        <ele>2387.5700000000002</ele>
        <time>2019-02-10T10:46:41Z</time>
      </trkpt>
      <trkpt lat="46.260513011366129" lon="8.017335645854473">
        <ele>2388.5300000000002</ele>
        <time>2019-02-10T10:46:49Z</time>
      </trkpt>
      <trkpt lat="46.260530864819884" lon="8.017380572855473">
        <ele>2388.5300000000002</ele>
        <time>2019-02-10T10:46:59Z</time>
      </trkpt>
      <trkpt lat="46.260543940588832" lon="8.01744201220572">
        <ele>2389.9699999999998</ele>
        <time>2019-02-10T10:47:07Z</time>
      </trkpt>
      <trkpt lat="46.260557854548097" lon="8.017484173178673">
        <ele>2391.4200000000001</ele>
        <time>2019-02-10T10:47:17Z</time>
      </trkpt>
      <trkpt lat="46.26057461835444" lon="8.017552569508553">
        <ele>2392.8600000000001</ele>
        <time>2019-02-10T10:47:26Z</time>
      </trkpt>
      <trkpt lat="46.260582581162453" lon="8.017569333314896">
        <ele>2392.8600000000001</ele>
        <time>2019-02-10T10:47:35Z</time>
      </trkpt>
      <trkpt lat="46.260596746578813" lon="8.017616691067815">
        <ele>2394.3000000000002</ele>
        <time>2019-02-10T10:47:44Z</time>
      </trkpt>
      <trkpt lat="46.260617533698678" lon="8.017679052427411">
        <ele>2396.6999999999998</ele>
        <time>2019-02-10T10:47:52Z</time>
      </trkpt>
      <trkpt lat="46.260651312768459" lon="8.017718195915222">
        <ele>2398.1500000000001</ele>
        <time>2019-02-10T10:47:59Z</time>
      </trkpt>
      <trkpt lat="46.260673189535737" lon="8.017728254199028">
        <ele>2398.6300000000001</ele>
        <time>2019-02-10T10:48:12Z</time>
      </trkpt>
      <trkpt lat="46.260697916150093" lon="8.017784748226404">
        <ele>2398.6300000000001</ele>
        <time>2019-02-10T10:48:21Z</time>
      </trkpt>
      <trkpt lat="46.260720547288656" lon="8.017845349386334">
        <ele>2400.5500000000002</ele>
        <time>2019-02-10T10:48:32Z</time>
      </trkpt>
      <trkpt lat="46.260740328580141" lon="8.017950961366296">
        <ele>2401.9899999999998</ele>
        <time>2019-02-10T10:48:45Z</time>
      </trkpt>
      <trkpt lat="46.260751225054264" lon="8.01799270324409">
        <ele>2402.4699999999998</ele>
        <time>2019-02-10T10:48:57Z</time>
      </trkpt>
      <trkpt lat="46.260741837322712" lon="8.017998738214374">
        <ele>2403.9099999999999</ele>
        <time>2019-02-10T10:49:11Z</time>
      </trkpt>
      <trkpt lat="46.260767402127385" lon="8.018105691298842">
        <ele>2402.9499999999998</ele>
        <time>2019-02-10T10:49:22Z</time>
      </trkpt>
      <trkpt lat="46.260776706039906" lon="8.018183307722211">
        <ele>2404.8800000000001</ele>
        <time>2019-02-10T10:49:31Z</time>
      </trkpt>
      <trkpt lat="46.26080377958715" lon="8.018212141469121">
        <ele>2407.2800000000002</ele>
        <time>2019-02-10T10:49:43Z</time>
      </trkpt>
      <trkpt lat="46.260819034650922" lon="8.018225803971291">
        <ele>2408.7199999999998</ele>
        <time>2019-02-10T10:49:58Z</time>
      </trkpt>
      <trkpt lat="46.260846527293324" lon="8.018289757892489">
        <ele>2408.7199999999998</ele>
        <time>2019-02-10T10:50:07Z</time>
      </trkpt>
      <trkpt lat="46.260878378525376" lon="8.018335020169616">
        <ele>2411.1199999999999</ele>
        <time>2019-02-10T10:50:19Z</time>
      </trkpt>
      <trkpt lat="46.260907966643572" lon="8.01837969571352">
        <ele>2412.0900000000001</ele>
        <time>2019-02-10T10:50:26Z</time>
      </trkpt>
      <trkpt lat="46.260917270556092" lon="8.018392017111182">
        <ele>2413.5300000000002</ele>
        <time>2019-02-10T10:50:36Z</time>
      </trkpt>
      <trkpt lat="46.260932609438896" lon="8.018415318801999">
        <ele>2414.0100000000002</ele>
        <time>2019-02-10T10:50:45Z</time>
      </trkpt>
      <trkpt lat="46.260927747935057" lon="8.01840752363205">
        <ele>2414.0100000000002</ele>
        <time>2019-02-10T10:50:57Z</time>
      </trkpt>
      <trkpt lat="46.260958090424538" lon="8.018473237752914">
        <ele>2413.5300000000002</ele>
        <time>2019-02-10T10:51:09Z</time>
      </trkpt>
      <trkpt lat="46.260979380458593" lon="8.018546830862761">
        <ele>2414.9699999999998</ele>
        <time>2019-02-10T10:51:20Z</time>
      </trkpt>
      <trkpt lat="46.260993462055922" lon="8.018573820590973">
        <ele>2416.8899999999999</ele>
        <time>2019-02-10T10:51:28Z</time>
      </trkpt>
      <trkpt lat="46.261023804545403" lon="8.01862008869648">
        <ele>2416.8899999999999</ele>
        <time>2019-02-10T10:51:39Z</time>
      </trkpt>
      <trkpt lat="46.261038724333048" lon="8.018667362630367">
        <ele>2418.3299999999999</ele>
        <time>2019-02-10T10:51:47Z</time>
      </trkpt>
      <trkpt lat="46.261062361299992" lon="8.018721761181951">
        <ele>2419.3000000000002</ele>
        <time>2019-02-10T10:51:55Z</time>
      </trkpt>
      <trkpt lat="46.261076778173447" lon="8.01876031793654">
        <ele>2420.7399999999998</ele>
        <time>2019-02-10T10:52:05Z</time>
      </trkpt>
      <trkpt lat="46.26110041514039" lon="8.018777333199978">
        <ele>2421.2199999999998</ele>
        <time>2019-02-10T10:52:18Z</time>
      </trkpt>
      <trkpt lat="46.261126985773444" lon="8.018831228837371">
        <ele>2424.0999999999999</ele>
        <time>2019-02-10T10:52:26Z</time>
      </trkpt>
      <trkpt lat="46.261153304949403" lon="8.018840784206986">
        <ele>2424.0999999999999</ele>
        <time>2019-02-10T10:52:36Z</time>
      </trkpt>
      <trkpt lat="46.261176439002156" lon="8.018867690116167">
        <ele>2423.6199999999999</ele>
        <time>2019-02-10T10:52:49Z</time>
      </trkpt>
      <trkpt lat="46.261208625510335" lon="8.018904319033027">
        <ele>2425.54</ele>
        <time>2019-02-10T10:52:59Z</time>
      </trkpt>
      <trkpt lat="46.261238967999816" lon="8.018944971263409">
        <ele>2426.9899999999998</ele>
        <time>2019-02-10T10:53:09Z</time>
      </trkpt>
      <trkpt lat="46.261276686564088" lon="8.018962573260069">
        <ele>2428.9099999999999</ele>
        <time>2019-02-10T10:53:18Z</time>
      </trkpt>
      <trkpt lat="46.261303760111332" lon="8.018987970426679">
        <ele>2429.3899999999999</ele>
        <time>2019-02-10T10:53:31Z</time>
      </trkpt>
      <trkpt lat="46.261317422613502" lon="8.019042871892452">
        <ele>2432.75</ele>
        <time>2019-02-10T10:53:39Z</time>
      </trkpt>
      <trkpt lat="46.26131976954639" lon="8.019045051187277">
        <ele>2432.75</ele>
        <time>2019-02-10T10:53:40Z</time>
      </trkpt>
      <trkpt lat="46.261326055973768" lon="8.019078830257058">
        <ele>2432.75</ele>
        <time>2019-02-10T10:53:48Z</time>
      </trkpt>
      <trkpt lat="46.261358996853232" lon="8.019157871603966">
        <ele>2432.27</ele>
        <time>2019-02-10T10:53:58Z</time>
      </trkpt>
      <trkpt lat="46.261370815336704" lon="8.019194584339857">
        <ele>2432.75</ele>
        <time>2019-02-10T10:54:07Z</time>
      </trkpt>
      <trkpt lat="46.261386908590794" lon="8.019258538261056">
        <ele>2434.1999999999998</ele>
        <time>2019-02-10T10:54:15Z</time>
      </trkpt>
      <trkpt lat="46.261415490880609" lon="8.019337076693773">
        <ele>2435.6399999999999</ele>
        <time>2019-02-10T10:54:29Z</time>
      </trkpt>
      <trkpt lat="46.261428231373429" lon="8.019349062815309">
        <ele>2436.5999999999999</ele>
        <time>2019-02-10T10:54:39Z</time>
      </trkpt>
      <trkpt lat="46.261440133675933" lon="8.019379153847694">
        <ele>2437.0799999999999</ele>
        <time>2019-02-10T10:54:52Z</time>
      </trkpt>
      <trkpt lat="46.261468715965748" lon="8.019431037828326">
        <ele>2439</ele>
        <time>2019-02-10T10:55:07Z</time>
      </trkpt>
      <trkpt lat="46.261475756764412" lon="8.019466828554869">
        <ele>2439.48</ele>
        <time>2019-02-10T10:55:19Z</time>
      </trkpt>
      <trkpt lat="46.261472990736365" lon="8.019486358389258">
        <ele>2440.4400000000001</ele>
        <time>2019-02-10T10:55:26Z</time>
      </trkpt>
      <trkpt lat="46.261502243578434" lon="8.01953530870378">
        <ele>2442.3699999999999</ele>
        <time>2019-02-10T10:55:40Z</time>
      </trkpt>
      <trkpt lat="46.261516828089952" lon="8.019567495211959">
        <ele>2443.8099999999999</ele>
        <time>2019-02-10T10:55:51Z</time>
      </trkpt>
      <trkpt lat="46.261528227478266" lon="8.019624827429652">
        <ele>2447.1700000000001</ele>
        <time>2019-02-10T10:55:59Z</time>
      </trkpt>
      <trkpt lat="46.261543901637197" lon="8.019699929282069">
        <ele>2447.6500000000001</ele>
        <time>2019-02-10T10:56:07Z</time>
      </trkpt>
      <trkpt lat="46.261567370966077" lon="8.019747957587242">
        <ele>2447.6500000000001</ele>
        <time>2019-02-10T10:56:16Z</time>
      </trkpt>
      <trkpt lat="46.261582877486944" lon="8.019784921780229">
        <ele>2448.6199999999999</ele>
        <time>2019-02-10T10:56:25Z</time>
      </trkpt>
      <trkpt lat="46.261607520282269" lon="8.019793722778559">
        <ele>2448.1300000000001</ele>
        <time>2019-02-10T10:56:38Z</time>
      </trkpt>
      <trkpt lat="46.261635348200798" lon="8.019859772175551">
        <ele>2448.6199999999999</ele>
        <time>2019-02-10T10:56:47Z</time>
      </trkpt>
      <trkpt lat="46.261631576344371" lon="8.019909979775548">
        <ele>2449.0999999999999</ele>
        <time>2019-02-10T10:56:58Z</time>
      </trkpt>
      <trkpt lat="46.261626211926341" lon="8.019955744966865">
        <ele>2451.98</ele>
        <time>2019-02-10T10:57:05Z</time>
      </trkpt>
      <trkpt lat="46.261650519445539" lon="8.01997410133481">
        <ele>2453.4200000000001</ele>
        <time>2019-02-10T10:57:14Z</time>
      </trkpt>
      <trkpt lat="46.261680023744702" lon="8.019994217902422">
        <ele>2454.3800000000001</ele>
        <time>2019-02-10T10:57:22Z</time>
      </trkpt>
      <trkpt lat="46.261692764237523" lon="8.020014334470034">
        <ele>2453.9000000000001</ele>
        <time>2019-02-10T10:57:31Z</time>
      </trkpt>
      <trkpt lat="46.261699218302965" lon="8.020014250651002">
        <ele>2455.3400000000001</ele>
        <time>2019-02-10T10:57:46Z</time>
      </trkpt>
      <trkpt lat="46.261737691238523" lon="8.020040318369865">
        <ele>2455.8200000000002</ele>
        <time>2019-02-10T10:57:54Z</time>
      </trkpt>
      <trkpt lat="46.261768201366067" lon="8.020084574818611">
        <ele>2457.27</ele>
        <time>2019-02-10T10:58:02Z</time>
      </trkpt>
      <trkpt lat="46.261801058426499" lon="8.020135369151831">
        <ele>2458.23</ele>
        <time>2019-02-10T10:58:11Z</time>
      </trkpt>
      <trkpt lat="46.261836178600788" lon="8.020206028595567">
        <ele>2459.1900000000001</ele>
        <time>2019-02-10T10:58:24Z</time>
      </trkpt>
      <trkpt lat="46.261854115873575" lon="8.020259588956833">
        <ele>2460.6300000000001</ele>
        <time>2019-02-10T10:58:34Z</time>
      </trkpt>
      <trkpt lat="46.261892672628164" lon="8.020273251459003">
        <ele>2461.1100000000001</ele>
        <time>2019-02-10T10:58:43Z</time>
      </trkpt>
      <trkpt lat="46.261945981532335" lon="8.020272580906749">
        <ele>2463.04</ele>
        <time>2019-02-10T10:58:56Z</time>
      </trkpt>
      <trkpt lat="46.261943802237511" lon="8.020287500694394">
        <ele>2462.0700000000002</ele>
        <time>2019-02-10T10:59:08Z</time>
      </trkpt>
      <trkpt lat="46.261934079229832" lon="8.02035229280591">
        <ele>2461.5900000000001</ele>
        <time>2019-02-10T10:59:17Z</time>
      </trkpt>
      <trkpt lat="46.261971713975072" lon="8.020401913672686">
        <ele>2461.1100000000001</ele>
        <time>2019-02-10T10:59:26Z</time>
      </trkpt>
      <trkpt lat="46.261970708146691" lon="8.020405601710081">
        <ele>2462.5500000000002</ele>
        <time>2019-02-10T10:59:36Z</time>
      </trkpt>
      <trkpt lat="46.261968780308962" lon="8.020410127937794">
        <ele>2464</ele>
        <time>2019-02-10T10:59:46Z</time>
      </trkpt>
      <trkpt lat="46.261981856077909" lon="8.02040015347302">
        <ele>2464.48</ele>
        <time>2019-02-10T10:59:59Z</time>
      </trkpt>
      <trkpt lat="46.261988813057542" lon="8.020397135987878">
        <ele>2464.48</ele>
        <time>2019-02-10T11:00:09Z</time>
      </trkpt>
      <trkpt lat="46.261986047029495" lon="8.020390346646309">
        <ele>2461.5900000000001</ele>
        <time>2019-02-10T11:00:31Z</time>
      </trkpt>
      <trkpt lat="46.261999374255538" lon="8.020398477092385">
        <ele>2461.1100000000001</ele>
        <time>2019-02-10T11:00:48Z</time>
      </trkpt>
      <trkpt lat="46.262024855241179" lon="8.020413480699062">
        <ele>2463.04</ele>
        <time>2019-02-10T11:01:03Z</time>
      </trkpt>
      <trkpt lat="46.262036925181746" lon="8.020448265597224">
        <ele>2463.52</ele>
        <time>2019-02-10T11:01:14Z</time>
      </trkpt>
      <trkpt lat="46.262043546885252" lon="8.020446421578527">
        <ele>2462.5500000000002</ele>
        <time>2019-02-10T11:01:27Z</time>
      </trkpt>
      <trkpt lat="46.262025274336338" lon="8.020448433235288">
        <ele>2462.5500000000002</ele>
        <time>2019-02-10T11:01:36Z</time>
      </trkpt>
      <trkpt lat="46.262039691209793" lon="8.02041239105165">
        <ele>2464</ele>
        <time>2019-02-10T11:01:45Z</time>
      </trkpt>
      <trkpt lat="46.262030135840178" lon="8.020433429628611">
        <ele>2464.96</ele>
        <time>2019-02-10T11:01:59Z</time>
      </trkpt>
      <trkpt lat="46.262047905474901" lon="8.020439632236958">
        <ele>2464</ele>
        <time>2019-02-10T11:02:11Z</time>
      </trkpt>
      <trkpt lat="46.262047905474901" lon="8.020440889522433">
        <ele>2463.52</ele>
        <time>2019-02-10T11:02:23Z</time>
      </trkpt>
      <trkpt lat="46.262050420045853" lon="8.020435944199562">
        <ele>2464.96</ele>
        <time>2019-02-10T11:02:37Z</time>
      </trkpt>
      <trkpt lat="46.262046899646521" lon="8.020431753247976">
        <ele>2464.48</ele>
        <time>2019-02-10T11:02:50Z</time>
      </trkpt>
      <trkpt lat="46.262038601562381" lon="8.020408451557159">
        <ele>2464.96</ele>
        <time>2019-02-10T11:03:02Z</time>
      </trkpt>
      <trkpt lat="46.262062825262547" lon="8.020414235070348">
        <ele>2464.96</ele>
        <time>2019-02-10T11:03:10Z</time>
      </trkpt>
      <trkpt lat="46.26204296015203" lon="8.020436363294721">
        <ele>2465.4400000000001</ele>
        <time>2019-02-10T11:03:22Z</time>
      </trkpt>
      <trkpt lat="46.262045474722981" lon="8.020439380779862">
        <ele>2464</ele>
        <time>2019-02-10T11:03:35Z</time>
      </trkpt>
      <trkpt lat="46.26202343031764" lon="8.020444577559829">
        <ele>2463.04</ele>
        <time>2019-02-10T11:03:44Z</time>
      </trkpt>
      <trkpt lat="46.262005493044853" lon="8.020415073260665">
        <ele>2463.04</ele>
        <time>2019-02-10T11:03:55Z</time>
      </trkpt>
      <trkpt lat="46.261989735066891" lon="8.020409289747477">
        <ele>2462.5500000000002</ele>
        <time>2019-02-10T11:04:08Z</time>
      </trkpt>
      <trkpt lat="46.26199409365654" lon="8.020404847338796">
        <ele>2461.1100000000001</ele>
        <time>2019-02-10T11:04:18Z</time>
      </trkpt>
      <trkpt lat="46.261966684833169" lon="8.020394621416926">
        <ele>2462.0700000000002</ele>
        <time>2019-02-10T11:04:25Z</time>
      </trkpt>
      <trkpt lat="46.26191345974803" lon="8.020393196493387">
        <ele>2462.0700000000002</ele>
        <time>2019-02-10T11:04:34Z</time>
      </trkpt>
      <trkpt lat="46.261900551617146" lon="8.020406775176525">
        <ele>2462.0700000000002</ele>
        <time>2019-02-10T11:04:37Z</time>
      </trkpt>
      <trkpt lat="46.261897450312972" lon="8.020383389666677">
        <ele>2461.5900000000001</ele>
        <time>2019-02-10T11:04:46Z</time>
      </trkpt>
      <trkpt lat="46.26190030016005" lon="8.020384898409247">
        <ele>2462.5500000000002</ele>
        <time>2019-02-10T11:04:59Z</time>
      </trkpt>
      <trkpt lat="46.261901641264558" lon="8.020366877317429">
        <ele>2464.48</ele>
        <time>2019-02-10T11:05:15Z</time>
      </trkpt>
      <trkpt lat="46.26190273091197" lon="8.020352879539132">
        <ele>2464.96</ele>
        <time>2019-02-10T11:05:27Z</time>
      </trkpt>
      <trkpt lat="46.261878507211804" lon="8.02032538689673">
        <ele>2463.52</ele>
        <time>2019-02-10T11:05:35Z</time>
      </trkpt>
      <trkpt lat="46.261861827224493" lon="8.020305270329118">
        <ele>2463.04</ele>
        <time>2019-02-10T11:05:45Z</time>
      </trkpt>
      <trkpt lat="46.261848080903292" lon="8.020260259509087">
        <ele>2462.0700000000002</ele>
        <time>2019-02-10T11:05:54Z</time>
      </trkpt>
      <trkpt lat="46.261827377602458" lon="8.020216338336468">
        <ele>2461.1100000000001</ele>
        <time>2019-02-10T11:06:03Z</time>
      </trkpt>
      <trkpt lat="46.261794352903962" lon="8.020163867622614">
        <ele>2459.1900000000001</ele>
        <time>2019-02-10T11:06:14Z</time>
      </trkpt>
      <trkpt lat="46.261746324598789" lon="8.020094716921449">
        <ele>2458.23</ele>
        <time>2019-02-10T11:06:24Z</time>
      </trkpt>
      <trkpt lat="46.261689579114318" lon="8.02002145908773">
        <ele>2455.8200000000002</ele>
        <time>2019-02-10T11:06:34Z</time>
      </trkpt>
      <trkpt lat="46.261646160855889" lon="8.019971419125795">
        <ele>2453.4200000000001</ele>
        <time>2019-02-10T11:06:44Z</time>
      </trkpt>
      <trkpt lat="46.261630905792117" lon="8.01994132809341">
        <ele>2452.46</ele>
        <time>2019-02-10T11:06:52Z</time>
      </trkpt>
      <trkpt lat="46.261616572737694" lon="8.019902938976884">
        <ele>2451.98</ele>
        <time>2019-02-10T11:07:00Z</time>
      </trkpt>
      <trkpt lat="46.261589918285608" lon="8.019851390272379">
        <ele>2451.5</ele>
        <time>2019-02-10T11:07:08Z</time>
      </trkpt>
      <trkpt lat="46.261562258005142" lon="8.01979087293148">
        <ele>2450.54</ele>
        <time>2019-02-10T11:07:15Z</time>
      </trkpt>
      <trkpt lat="46.261537112295628" lon="8.019713507965207">
        <ele>2449.0999999999999</ele>
        <time>2019-02-10T11:07:23Z</time>
      </trkpt>
      <trkpt lat="46.261520180851221" lon="8.019657852128148">
        <ele>2447.6500000000001</ele>
        <time>2019-02-10T11:07:31Z</time>
      </trkpt>
      <trkpt lat="46.261506602168083" lon="8.01962080411613">
        <ele>2447.1700000000001</ele>
        <time>2019-02-10T11:07:38Z</time>
      </trkpt>
      <trkpt lat="46.261502578854561" lon="8.019605381414294">
        <ele>2448.6199999999999</ele>
        <time>2019-02-10T11:07:51Z</time>
      </trkpt>
      <trkpt lat="46.261504255235195" lon="8.019561711698771">
        <ele>2448.1300000000001</ele>
        <time>2019-02-10T11:08:01Z</time>
      </trkpt>
      <trkpt lat="46.261475421488285" lon="8.019510079175234">
        <ele>2447.1700000000001</ele>
        <time>2019-02-10T11:08:10Z</time>
      </trkpt>
      <trkpt lat="46.261444576084614" lon="8.019424667581916">
        <ele>2444.29</ele>
        <time>2019-02-10T11:08:20Z</time>
      </trkpt>
      <trkpt lat="46.261433344334364" lon="8.019383931532502">
        <ele>2443.3299999999999</ele>
        <time>2019-02-10T11:08:30Z</time>
      </trkpt>
      <trkpt lat="46.261394452303648" lon="8.019311092793942">
        <ele>2441.8899999999999</ele>
        <time>2019-02-10T11:08:39Z</time>
      </trkpt>
      <trkpt lat="46.261380286887288" lon="8.019255101680756">
        <ele>2440.9200000000001</ele>
        <time>2019-02-10T11:08:43Z</time>
      </trkpt>
      <trkpt lat="46.261367378756404" lon="8.019221657887101">
        <ele>2440.4400000000001</ele>
        <time>2019-02-10T11:08:46Z</time>
      </trkpt>
      <trkpt lat="46.261354554444551" lon="8.019202798604965">
        <ele>2439.96</ele>
        <time>2019-02-10T11:08:48Z</time>
      </trkpt>
      <trkpt lat="46.261307615786791" lon="8.019074387848377">
        <ele>2436.5999999999999</ele>
        <time>2019-02-10T11:09:00Z</time>
      </trkpt>
      <trkpt lat="46.261298395693302" lon="8.019010433927178">
        <ele>2433.71</ele>
        <time>2019-02-10T11:09:10Z</time>
      </trkpt>
      <trkpt lat="46.261269897222519" lon="8.018982354551554">
        <ele>2432.27</ele>
        <time>2019-02-10T11:09:19Z</time>
      </trkpt>
      <trkpt lat="46.261248858645558" lon="8.018999537453055">
        <ele>2430.8299999999999</ele>
        <time>2019-02-10T11:09:29Z</time>
      </trkpt>
      <trkpt lat="46.261181300505996" lon="8.018902307376266">
        <ele>2430.3499999999999</ele>
        <time>2019-02-10T11:09:39Z</time>
      </trkpt>
      <trkpt lat="46.261120950803161" lon="8.018834497779608">
        <ele>2428.4299999999998</ele>
        <time>2019-02-10T11:09:48Z</time>
      </trkpt>
      <trkpt lat="46.261076778173447" lon="8.018753109499812">
        <ele>2425.54</ele>
        <time>2019-02-10T11:09:57Z</time>
      </trkpt>
      <trkpt lat="46.261034868657589" lon="8.01866359077394">
        <ele>2423.1399999999999</ele>
        <time>2019-02-10T11:10:08Z</time>
      </trkpt>
      <trkpt lat="46.260984912514687" lon="8.018593518063426">
        <ele>2421.2199999999998</ele>
        <time>2019-02-10T11:10:18Z</time>
      </trkpt>
      <trkpt lat="46.260945601388812" lon="8.018560577183962">
        <ele>2419.7800000000002</ele>
        <time>2019-02-10T11:10:27Z</time>
      </trkpt>
      <trkpt lat="46.260925568640232" lon="8.018528809770942">
        <ele>2417.8499999999999</ele>
        <time>2019-02-10T11:10:36Z</time>
      </trkpt>
      <trkpt lat="46.260890532284975" lon="8.018498215824366">
        <ele>2416.4099999999999</ele>
        <time>2019-02-10T11:10:45Z</time>
      </trkpt>
      <trkpt lat="46.260856920853257" lon="8.018457228317857">
        <ele>2416.4099999999999</ele>
        <time>2019-02-10T11:10:54Z</time>
      </trkpt>
      <trkpt lat="46.260817106813192" lon="8.018362345173955">
        <ele>2414.4899999999998</ele>
        <time>2019-02-10T11:11:03Z</time>
      </trkpt>
      <trkpt lat="46.260801935568452" lon="8.018320938572288">
        <ele>2412.5700000000002</ele>
        <time>2019-02-10T11:11:08Z</time>
      </trkpt>
      <trkpt lat="46.260734964162111" lon="8.018280118703842">
        <ele>2410.1599999999999</ele>
        <time>2019-02-10T11:11:19Z</time>
      </trkpt>
      <trkpt lat="46.260656677186489" lon="8.018216416239739">
        <ele>2407.2800000000002</ele>
        <time>2019-02-10T11:11:31Z</time>
      </trkpt>
      <trkpt lat="46.260594818741083" lon="8.018156820908189">
        <ele>2404.8800000000001</ele>
        <time>2019-02-10T11:11:41Z</time>
      </trkpt>
      <trkpt lat="46.260567242279649" lon="8.018049197271466">
        <ele>2401.9899999999998</ele>
        <time>2019-02-10T11:11:51Z</time>
      </trkpt>
      <trkpt lat="46.260524075478315" lon="8.017946518957615">
        <ele>2399.1100000000001</ele>
        <time>2019-02-10T11:12:02Z</time>
      </trkpt>
      <trkpt lat="46.260513011366129" lon="8.017884576693177">
        <ele>2396.6999999999998</ele>
        <time>2019-02-10T11:12:08Z</time>
      </trkpt>
      <trkpt lat="46.260520135983825" lon="8.017818108201027">
        <ele>2394.7800000000002</ele>
        <time>2019-02-10T11:12:16Z</time>
      </trkpt>
      <trkpt lat="46.260519716888666" lon="8.017790615558624">
        <ele>2394.3000000000002</ele>
        <time>2019-02-10T11:12:19Z</time>
      </trkpt>
      <trkpt lat="46.260519549250603" lon="8.0177659727633">
        <ele>2394.3000000000002</ele>
        <time>2019-02-10T11:12:21Z</time>
      </trkpt>
      <trkpt lat="46.260540839284658" lon="8.017637729644775">
        <ele>2393.3400000000001</ele>
        <time>2019-02-10T11:12:32Z</time>
      </trkpt>
      <trkpt lat="46.260525332763791" lon="8.017547121271491">
        <ele>2392.8600000000001</ele>
        <time>2019-02-10T11:12:43Z</time>
      </trkpt>
      <trkpt lat="46.260507311671972" lon="8.017475623637438">
        <ele>2392.3800000000001</ele>
        <time>2019-02-10T11:12:53Z</time>
      </trkpt>
      <trkpt lat="46.260490212589502" lon="8.017363557592034">
        <ele>2389.9699999999998</ele>
        <time>2019-02-10T11:13:05Z</time>
      </trkpt>
      <trkpt lat="46.260495912283659" lon="8.017255933955312">
        <ele>2388.5300000000002</ele>
        <time>2019-02-10T11:13:16Z</time>
      </trkpt>
      <trkpt lat="46.260490966960788" lon="8.017169097438455">
        <ele>2387.5700000000002</ele>
        <time>2019-02-10T11:13:25Z</time>
      </trkpt>
      <trkpt lat="46.260472191497684" lon="8.017052421346307">
        <ele>2385.6500000000001</ele>
        <time>2019-02-10T11:13:36Z</time>
      </trkpt>
      <trkpt lat="46.260468168184161" lon="8.017040938138962">
        <ele>2385.6500000000001</ele>
        <time>2019-02-10T11:13:37Z</time>
      </trkpt>
      <trkpt lat="46.260461881756783" lon="8.017014032229781">
        <ele>2385.1700000000001</ele>
        <time>2019-02-10T11:13:39Z</time>
      </trkpt>
      <trkpt lat="46.260432628914714" lon="8.016953347250819">
        <ele>2384.21</ele>
        <time>2019-02-10T11:13:49Z</time>
      </trkpt>
      <trkpt lat="46.260448051616549" lon="8.016951084136963">
        <ele>2382.7600000000002</ele>
        <time>2019-02-10T11:14:03Z</time>
      </trkpt>
      <trkpt lat="46.260447632521391" lon="8.016957454383373">
        <ele>2382.2800000000002</ele>
        <time>2019-02-10T11:14:17Z</time>
      </trkpt>
      <trkpt lat="46.260416284203529" lon="8.016936583444476">
        <ele>2382.7600000000002</ele>
        <time>2019-02-10T11:14:26Z</time>
      </trkpt>
      <trkpt lat="46.260373704135418" lon="8.016851004213095">
        <ele>2384.21</ele>
        <time>2019-02-10T11:14:38Z</time>
      </trkpt>
      <trkpt lat="46.260309917852283" lon="8.016749331727624">
        <ele>2384.6900000000001</ele>
        <time>2019-02-10T11:14:49Z</time>
      </trkpt>
      <trkpt lat="46.260249987244606" lon="8.016659142449498">
        <ele>2384.21</ele>
        <time>2019-02-10T11:15:00Z</time>
      </trkpt>
      <trkpt lat="46.260242527350783" lon="8.016637517139316">
        <ele>2384.21</ele>
        <time>2019-02-10T11:15:02Z</time>
      </trkpt>
      <trkpt lat="46.260191397741437" lon="8.01654975861311">
        <ele>2383.25</ele>
        <time>2019-02-10T11:15:12Z</time>
      </trkpt>
      <trkpt lat="46.260170610621572" lon="8.01650432869792">
        <ele>2382.7600000000002</ele>
        <time>2019-02-10T11:15:17Z</time>
      </trkpt>
      <trkpt lat="46.26009676605463" lon="8.016434423625469">
        <ele>2381.8000000000002</ele>
        <time>2019-02-10T11:15:27Z</time>
      </trkpt>
      <trkpt lat="46.260043289512396" lon="8.016397627070546">
        <ele>2383.25</ele>
        <time>2019-02-10T11:15:36Z</time>
      </trkpt>
      <trkpt lat="46.259972881525755" lon="8.016319256275892">
        <ele>2384.21</ele>
        <time>2019-02-10T11:15:47Z</time>
      </trkpt>
      <trkpt lat="46.25992376357317" lon="8.01624390296638">
        <ele>2383.25</ele>
        <time>2019-02-10T11:15:56Z</time>
      </trkpt>
      <trkpt lat="46.259867772459984" lon="8.016209034249187">
        <ele>2381.8000000000002</ele>
        <time>2019-02-10T11:16:06Z</time>
      </trkpt>
      <trkpt lat="46.259800465777516" lon="8.016101745888591">
        <ele>2381.3200000000002</ele>
        <time>2019-02-10T11:16:16Z</time>
      </trkpt>
      <trkpt lat="46.259790910407901" lon="8.016078947111964">
        <ele>2380.8400000000001</ele>
        <time>2019-02-10T11:16:19Z</time>
      </trkpt>
      <trkpt lat="46.259788479655981" lon="8.016064446419478">
        <ele>2379.4000000000001</ele>
        <time>2019-02-10T11:16:27Z</time>
      </trkpt>
      <trkpt lat="46.259802896529436" lon="8.016024129465222">
        <ele>2377</ele>
        <time>2019-02-10T11:16:40Z</time>
      </trkpt>
      <trkpt lat="46.259805327281356" lon="8.016053047031164">
        <ele>2377.48</ele>
        <time>2019-02-10T11:16:52Z</time>
      </trkpt>
      <trkpt lat="46.259809602051973" lon="8.016052627936006">
        <ele>2378.4400000000001</ele>
        <time>2019-02-10T11:17:08Z</time>
      </trkpt>
      <trkpt lat="46.259810524061322" lon="8.016041563823819">
        <ele>2378.4400000000001</ele>
        <time>2019-02-10T11:17:21Z</time>
      </trkpt>
      <trkpt lat="46.259807841852307" lon="8.016041480004787">
        <ele>2377.96</ele>
        <time>2019-02-10T11:17:38Z</time>
      </trkpt>
      <trkpt lat="46.259807590395212" lon="8.016053885221481">
        <ele>2377.96</ele>
        <time>2019-02-10T11:17:59Z</time>
      </trkpt>
      <trkpt lat="46.259800465777516" lon="8.016055561602116">
        <ele>2377.96</ele>
        <time>2019-02-10T11:18:10Z</time>
      </trkpt>
      <trkpt lat="46.25979870557785" lon="8.016055896878243">
        <ele>2376.52</ele>
        <time>2019-02-10T11:18:26Z</time>
      </trkpt>
      <trkpt lat="46.259799962863326" lon="8.016046676784754">
        <ele>2376.52</ele>
        <time>2019-02-10T11:18:37Z</time>
      </trkpt>
      <trkpt lat="46.259780600667" lon="8.016042485833168">
        <ele>2377</ele>
        <time>2019-02-10T11:18:46Z</time>
      </trkpt>
      <trkpt lat="46.259803818538785" lon="8.016022117808461">
        <ele>2376.04</ele>
        <time>2019-02-10T11:19:05Z</time>
      </trkpt>
      <trkpt lat="46.259808847680688" lon="8.016036953777075">
        <ele>2377.48</ele>
        <time>2019-02-10T11:19:16Z</time>
      </trkpt>
      <trkpt lat="46.259783282876015" lon="8.015997391194105">
        <ele>2377</ele>
        <time>2019-02-10T11:19:27Z</time>
      </trkpt>
      <trkpt lat="46.259761741384864" lon="8.015969647094607">
        <ele>2377.48</ele>
        <time>2019-02-10T11:19:30Z</time>
      </trkpt>
      <trkpt lat="46.259707175195217" lon="8.015863448381424">
        <ele>2377.96</ele>
        <time>2019-02-10T11:19:41Z</time>
      </trkpt>
      <trkpt lat="46.259686974808574" lon="8.015813576057553">
        <ele>2377.96</ele>
        <time>2019-02-10T11:19:46Z</time>
      </trkpt>
      <trkpt lat="46.259627882391214" lon="8.015671838074923">
        <ele>2377</ele>
        <time>2019-02-10T11:19:57Z</time>
      </trkpt>
      <trkpt lat="46.259624361991882" lon="8.015659600496292">
        <ele>2377</ele>
        <time>2019-02-10T11:19:58Z</time>
      </trkpt>
      <trkpt lat="46.259593432769179" lon="8.0156194511801">
        <ele>2377</ele>
        <time>2019-02-10T11:20:02Z</time>
      </trkpt>
      <trkpt lat="46.259528640657663" lon="8.015453740954399">
        <ele>2377.48</ele>
        <time>2019-02-10T11:20:15Z</time>
      </trkpt>
      <trkpt lat="46.259517073631287" lon="8.015426667407155">
        <ele>2377.48</ele>
        <time>2019-02-10T11:20:17Z</time>
      </trkpt>
      <trkpt lat="46.259460411965847" lon="8.01528912037611">
        <ele>2377</ele>
        <time>2019-02-10T11:20:28Z</time>
      </trkpt>
      <trkpt lat="46.259408025071025" lon="8.01516842097044">
        <ele>2376.04</ele>
        <time>2019-02-10T11:20:38Z</time>
      </trkpt>
      <trkpt lat="46.259346334263682" lon="8.015031795948744">
        <ele>2374.5900000000001</ele>
        <time>2019-02-10T11:20:49Z</time>
      </trkpt>
      <trkpt lat="46.25927584245801" lon="8.014903971925378">
        <ele>2373.1500000000001</ele>
        <time>2019-02-10T11:21:01Z</time>
      </trkpt>
      <trkpt lat="46.259214151650667" lon="8.014809843152762">
        <ele>2371.71</ele>
        <time>2019-02-10T11:21:12Z</time>
      </trkpt>
      <trkpt lat="46.259169559925795" lon="8.014752343297005">
        <ele>2370.27</ele>
        <time>2019-02-10T11:21:21Z</time>
      </trkpt>
      <trkpt lat="46.259118681773543" lon="8.014680510386825">
        <ele>2369.3099999999999</ele>
        <time>2019-02-10T11:21:32Z</time>
      </trkpt>
      <trkpt lat="46.259080460295081" lon="8.01461873576045">
        <ele>2369.3099999999999</ele>
        <time>2019-02-10T11:21:41Z</time>
      </trkpt>
      <trkpt lat="46.259017428383231" lon="8.014567103236914">
        <ele>2368.8299999999999</ele>
        <time>2019-02-10T11:21:52Z</time>
      </trkpt>
      <trkpt lat="46.258951295167208" lon="8.014508849009872">
        <ele>2367.8600000000001</ele>
        <time>2019-02-10T11:22:03Z</time>
      </trkpt>
      <trkpt lat="46.258900333195925" lon="8.014482362195849">
        <ele>2366.9000000000001</ele>
        <time>2019-02-10T11:22:13Z</time>
      </trkpt>
      <trkpt lat="46.258851299062371" lon="8.014429304748774">
        <ele>2366.4200000000001</ele>
        <time>2019-02-10T11:22:22Z</time>
      </trkpt>
      <trkpt lat="46.258779801428318" lon="8.014344144612551">
        <ele>2365.46</ele>
        <time>2019-02-10T11:22:33Z</time>
      </trkpt>
      <trkpt lat="46.258698580786586" lon="8.014263594523072">
        <ele>2363.54</ele>
        <time>2019-02-10T11:22:43Z</time>
      </trkpt>
      <trkpt lat="46.258681816980243" lon="8.014246998354793">
        <ele>2363.54</ele>
        <time>2019-02-10T11:22:45Z</time>
      </trkpt>
      <trkpt lat="46.258590454235673" lon="8.014140045270324">
        <ele>2362.5799999999999</ele>
        <time>2019-02-10T11:22:57Z</time>
      </trkpt>
      <trkpt lat="46.258518118411303" lon="8.014047173783183">
        <ele>2361.6199999999999</ele>
        <time>2019-02-10T11:23:08Z</time>
      </trkpt>
      <trkpt lat="46.258466318249702" lon="8.01395907998085">
        <ele>2360.1700000000001</ele>
        <time>2019-02-10T11:23:19Z</time>
      </trkpt>
      <trkpt lat="46.258420888334513" lon="8.013910464942455">
        <ele>2358.73</ele>
        <time>2019-02-10T11:23:28Z</time>
      </trkpt>
      <trkpt lat="46.258394652977586" lon="8.013902502134442">
        <ele>2355.3699999999999</ele>
        <time>2019-02-10T11:23:35Z</time>
      </trkpt>
      <trkpt lat="46.258407728746533" lon="8.013903424143791">
        <ele>2352</ele>
        <time>2019-02-10T11:23:38Z</time>
      </trkpt>
      <trkpt lat="46.258341344073415" lon="8.013876350596547">
        <ele>2353.4400000000001</ele>
        <time>2019-02-10T11:23:49Z</time>
      </trkpt>
      <trkpt lat="46.258235145360231" lon="8.013830166310072">
        <ele>2354.4099999999999</ele>
        <time>2019-02-10T11:24:01Z</time>
      </trkpt>
      <trkpt lat="46.258215866982937" lon="8.013820359483361">
        <ele>2353.9299999999998</ele>
        <time>2019-02-10T11:24:04Z</time>
      </trkpt>
      <trkpt lat="46.258172951638699" lon="8.013813905417919">
        <ele>2349.5999999999999</ele>
        <time>2019-02-10T11:24:09Z</time>
      </trkpt>
      <trkpt lat="46.258159875869751" lon="8.01380418241024">
        <ele>2349.5999999999999</ele>
        <time>2019-02-10T11:24:10Z</time>
      </trkpt>
      <trkpt lat="46.258100280538201" lon="8.013782557100058">
        <ele>2349.1199999999999</ele>
        <time>2019-02-10T11:24:17Z</time>
      </trkpt>
      <trkpt lat="46.258084187284112" lon="8.013779707252979">
        <ele>2347.6799999999998</ele>
        <time>2019-02-10T11:24:19Z</time>
      </trkpt>
      <trkpt lat="46.258018473163247" lon="8.013758668676019">
        <ele>2346.7199999999998</ele>
        <time>2019-02-10T11:24:28Z</time>
      </trkpt>
      <trkpt lat="46.257976144552231" lon="8.013757662847638">
        <ele>2343.8299999999999</ele>
        <time>2019-02-10T11:24:33Z</time>
      </trkpt>
      <trkpt lat="46.257972037419677" lon="8.013756154105067">
        <ele>2343.8299999999999</ele>
        <time>2019-02-10T11:24:34Z</time>
      </trkpt>
      <trkpt lat="46.257895929738879" lon="8.013736456632614">
        <ele>2340.9499999999998</ele>
        <time>2019-02-10T11:24:44Z</time>
      </trkpt>
      <trkpt lat="46.257885955274105" lon="8.013737378641963">
        <ele>2339.9899999999998</ele>
        <time>2019-02-10T11:24:46Z</time>
      </trkpt>
      <trkpt lat="46.257834658026695" lon="8.013690020889044">
        <ele>2337.0999999999999</ele>
        <time>2019-02-10T11:24:56Z</time>
      </trkpt>
      <trkpt lat="46.257835077121854" lon="8.013675855472684">
        <ele>2337.0999999999999</ele>
        <time>2019-02-10T11:25:09Z</time>
      </trkpt>
      <trkpt lat="46.257853768765926" lon="8.013686751946807">
        <ele>2335.6599999999999</ele>
        <time>2019-02-10T11:25:20Z</time>
      </trkpt>
      <trkpt lat="46.257854187861085" lon="8.013682477176189">
        <ele>2335.6599999999999</ele>
        <time>2019-02-10T11:25:45Z</time>
      </trkpt>
      <trkpt lat="46.257859133183956" lon="8.013667138293386">
        <ele>2335.6599999999999</ele>
        <time>2019-02-10T11:25:59Z</time>
      </trkpt>
      <trkpt lat="46.257800459861755" lon="8.013617768883705">
        <ele>2335.6599999999999</ele>
        <time>2019-02-10T11:26:10Z</time>
      </trkpt>
      <trkpt lat="46.257760813459754" lon="8.013575104996562">
        <ele>2335.1799999999998</ele>
        <time>2019-02-10T11:26:23Z</time>
      </trkpt>
      <trkpt lat="46.25771907158196" lon="8.013503691181541">
        <ele>2335.1799999999998</ele>
        <time>2019-02-10T11:26:32Z</time>
      </trkpt>
      <trkpt lat="46.257707504555583" lon="8.01343085244298">
        <ele>2335.1799999999998</ele>
        <time>2019-02-10T11:26:42Z</time>
      </trkpt>
      <trkpt lat="46.257691495120525" lon="8.013359773904085">
        <ele>2334.6999999999998</ele>
        <time>2019-02-10T11:26:51Z</time>
      </trkpt>
      <trkpt lat="46.257676994428039" lon="8.013289701193571">
        <ele>2334.2199999999998</ele>
        <time>2019-02-10T11:27:00Z</time>
      </trkpt>
      <trkpt lat="46.257652854546905" lon="8.013222897425294">
        <ele>2333.2600000000002</ele>
        <time>2019-02-10T11:27:09Z</time>
      </trkpt>
      <trkpt lat="46.257634665817022" lon="8.013156093657017">
        <ele>2331.8099999999999</ele>
        <time>2019-02-10T11:27:20Z</time>
      </trkpt>
      <trkpt lat="46.257625026628375" lon="8.013115441426635">
        <ele>2331.3299999999999</ele>
        <time>2019-02-10T11:27:29Z</time>
      </trkpt>
      <trkpt lat="46.257610358297825" lon="8.01304142922163">
        <ele>2329.8899999999999</ele>
        <time>2019-02-10T11:27:38Z</time>
      </trkpt>
      <trkpt lat="46.257614297792315" lon="8.013037657365203">
        <ele>2329.8899999999999</ele>
        <time>2019-02-10T11:27:49Z</time>
      </trkpt>
      <trkpt lat="46.257608765736222" lon="8.013037322089076">
        <ele>2331.3299999999999</ele>
        <time>2019-02-10T11:28:07Z</time>
      </trkpt>
      <trkpt lat="46.257601389661431" lon="8.013029191643">
        <ele>2332.7800000000002</ele>
        <time>2019-02-10T11:28:25Z</time>
      </trkpt>
      <trkpt lat="46.257609184831381" lon="8.013022486120462">
        <ele>2332.7800000000002</ele>
        <time>2019-02-10T11:28:34Z</time>
      </trkpt>
      <trkpt lat="46.257614633068442" lon="8.013017876073718">
        <ele>2334.2199999999998</ele>
        <time>2019-02-10T11:28:46Z</time>
      </trkpt>
      <trkpt lat="46.25759401358664" lon="8.01297596655786">
        <ele>2333.2600000000002</ele>
        <time>2019-02-10T11:28:56Z</time>
      </trkpt>
      <trkpt lat="46.257550343871117" lon="8.012919304892421">
        <ele>2331.8099999999999</ele>
        <time>2019-02-10T11:29:06Z</time>
      </trkpt>
      <trkpt lat="46.257548918947577" lon="8.012924417853355">
        <ele>2330.8499999999999</ele>
        <time>2019-02-10T11:29:18Z</time>
      </trkpt>
      <trkpt lat="46.257532322779298" lon="8.012889297679067">
        <ele>2331.8099999999999</ele>
        <time>2019-02-10T11:29:45Z</time>
      </trkpt>
      <trkpt lat="46.257523270323873" lon="8.012883430346847">
        <ele>2329.8899999999999</ele>
        <time>2019-02-10T11:29:50Z</time>
      </trkpt>
      <trkpt lat="46.257443558424711" lon="8.012787541374564">
        <ele>2327.0100000000002</ele>
        <time>2019-02-10T11:30:02Z</time>
      </trkpt>
      <trkpt lat="46.257358230650425" lon="8.012704309076071">
        <ele>2324.6100000000001</ele>
        <time>2019-02-10T11:30:13Z</time>
      </trkpt>
      <trkpt lat="46.257255049422383" lon="8.012621663510799">
        <ele>2322.6799999999998</ele>
        <time>2019-02-10T11:30:25Z</time>
      </trkpt>
      <trkpt lat="46.257158825173974" lon="8.012535916641355">
        <ele>2321.2399999999998</ele>
        <time>2019-02-10T11:30:37Z</time>
      </trkpt>
      <trkpt lat="46.257055811583996" lon="8.012441704049707">
        <ele>2319.8000000000002</ele>
        <time>2019-02-10T11:30:49Z</time>
      </trkpt>
      <trkpt lat="46.25697492621839" lon="8.012360986322165">
        <ele>2319.3200000000002</ele>
        <time>2019-02-10T11:30:59Z</time>
      </trkpt>
      <trkpt lat="46.256955480203032" lon="8.012346234172583">
        <ele>2319.3200000000002</ele>
        <time>2019-02-10T11:31:01Z</time>
      </trkpt>
      <trkpt lat="46.25693628564477" lon="8.012329805642366">
        <ele>2319.3200000000002</ele>
        <time>2019-02-10T11:31:03Z</time>
      </trkpt>
      <trkpt lat="46.256824051961303" lon="8.012241292744875">
        <ele>2318.8400000000001</ele>
        <time>2019-02-10T11:31:16Z</time>
      </trkpt>
      <trkpt lat="46.256810054183006" lon="8.012232827022672">
        <ele>2318.3600000000001</ele>
        <time>2019-02-10T11:31:18Z</time>
      </trkpt>
      <trkpt lat="46.256732018664479" lon="8.012127801775932">
        <ele>2316.4299999999998</ele>
        <time>2019-02-10T11:31:29Z</time>
      </trkpt>
      <trkpt lat="46.256666220724583" lon="8.012051610276103">
        <ele>2315.4699999999998</ele>
        <time>2019-02-10T11:31:39Z</time>
      </trkpt>
      <trkpt lat="46.256625317037106" lon="8.011972820386291">
        <ele>2314.0300000000002</ele>
        <time>2019-02-10T11:31:49Z</time>
      </trkpt>
      <trkpt lat="46.256543174386024" lon="8.011855138465762">
        <ele>2312.1100000000001</ele>
        <time>2019-02-10T11:32:00Z</time>
      </trkpt>
      <trkpt lat="46.256525572389364" lon="8.011835105717182">
        <ele>2310.1900000000001</ele>
        <time>2019-02-10T11:32:03Z</time>
      </trkpt>
      <trkpt lat="46.256482573226094" lon="8.011780790984631">
        <ele>2307.7800000000002</ele>
        <time>2019-02-10T11:32:10Z</time>
      </trkpt>
      <trkpt lat="46.256428342312574" lon="8.011729074642062">
        <ele>2304.4200000000001</ele>
        <time>2019-02-10T11:32:18Z</time>
      </trkpt>
      <trkpt lat="46.256343936547637" lon="8.011651458218694">
        <ele>2302.0100000000002</ele>
        <time>2019-02-10T11:32:29Z</time>
      </trkpt>
      <trkpt lat="46.256257770583034" lon="8.011583145707846">
        <ele>2300.0900000000001</ele>
        <time>2019-02-10T11:32:40Z</time>
      </trkpt>
      <trkpt lat="46.256183423101902" lon="8.011517263948917">
        <ele>2297.6900000000001</ele>
        <time>2019-02-10T11:32:51Z</time>
      </trkpt>
      <trkpt lat="46.25611636787653" lon="8.011463284492493">
        <ele>2294.3200000000002</ele>
        <time>2019-02-10T11:33:00Z</time>
      </trkpt>
      <trkpt lat="46.256015785038471" lon="8.011401006951928">
        <ele>2290.96</ele>
        <time>2019-02-10T11:33:12Z</time>
      </trkpt>
      <trkpt lat="46.255966080352664" lon="8.011353649199009">
        <ele>2290</ele>
        <time>2019-02-10T11:33:19Z</time>
      </trkpt>
      <trkpt lat="46.255867090076208" lon="8.011285923421383">
        <ele>2288.5599999999999</ele>
        <time>2019-02-10T11:33:31Z</time>
      </trkpt>
      <trkpt lat="46.255759885534644" lon="8.011207552626729">
        <ele>2286.6300000000001</ele>
        <time>2019-02-10T11:33:43Z</time>
      </trkpt>
      <trkpt lat="46.255637174472213" lon="8.01116606220603">
        <ele>2283.27</ele>
        <time>2019-02-10T11:33:55Z</time>
      </trkpt>
      <trkpt lat="46.255617057904601" lon="8.011151980608702">
        <ele>2281.3499999999999</ele>
        <time>2019-02-10T11:34:04Z</time>
      </trkpt>
      <trkpt lat="46.25562334433198" lon="8.011143179610372">
        <ele>2282.79</ele>
        <time>2019-02-10T11:34:20Z</time>
      </trkpt>
      <trkpt lat="46.25556374900043" lon="8.011180143803358">
        <ele>2282.3099999999999</ele>
        <time>2019-02-10T11:34:35Z</time>
      </trkpt>
      <trkpt lat="46.255505662411451" lon="8.011253569275141">
        <ele>2281.3499999999999</ele>
        <time>2019-02-10T11:34:43Z</time>
      </trkpt>
      <trkpt lat="46.255484875291586" lon="8.011207552626729">
        <ele>2281.3499999999999</ele>
        <time>2019-02-10T11:34:52Z</time>
      </trkpt>
      <trkpt lat="46.255492335185409" lon="8.011244684457779">
        <ele>2280.3800000000001</ele>
        <time>2019-02-10T11:35:09Z</time>
      </trkpt>
      <trkpt lat="46.255496945232153" lon="8.01122129894793">
        <ele>2280.8699999999999</ele>
        <time>2019-02-10T11:35:21Z</time>
      </trkpt>
      <trkpt lat="46.255486635491252" lon="8.011204283684492">
        <ele>2281.3499999999999</ele>
        <time>2019-02-10T11:35:35Z</time>
      </trkpt>
      <trkpt lat="46.255389992147684" lon="8.011280642822385">
        <ele>2280.3800000000001</ele>
        <time>2019-02-10T11:35:45Z</time>
      </trkpt>
      <trkpt lat="46.255308771505952" lon="8.011343758553267">
        <ele>2277.02</ele>
        <time>2019-02-10T11:35:53Z</time>
      </trkpt>
      <trkpt lat="46.255212798714638" lon="8.011416513472796">
        <ele>2276.54</ele>
        <time>2019-02-10T11:36:04Z</time>
      </trkpt>
      <trkpt lat="46.255140462890267" lon="8.011460602283478">
        <ele>2274.1399999999999</ele>
        <time>2019-02-10T11:36:14Z</time>
      </trkpt>
      <trkpt lat="46.255132835358381" lon="8.011469068005681">
        <ele>2273.1700000000001</ele>
        <time>2019-02-10T11:36:16Z</time>
      </trkpt>
      <trkpt lat="46.255061589181423" lon="8.011520532891154">
        <ele>2271.25</ele>
        <time>2019-02-10T11:36:26Z</time>
      </trkpt>
      <trkpt lat="46.254986319690943" lon="8.011547271162272">
        <ele>2268.8499999999999</ele>
        <time>2019-02-10T11:36:35Z</time>
      </trkpt>
      <trkpt lat="46.254896549507976" lon="8.011577697470784">
        <ele>2267.4099999999999</ele>
        <time>2019-02-10T11:36:45Z</time>
      </trkpt>
      <trkpt lat="46.254803678020835" lon="8.011600160971284">
        <ele>2266.4499999999998</ele>
        <time>2019-02-10T11:36:55Z</time>
      </trkpt>
      <trkpt lat="46.254708208143711" lon="8.01165665499866">
        <ele>2264.04</ele>
        <time>2019-02-10T11:37:06Z</time>
      </trkpt>
      <trkpt lat="46.25466076657176" lon="8.011643495410681">
        <ele>2263.5599999999999</ele>
        <time>2019-02-10T11:37:16Z</time>
      </trkpt>
      <trkpt lat="46.254615671932697" lon="8.011680794879794">
        <ele>2262.1199999999999</ele>
        <time>2019-02-10T11:37:22Z</time>
      </trkpt>
      <trkpt lat="46.2545948009938" lon="8.011689260601997">
        <ele>2261.6399999999999</ele>
        <time>2019-02-10T11:37:24Z</time>
      </trkpt>
      <trkpt lat="46.254518944770098" lon="8.011616757139564">
        <ele>2260.1999999999998</ele>
        <time>2019-02-10T11:37:34Z</time>
      </trkpt>
      <trkpt lat="46.254521794617176" lon="8.011522041633725">
        <ele>2260.6799999999998</ele>
        <time>2019-02-10T11:37:44Z</time>
      </trkpt>
      <trkpt lat="46.254535540938377" lon="8.011500919237733">
        <ele>2261.1599999999999</ele>
        <time>2019-02-10T11:37:52Z</time>
      </trkpt>
      <trkpt lat="46.254523890092969" lon="8.011489855125547">
        <ele>2260.6799999999998</ele>
        <time>2019-02-10T11:38:04Z</time>
      </trkpt>
      <trkpt lat="46.254541072994471" lon="8.011559089645743">
        <ele>2262.1199999999999</ele>
        <time>2019-02-10T11:38:15Z</time>
      </trkpt>
      <trkpt lat="46.254547694697976" lon="8.011641064658761">
        <ele>2261.6399999999999</ele>
        <time>2019-02-10T11:38:23Z</time>
      </trkpt>
      <trkpt lat="46.254548532888293" lon="8.01163075491786">
        <ele>2260.6799999999998</ele>
        <time>2019-02-10T11:38:34Z</time>
      </trkpt>
      <trkpt lat="46.254550125449896" lon="8.011603765189648">
        <ele>2261.6399999999999</ele>
        <time>2019-02-10T11:38:50Z</time>
      </trkpt>
      <trkpt lat="46.254531182348728" lon="8.011503601446748">
        <ele>2261.6399999999999</ele>
        <time>2019-02-10T11:38:58Z</time>
      </trkpt>
      <trkpt lat="46.254518358036876" lon="8.011460937559605">
        <ele>2261.6399999999999</ele>
        <time>2019-02-10T11:39:02Z</time>
      </trkpt>
      <trkpt lat="46.254504611715674" lon="8.011377118527889">
        <ele>2262.5999999999999</ele>
        <time>2019-02-10T11:39:09Z</time>
      </trkpt>
      <trkpt lat="46.254472592845559" lon="8.011272931471467">
        <ele>2262.5999999999999</ele>
        <time>2019-02-10T11:39:16Z</time>
      </trkpt>
      <trkpt lat="46.254449877887964" lon="8.011215766891837">
        <ele>2262.5999999999999</ele>
        <time>2019-02-10T11:39:20Z</time>
      </trkpt>
      <trkpt lat="46.25442230142653" lon="8.011169163510203">
        <ele>2262.1199999999999</ele>
        <time>2019-02-10T11:39:24Z</time>
      </trkpt>
      <trkpt lat="46.254318198189139" lon="8.011044692248106">
        <ele>2259.7199999999998</ele>
        <time>2019-02-10T11:39:36Z</time>
      </trkpt>
      <trkpt lat="46.254235804080963" lon="8.010934302583337">
        <ele>2257.79</ele>
        <time>2019-02-10T11:39:46Z</time>
      </trkpt>
      <trkpt lat="46.254151985049248" lon="8.010839503258467">
        <ele>2254.9099999999999</ele>
        <time>2019-02-10T11:39:57Z</time>
      </trkpt>
      <trkpt lat="46.254089623689651" lon="8.010757779702544">
        <ele>2252.5100000000002</ele>
        <time>2019-02-10T11:40:08Z</time>
      </trkpt>
      <trkpt lat="46.254104543477297" lon="8.010774040594697">
        <ele>2252.0300000000002</ele>
        <time>2019-02-10T11:40:19Z</time>
      </trkpt>
      <trkpt lat="46.254109991714358" lon="8.010774375870824">
        <ele>2252.9899999999998</ele>
        <time>2019-02-10T11:40:28Z</time>
      </trkpt>
      <trkpt lat="46.254137651994824" lon="8.010774459689856">
        <ele>2254.4299999999998</ele>
        <time>2019-02-10T11:40:45Z</time>
      </trkpt>
      <trkpt lat="46.254096832126379" lon="8.010749649256468">
        <ele>2252.9899999999998</ele>
        <time>2019-02-10T11:40:52Z</time>
      </trkpt>
      <trkpt lat="46.254081325605512" lon="8.010726012289524">
        <ele>2253.9499999999998</ele>
        <time>2019-02-10T11:41:07Z</time>
      </trkpt>
      <trkpt lat="46.254042852669954" lon="8.010712182149291">
        <ele>2252.9899999999998</ele>
        <time>2019-02-10T11:41:18Z</time>
      </trkpt>
      <trkpt lat="46.254042014479637" lon="8.010672116652131">
        <ele>2252.0300000000002</ele>
        <time>2019-02-10T11:41:33Z</time>
      </trkpt>
      <trkpt lat="46.254006139934063" lon="8.010662561282516">
        <ele>2251.0599999999999</ele>
        <time>2019-02-10T11:41:37Z</time>
      </trkpt>
      <trkpt lat="46.253877058625221" lon="8.010608330368996">
        <ele>2247.6999999999998</ele>
        <time>2019-02-10T11:41:50Z</time>
      </trkpt>
      <trkpt lat="46.253756945952773" lon="8.010558122768998">
        <ele>2244.3299999999999</ele>
        <time>2019-02-10T11:42:01Z</time>
      </trkpt>
      <trkpt lat="46.253732219338417" lon="8.010545130819082">
        <ele>2243.8499999999999</ele>
        <time>2019-02-10T11:42:04Z</time>
      </trkpt>
      <trkpt lat="46.253715371713042" lon="8.010530881583691">
        <ele>2243.8499999999999</ele>
        <time>2019-02-10T11:42:06Z</time>
      </trkpt>
      <trkpt lat="46.253644628450274" lon="8.010476231575012">
        <ele>2241.9299999999998</ele>
        <time>2019-02-10T11:42:14Z</time>
      </trkpt>
      <trkpt lat="46.253625769168139" lon="8.010465418919921">
        <ele>2240.9699999999998</ele>
        <time>2019-02-10T11:42:16Z</time>
      </trkpt>
      <trkpt lat="46.253554774448276" lon="8.010416300967336">
        <ele>2238.0900000000001</ele>
        <time>2019-02-10T11:42:25Z</time>
      </trkpt>
      <trkpt lat="46.253464249894023" lon="8.010356705635786">
        <ele>2234.7199999999998</ele>
        <time>2019-02-10T11:42:35Z</time>
      </trkpt>
      <trkpt lat="46.253388309851289" lon="8.010295098647475">
        <ele>2231.3600000000001</ele>
        <time>2019-02-10T11:42:44Z</time>
      </trkpt>
      <trkpt lat="46.253300048410892" lon="8.01024254411459">
        <ele>2228.4699999999998</ele>
        <time>2019-02-10T11:42:54Z</time>
      </trkpt>
      <trkpt lat="46.253241458907723" lon="8.010215051472187">
        <ele>2226.0700000000002</ele>
        <time>2019-02-10T11:43:04Z</time>
      </trkpt>
      <trkpt lat="46.253194687888026" lon="8.010203735902906">
        <ele>2224.6300000000001</ele>
        <time>2019-02-10T11:43:13Z</time>
      </trkpt>
      <trkpt lat="46.253116903826594" lon="8.010178841650486">
        <ele>2221.2600000000002</ele>
        <time>2019-02-10T11:43:23Z</time>
      </trkpt>
      <trkpt lat="46.253089578822255" lon="8.01020784303546">
        <ele>2216.9400000000001</ele>
        <time>2019-02-10T11:43:27Z</time>
      </trkpt>
      <trkpt lat="46.253061583265662" lon="8.010244891047478">
        <ele>2211.6500000000001</ele>
        <time>2019-02-10T11:43:30Z</time>
      </trkpt>
      <trkpt lat="46.253032749518752" lon="8.010269617661834">
        <ele>2207.8099999999999</ele>
        <time>2019-02-10T11:43:33Z</time>
      </trkpt>
      <trkpt lat="46.253013722598553" lon="8.010280514135957">
        <ele>2206.8400000000001</ele>
        <time>2019-02-10T11:43:35Z</time>
      </trkpt>
      <trkpt lat="46.25298379920423" lon="8.010300043970347">
        <ele>2205.4000000000001</ele>
        <time>2019-02-10T11:43:39Z</time>
      </trkpt>
      <trkpt lat="46.252906350418925" lon="8.010296607390046">
        <ele>2202.52</ele>
        <time>2019-02-10T11:43:49Z</time>
      </trkpt>
      <trkpt lat="46.252904254943132" lon="8.010266600176692">
        <ele>2202.52</ele>
        <time>2019-02-10T11:43:53Z</time>
      </trkpt>
      <trkpt lat="46.252852790057659" lon="8.010309766978025">
        <ele>2201.5599999999999</ele>
        <time>2019-02-10T11:44:02Z</time>
      </trkpt>
      <trkpt lat="46.252850024029613" lon="8.010306498035789">
        <ele>2202.52</ele>
        <time>2019-02-10T11:44:12Z</time>
      </trkpt>
      <trkpt lat="46.252841725945473" lon="8.010301636531949">
        <ele>2203.48</ele>
        <time>2019-02-10T11:44:20Z</time>
      </trkpt>
      <trkpt lat="46.252837534993887" lon="8.010293925181031">
        <ele>2204.9200000000001</ele>
        <time>2019-02-10T11:44:29Z</time>
      </trkpt>
      <trkpt lat="46.252829488366842" lon="8.010304570198059">
        <ele>2206.3600000000001</ele>
        <time>2019-02-10T11:44:37Z</time>
      </trkpt>
      <trkpt lat="46.252838624641299" lon="8.010296942666173">
        <ele>2208.77</ele>
        <time>2019-02-10T11:44:52Z</time>
      </trkpt>
      <trkpt lat="46.252830661833286" lon="8.010310772806406">
        <ele>2210.21</ele>
        <time>2019-02-10T11:45:05Z</time>
      </trkpt>
      <trkpt lat="46.25281766988337" lon="8.010345306247473">
        <ele>2211.1700000000001</ele>
        <time>2019-02-10T11:45:16Z</time>
      </trkpt>
      <trkpt lat="46.252759080380201" lon="8.010384030640125">
        <ele>2207.8099999999999</ele>
        <time>2019-02-10T11:45:24Z</time>
      </trkpt>
      <trkpt lat="46.252738041803241" lon="8.010386796668172">
        <ele>2207.8099999999999</ele>
        <time>2019-02-10T11:45:26Z</time>
      </trkpt>
      <trkpt lat="46.252657994627953" lon="8.010344132781029">
        <ele>2207.3200000000002</ele>
        <time>2019-02-10T11:45:37Z</time>
      </trkpt>
      <trkpt lat="46.252656653523445" lon="8.010344551876187">
        <ele>2208.29</ele>
        <time>2019-02-10T11:45:52Z</time>
      </trkpt>
      <trkpt lat="46.252667801454663" lon="8.010340863838792">
        <ele>2208.29</ele>
        <time>2019-02-10T11:45:59Z</time>
      </trkpt>
      <trkpt lat="46.252621952444315" lon="8.010424431413412">
        <ele>2209.73</ele>
        <time>2019-02-10T11:46:15Z</time>
      </trkpt>
      <trkpt lat="46.252619354054332" lon="8.010435160249472">
        <ele>2212.6100000000001</ele>
        <time>2019-02-10T11:46:27Z</time>
      </trkpt>
      <trkpt lat="46.252625556662679" lon="8.010427448898554">
        <ele>2215.0100000000002</ele>
        <time>2019-02-10T11:46:51Z</time>
      </trkpt>
      <trkpt lat="46.252657659351826" lon="8.01036081276834">
        <ele>2211.6500000000001</ele>
        <time>2019-02-10T11:47:08Z</time>
      </trkpt>
      <trkpt lat="46.252654977142811" lon="8.010344384238124">
        <ele>2208.77</ele>
        <time>2019-02-10T11:47:21Z</time>
      </trkpt>
      <trkpt lat="46.252651289105415" lon="8.010336002334952">
        <ele>2208.77</ele>
        <time>2019-02-10T11:47:24Z</time>
      </trkpt>
      <trkpt lat="46.252656653523445" lon="8.01035737618804">
        <ele>2209.25</ele>
        <time>2019-02-10T11:47:34Z</time>
      </trkpt>
      <trkpt lat="46.252654977142811" lon="8.010358298197389">
        <ele>2211.6500000000001</ele>
        <time>2019-02-10T11:47:40Z</time>
      </trkpt>
      <trkpt lat="46.252599572762847" lon="8.010439854115248">
        <ele>2208.29</ele>
        <time>2019-02-10T11:47:54Z</time>
      </trkpt>
      <trkpt lat="46.252569314092398" lon="8.010470028966665">
        <ele>2209.25</ele>
        <time>2019-02-10T11:48:18Z</time>
      </trkpt>
      <trkpt lat="46.252572247758508" lon="8.010454438626766">
        <ele>2212.6100000000001</ele>
        <time>2019-02-10T11:48:33Z</time>
      </trkpt>
      <trkpt lat="46.252569984644651" lon="8.010439937934279">
        <ele>2213.5700000000002</ele>
        <time>2019-02-10T11:48:35Z</time>
      </trkpt>
      <trkpt lat="46.25256503932178" lon="8.01040724851191">
        <ele>2215.5</ele>
        <time>2019-02-10T11:48:53Z</time>
      </trkpt>
      <trkpt lat="46.252592783421278" lon="8.010393083095551">
        <ele>2212.1300000000001</ele>
        <time>2019-02-10T11:49:03Z</time>
      </trkpt>
      <trkpt lat="46.252590101212263" lon="8.010399118065834">
        <ele>2212.1300000000001</ele>
        <time>2019-02-10T11:49:04Z</time>
      </trkpt>
      <trkpt lat="46.252602590247989" lon="8.010351257398725">
        <ele>2208.77</ele>
        <time>2019-02-10T11:49:11Z</time>
      </trkpt>
      <trkpt lat="46.252618851140141" lon="8.010329296812415">
        <ele>2205.4000000000001</ele>
        <time>2019-02-10T11:49:15Z</time>
      </trkpt>
      <trkpt lat="46.252624047920108" lon="8.010328374803066">
        <ele>2205.4000000000001</ele>
        <time>2019-02-10T11:49:16Z</time>
      </trkpt>
      <trkpt lat="46.252681296318769" lon="8.010306162759662">
        <ele>2203.96</ele>
        <time>2019-02-10T11:49:42Z</time>
      </trkpt>
      <trkpt lat="46.252641230821609" lon="8.010360058397055">
        <ele>2201.0799999999999</ele>
        <time>2019-02-10T11:49:59Z</time>
      </trkpt>
      <trkpt lat="46.252610636875033" lon="8.010401548817754">
        <ele>2204.4400000000001</ele>
        <time>2019-02-10T11:50:22Z</time>
      </trkpt>
      <trkpt lat="46.252617761492729" lon="8.010409343987703">
        <ele>2205.8800000000001</ele>
        <time>2019-02-10T11:50:26Z</time>
      </trkpt>
      <trkpt lat="46.252597980201244" lon="8.010414289310575">
        <ele>2209.25</ele>
        <time>2019-02-10T11:50:43Z</time>
      </trkpt>
      <trkpt lat="46.252580042928457" lon="8.010445553809404">
        <ele>2212.1300000000001</ele>
        <time>2019-02-10T11:50:55Z</time>
      </trkpt>
      <trkpt lat="46.252571996301413" lon="8.010453181341291">
        <ele>2215.5</ele>
        <time>2019-02-10T11:51:10Z</time>
      </trkpt>
      <trkpt lat="46.252572415396571" lon="8.01045753993094">
        <ele>2218.3800000000001</ele>
        <time>2019-02-10T11:51:19Z</time>
      </trkpt>
      <trkpt lat="46.252591609954834" lon="8.010399285703898">
        <ele>2221.2600000000002</ele>
        <time>2019-02-10T11:51:46Z</time>
      </trkpt>
      <trkpt lat="46.252587335184216" lon="8.010410098358989">
        <ele>2220.7800000000002</ele>
        <time>2019-02-10T11:52:05Z</time>
      </trkpt>
      <trkpt lat="46.252632346004248" lon="8.010340863838792">
        <ele>2217.4200000000001</ele>
        <time>2019-02-10T11:52:24Z</time>
      </trkpt>
      <trkpt lat="46.252663275226951" lon="8.010310102254152">
        <ele>2214.5300000000002</ele>
        <time>2019-02-10T11:52:39Z</time>
      </trkpt>
      <trkpt lat="46.252661934122443" lon="8.010287722572684">
        <ele>2211.1700000000001</ele>
        <time>2019-02-10T11:52:51Z</time>
      </trkpt>
      <trkpt lat="46.252660341560841" lon="8.010293170809746">
        <ele>2207.8099999999999</ele>
        <time>2019-02-10T11:53:06Z</time>
      </trkpt>
      <trkpt lat="46.252652462571859" lon="8.010326279327273">
        <ele>2204.9200000000001</ele>
        <time>2019-02-10T11:53:15Z</time>
      </trkpt>
      <trkpt lat="46.252677692100406" lon="8.010309766978025">
        <ele>2203.96</ele>
        <time>2019-02-10T11:53:34Z</time>
      </trkpt>
      <trkpt lat="46.252652714028955" lon="8.010301720350981">
        <ele>2203.96</ele>
        <time>2019-02-10T11:53:57Z</time>
      </trkpt>
      <trkpt lat="46.25266226939857" lon="8.010271210223436">
        <ele>2205.8800000000001</ele>
        <time>2019-02-10T11:54:03Z</time>
      </trkpt>
      <trkpt lat="46.252651121467352" lon="8.010290320962668">
        <ele>2206.3600000000001</ele>
        <time>2019-02-10T11:54:18Z</time>
      </trkpt>
      <trkpt lat="46.252666711807251" lon="8.010301468893886">
        <ele>2207.3200000000002</ele>
        <time>2019-02-10T11:54:48Z</time>
      </trkpt>
      <trkpt lat="46.252665957435966" lon="8.010313371196389">
        <ele>2208.29</ele>
        <time>2019-02-10T11:55:12Z</time>
      </trkpt>
      <trkpt lat="46.252666879445314" lon="8.010321753099561">
        <ele>2206.8400000000001</ele>
        <time>2019-02-10T11:55:19Z</time>
      </trkpt>
      <trkpt lat="46.252676183357835" lon="8.010325189679861">
        <ele>2204.9200000000001</ele>
        <time>2019-02-10T11:55:27Z</time>
      </trkpt>
      <trkpt lat="46.25267987139523" lon="8.010335247963667">
        <ele>2201.5599999999999</ele>
        <time>2019-02-10T11:55:36Z</time>
      </trkpt>
      <trkpt lat="46.252678111195564" lon="8.01034128293395">
        <ele>2199.6300000000001</ele>
        <time>2019-02-10T11:55:40Z</time>
      </trkpt>
      <trkpt lat="46.252675428986549" lon="8.010324686765671">
        <ele>2200.1100000000001</ele>
        <time>2019-02-10T11:56:06Z</time>
      </trkpt>
      <trkpt lat="46.252672495320439" lon="8.010318987071514">
        <ele>2202.04</ele>
        <time>2019-02-10T11:56:38Z</time>
      </trkpt>
      <trkpt lat="46.25267643481493" lon="8.010331392288208">
        <ele>2199.6300000000001</ele>
        <time>2019-02-10T11:57:07Z</time>
      </trkpt>
      <trkpt lat="46.252685319632292" lon="8.010301636531949">
        <ele>2202.52</ele>
        <time>2019-02-10T11:57:38Z</time>
      </trkpt>
      <trkpt lat="46.252686074003577" lon="8.01033197902143">
        <ele>2200.5900000000001</ele>
        <time>2019-02-10T11:58:05Z</time>
      </trkpt>
      <trkpt lat="46.252680709585547" lon="8.010343294590712">
        <ele>2200.5900000000001</ele>
        <time>2019-02-10T11:58:29Z</time>
      </trkpt>
      <trkpt lat="46.25268867239356" lon="8.010411104187369">
        <ele>2200.1100000000001</ele>
        <time>2019-02-10T11:58:36Z</time>
      </trkpt>
      <trkpt lat="46.252700071781874" lon="8.010444296523929">
        <ele>2198.6700000000001</ele>
        <time>2019-02-10T11:58:45Z</time>
      </trkpt>
      <trkpt lat="46.252712141722441" lon="8.010442033410072">
        <ele>2197.23</ele>
        <time>2019-02-10T11:59:09Z</time>
      </trkpt>
      <trkpt lat="46.252682721242309" lon="8.010440608486533">
        <ele>2198.1900000000001</ele>
        <time>2019-02-10T11:59:33Z</time>
      </trkpt>
      <trkpt lat="46.252685403451324" lon="8.010452426970005">
        <ele>2195.79</ele>
        <time>2019-02-10T12:00:00Z</time>
      </trkpt>
      <trkpt lat="46.252689594402909" lon="8.010472292080522">
        <ele>2194.8299999999999</ele>
        <time>2019-02-10T12:00:21Z</time>
      </trkpt>
      <trkpt lat="46.25268716365099" lon="8.010465670377016">
        <ele>2194.3499999999999</ele>
        <time>2019-02-10T12:00:44Z</time>
      </trkpt>
      <trkpt lat="46.252670986577868" lon="8.010479668155313">
        <ele>2195.79</ele>
        <time>2019-02-10T12:01:13Z</time>
      </trkpt>
      <trkpt lat="46.252669477835298" lon="8.010466592386365">
        <ele>2199.1500000000001</ele>
        <time>2019-02-10T12:01:31Z</time>
      </trkpt>
      <trkpt lat="46.252667801454663" lon="8.010470112785697">
        <ele>2200.5900000000001</ele>
        <time>2019-02-10T12:01:59Z</time>
      </trkpt>
      <trkpt lat="46.252654306590557" lon="8.010496515780687">
        <ele>2202.04</ele>
        <time>2019-02-10T12:02:23Z</time>
      </trkpt>
      <trkpt lat="46.252637626603246" lon="8.010524176061153">
        <ele>2204.9200000000001</ele>
        <time>2019-02-10T12:02:39Z</time>
      </trkpt>
      <trkpt lat="46.252621030434966" lon="8.010531216859818">
        <ele>2206.3600000000001</ele>
        <time>2019-02-10T12:03:06Z</time>
      </trkpt>
      <trkpt lat="46.252629160881042" lon="8.010529456660152">
        <ele>2207.3200000000002</ele>
        <time>2019-02-10T12:03:44Z</time>
      </trkpt>
      <trkpt lat="46.252641985192895" lon="8.010514620691538">
        <ele>2203.48</ele>
        <time>2019-02-10T12:04:00Z</time>
      </trkpt>
      <trkpt lat="46.252656988799572" lon="8.010483188554645">
        <ele>2200.5900000000001</ele>
        <time>2019-02-10T12:04:08Z</time>
      </trkpt>
      <trkpt lat="46.2526710703969" lon="8.010475728660822">
        <ele>2197.23</ele>
        <time>2019-02-10T12:04:30Z</time>
      </trkpt>
      <trkpt lat="46.252687582746148" lon="8.010456198826432">
        <ele>2194.3499999999999</ele>
        <time>2019-02-10T12:05:06Z</time>
      </trkpt>
      <trkpt lat="46.252692276611924" lon="8.010459635406733">
        <ele>2197.23</ele>
        <time>2019-02-10T12:05:39Z</time>
      </trkpt>
      <trkpt lat="46.252685151994228" lon="8.010468520224094">
        <ele>2198.1900000000001</ele>
        <time>2019-02-10T12:06:08Z</time>
      </trkpt>
      <trkpt lat="46.252677775919437" lon="8.010475812479854">
        <ele>2201.0799999999999</ele>
        <time>2019-02-10T12:06:46Z</time>
      </trkpt>
      <trkpt lat="46.252677189186215" lon="8.010477488860488">
        <ele>2198.6700000000001</ele>
        <time>2019-02-10T12:07:23Z</time>
      </trkpt>
      <trkpt lat="46.252683140337467" lon="8.010479081422091">
        <ele>2196.75</ele>
        <time>2019-02-10T12:07:29Z</time>
      </trkpt>
      <trkpt lat="46.252695126459002" lon="8.010479668155313">
        <ele>2193.3899999999999</ele>
        <time>2019-02-10T12:08:02Z</time>
      </trkpt>
      <trkpt lat="46.252677859738469" lon="8.010471621528268">
        <ele>2194.3499999999999</ele>
        <time>2019-02-10T12:08:36Z</time>
      </trkpt>
      <trkpt lat="46.252671489492059" lon="8.010473297908902">
        <ele>2197.23</ele>
        <time>2019-02-10T12:09:10Z</time>
      </trkpt>
      <trkpt lat="46.252665957435966" lon="8.010451924055815">
        <ele>2199.6300000000001</ele>
        <time>2019-02-10T12:09:50Z</time>
      </trkpt>
      <trkpt lat="46.252647014334798" lon="8.010462149977684">
        <ele>2201.0799999999999</ele>
        <time>2019-02-10T12:10:35Z</time>
      </trkpt>
      <trkpt lat="46.252627233043313" lon="8.010508334264159">
        <ele>2203.96</ele>
        <time>2019-02-10T12:10:53Z</time>
      </trkpt>
      <trkpt lat="46.252623712643981" lon="8.010506993159652">
        <ele>2207.3200000000002</ele>
        <time>2019-02-10T12:11:02Z</time>
      </trkpt>
      <trkpt lat="46.252641817554832" lon="8.010477321222425">
        <ele>2203.96</ele>
        <time>2019-02-10T12:11:22Z</time>
      </trkpt>
      <trkpt lat="46.252645757049322" lon="8.010459970682859">
        <ele>2201.0799999999999</ele>
        <time>2019-02-10T12:11:41Z</time>
      </trkpt>
      <trkpt lat="46.252656988799572" lon="8.010457120835781">
        <ele>2200.5900000000001</ele>
        <time>2019-02-10T12:12:06Z</time>
      </trkpt>
      <trkpt lat="46.252661682665348" lon="8.01046977750957">
        <ele>2197.71</ele>
        <time>2019-02-10T12:12:38Z</time>
      </trkpt>
      <trkpt lat="46.252670483663678" lon="8.010454941540957">
        <ele>2197.71</ele>
        <time>2019-02-10T12:13:19Z</time>
      </trkpt>
      <trkpt lat="46.252667717635632" lon="8.010460054501891">
        <ele>2195.3099999999999</ele>
        <time>2019-02-10T12:13:52Z</time>
      </trkpt>
      <trkpt lat="46.252658162266016" lon="8.010485284030438">
        <ele>2197.23</ele>
        <time>2019-02-10T12:14:30Z</time>
      </trkpt>
      <trkpt lat="46.252638967707753" lon="8.010506657883525">
        <ele>2200.1100000000001</ele>
        <time>2019-02-10T12:15:02Z</time>
      </trkpt>
      <trkpt lat="46.252628322690725" lon="8.010522751137614">
        <ele>2203.48</ele>
        <time>2019-02-10T12:15:21Z</time>
      </trkpt>
      <trkpt lat="46.252654725685716" lon="8.010476818308234">
        <ele>2202.04</ele>
        <time>2019-02-10T12:15:51Z</time>
      </trkpt>
      <trkpt lat="46.252659000456333" lon="8.010488217696548">
        <ele>2199.6300000000001</ele>
        <time>2019-02-10T12:16:24Z</time>
      </trkpt>
      <trkpt lat="46.252672746777534" lon="8.010485703125596">
        <ele>2198.1900000000001</ele>
        <time>2019-02-10T12:17:02Z</time>
      </trkpt>
      <trkpt lat="46.252675680443645" lon="8.010471034795046">
        <ele>2195.3099999999999</ele>
        <time>2019-02-10T12:17:42Z</time>
      </trkpt>
      <trkpt lat="46.252681044861674" lon="8.010484613478184">
        <ele>2196.75</ele>
        <time>2019-02-10T12:18:07Z</time>
      </trkpt>
      <trkpt lat="46.252682050690055" lon="8.010482434183359">
        <ele>2199.6300000000001</ele>
        <time>2019-02-10T12:18:37Z</time>
      </trkpt>
      <trkpt lat="46.252672160044312" lon="8.010477488860488">
        <ele>2201.0799999999999</ele>
        <time>2019-02-10T12:19:19Z</time>
      </trkpt>
      <trkpt lat="46.252668052911758" lon="8.01046290434897">
        <ele>2201.0799999999999</ele>
        <time>2019-02-10T12:20:00Z</time>
      </trkpt>
      <trkpt lat="46.252679536119103" lon="8.01046391017735">
        <ele>2198.1900000000001</ele>
        <time>2019-02-10T12:20:44Z</time>
      </trkpt>
      <trkpt lat="46.252665119245648" lon="8.010456366464496">
        <ele>2201.5599999999999</ele>
        <time>2019-02-10T12:21:04Z</time>
      </trkpt>
      <trkpt lat="46.252663610503078" lon="8.010456366464496">
        <ele>2204.4400000000001</ele>
        <time>2019-02-10T12:21:39Z</time>
      </trkpt>
      <trkpt lat="46.252656653523445" lon="8.010458964854479">
        <ele>2203.96</ele>
        <time>2019-02-10T12:22:22Z</time>
      </trkpt>
      <trkpt lat="46.252640895545483" lon="8.010482182726264">
        <ele>2203</ele>
        <time>2019-02-10T12:22:52Z</time>
      </trkpt>
      <trkpt lat="46.252638632431626" lon="8.010483775287867">
        <ele>2203</ele>
        <time>2019-02-10T12:23:21Z</time>
      </trkpt>
      <trkpt lat="46.252622539177537" lon="8.010513447225094">
        <ele>2206.3600000000001</ele>
        <time>2019-02-10T12:23:48Z</time>
      </trkpt>
      <trkpt lat="46.252607787027955" lon="8.010523589327931">
        <ele>2209.25</ele>
        <time>2019-02-10T12:24:11Z</time>
      </trkpt>
      <trkpt lat="46.252595381811261" lon="8.01053331233561">
        <ele>2212.1300000000001</ele>
        <time>2019-02-10T12:24:29Z</time>
      </trkpt>
      <trkpt lat="46.252588424831629" lon="8.010560469701886">
        <ele>2215.5</ele>
        <time>2019-02-10T12:25:02Z</time>
      </trkpt>
      <trkpt lat="46.252580713480711" lon="8.010565582662821">
        <ele>2213.5700000000002</ele>
        <time>2019-02-10T12:25:08Z</time>
      </trkpt>
      <trkpt lat="46.252605440095067" lon="8.010550662875176">
        <ele>2210.6900000000001</ele>
        <time>2019-02-10T12:25:33Z</time>
      </trkpt>
      <trkpt lat="46.252602590247989" lon="8.010539179667831">
        <ele>2206.8400000000001</ele>
        <time>2019-02-10T12:25:50Z</time>
      </trkpt>
      <trkpt lat="46.252604434266686" lon="8.010538928210735">
        <ele>2206.8400000000001</ele>
        <time>2019-02-10T12:25:51Z</time>
      </trkpt>
      <trkpt lat="46.252641817554832" lon="8.010496515780687">
        <ele>2204.4400000000001</ele>
        <time>2019-02-10T12:26:24Z</time>
      </trkpt>
      <trkpt lat="46.25263293273747" lon="8.010502634570003">
        <ele>2205.4000000000001</ele>
        <time>2019-02-10T12:27:05Z</time>
      </trkpt>
      <trkpt lat="46.252617593854666" lon="8.010515794157982">
        <ele>2206.3600000000001</ele>
        <time>2019-02-10T12:27:33Z</time>
      </trkpt>
      <trkpt lat="46.252625305205584" lon="8.010532557964325">
        <ele>2206.3600000000001</ele>
        <time>2019-02-10T12:28:07Z</time>
      </trkpt>
      <trkpt lat="46.252602590247989" lon="8.010564828291535">
        <ele>2206.8400000000001</ele>
        <time>2019-02-10T12:28:37Z</time>
      </trkpt>
      <trkpt lat="46.25258264131844" lon="8.01057580858469">
        <ele>2210.21</ele>
        <time>2019-02-10T12:28:53Z</time>
      </trkpt>
      <trkpt lat="46.252604266628623" lon="8.010523840785027">
        <ele>2206.3600000000001</ele>
        <time>2019-02-10T12:29:17Z</time>
      </trkpt>
      <trkpt lat="46.252618851140141" lon="8.010505484417081">
        <ele>2203.48</ele>
        <time>2019-02-10T12:29:20Z</time>
      </trkpt>
      <trkpt lat="46.25262463465333" lon="8.010499114170671">
        <ele>2202.52</ele>
        <time>2019-02-10T12:29:22Z</time>
      </trkpt>
      <trkpt lat="46.252637794241309" lon="8.010489642620087">
        <ele>2200.1100000000001</ele>
        <time>2019-02-10T12:29:31Z</time>
      </trkpt>
      <trkpt lat="46.252648187801242" lon="8.010499197989702">
        <ele>2198.1900000000001</ele>
        <time>2019-02-10T12:30:03Z</time>
      </trkpt>
      <trkpt lat="46.252661431208253" lon="8.010479751974344">
        <ele>2200.5900000000001</ele>
        <time>2019-02-10T12:30:34Z</time>
      </trkpt>
      <trkpt lat="46.252653300762177" lon="8.01049031317234">
        <ele>2197.23</ele>
        <time>2019-02-10T12:30:53Z</time>
      </trkpt>
      <trkpt lat="46.252644583582878" lon="8.010493498295546">
        <ele>2196.27</ele>
        <time>2019-02-10T12:31:20Z</time>
      </trkpt>
      <trkpt lat="46.252667801454663" lon="8.010457456111908">
        <ele>2198.6700000000001</ele>
        <time>2019-02-10T12:31:48Z</time>
      </trkpt>
      <trkpt lat="46.252669142559171" lon="8.010442117229104">
        <ele>2200.1100000000001</ele>
        <time>2019-02-10T12:32:34Z</time>
      </trkpt>
      <trkpt lat="46.25267350114882" lon="8.01045024767518">
        <ele>2203</ele>
        <time>2019-02-10T12:33:13Z</time>
      </trkpt>
      <trkpt lat="46.252673584967852" lon="8.01046684384346">
        <ele>2199.6300000000001</ele>
        <time>2019-02-10T12:33:33Z</time>
      </trkpt>
      <trkpt lat="46.252684397622943" lon="8.010452007874847">
        <ele>2197.71</ele>
        <time>2019-02-10T12:34:13Z</time>
      </trkpt>
      <trkpt lat="46.252679200842977" lon="8.010451504960656">
        <ele>2198.1900000000001</ele>
        <time>2019-02-10T12:34:47Z</time>
      </trkpt>
      <trkpt lat="46.252683224156499" lon="8.0104526784271">
        <ele>2197.23</ele>
        <time>2019-02-10T12:35:07Z</time>
      </trkpt>
      <trkpt lat="46.2526710703969" lon="8.010443458333612">
        <ele>2200.5900000000001</ele>
        <time>2019-02-10T12:35:41Z</time>
      </trkpt>
      <trkpt lat="46.252680374309421" lon="8.010456198826432">
        <ele>2201.0799999999999</ele>
        <time>2019-02-10T12:36:17Z</time>
      </trkpt>
      <trkpt lat="46.252685068175197" lon="8.010444799438119">
        <ele>2197.71</ele>
        <time>2019-02-10T12:36:41Z</time>
      </trkpt>
      <trkpt lat="46.252691438421607" lon="8.010436417534947">
        <ele>2194.8299999999999</ele>
        <time>2019-02-10T12:37:07Z</time>
      </trkpt>
      <trkpt lat="46.252688504755497" lon="8.010453181341291">
        <ele>2194.8299999999999</ele>
        <time>2019-02-10T12:37:34Z</time>
      </trkpt>
      <trkpt lat="46.252692779526114" lon="8.010442368686199">
        <ele>2196.75</ele>
        <time>2019-02-10T12:38:08Z</time>
      </trkpt>
      <trkpt lat="46.25267593190074" lon="8.010436920449138">
        <ele>2197.23</ele>
        <time>2019-02-10T12:38:36Z</time>
      </trkpt>
      <trkpt lat="46.252682888880372" lon="8.010456366464496">
        <ele>2198.1900000000001</ele>
        <time>2019-02-10T12:39:04Z</time>
      </trkpt>
      <trkpt lat="46.252667717635632" lon="8.010452343150973">
        <ele>2197.71</ele>
        <time>2019-02-10T12:39:32Z</time>
      </trkpt>
      <trkpt lat="46.252670399844646" lon="8.010452343150973">
        <ele>2198.1900000000001</ele>
        <time>2019-02-10T12:39:59Z</time>
      </trkpt>
      <trkpt lat="46.252687498927116" lon="8.010458964854479">
        <ele>2198.1900000000001</ele>
        <time>2019-02-10T12:40:20Z</time>
      </trkpt>
      <trkpt lat="46.252699820324779" lon="8.010446643456817">
        <ele>2195.79</ele>
        <time>2019-02-10T12:40:47Z</time>
      </trkpt>
      <trkpt lat="46.252696635201573" lon="8.010442536324263">
        <ele>2196.27</ele>
        <time>2019-02-10T12:41:13Z</time>
      </trkpt>
      <trkpt lat="46.252685654908419" lon="8.010445469990373">
        <ele>2195.3099999999999</ele>
        <time>2019-02-10T12:41:39Z</time>
      </trkpt>
      <trkpt lat="46.252676015719771" lon="8.010482098907232">
        <ele>2195.3099999999999</ele>
        <time>2019-02-10T12:42:03Z</time>
      </trkpt>
      <trkpt lat="46.252662939950824" lon="8.010451253503561">
        <ele>2196.75</ele>
        <time>2019-02-10T12:42:35Z</time>
      </trkpt>
      <trkpt lat="46.252675093710423" lon="8.010445889085531">
        <ele>2196.27</ele>
        <time>2019-02-10T12:42:59Z</time>
      </trkpt>
      <trkpt lat="46.252677524462342" lon="8.010459970682859">
        <ele>2196.27</ele>
        <time>2019-02-10T12:43:26Z</time>
      </trkpt>
      <trkpt lat="46.252686157822609" lon="8.010458461940289">
        <ele>2195.79</ele>
        <time>2019-02-10T12:43:56Z</time>
      </trkpt>
      <trkpt lat="46.252698395401239" lon="8.010474471375346">
        <ele>2194.8299999999999</ele>
        <time>2019-02-10T12:44:28Z</time>
      </trkpt>
      <trkpt lat="46.252700490877032" lon="8.010470028966665">
        <ele>2194.3499999999999</ele>
        <time>2019-02-10T12:45:01Z</time>
      </trkpt>
      <trkpt lat="46.252695713192225" lon="8.010457623749971">
        <ele>2195.3099999999999</ele>
        <time>2019-02-10T12:45:36Z</time>
      </trkpt>
      <trkpt lat="46.252702670171857" lon="8.010475393384695">
        <ele>2192.9000000000001</ele>
        <time>2019-02-10T12:46:13Z</time>
      </trkpt>
      <trkpt lat="46.252700071781874" lon="8.010475058108568">
        <ele>2196.27</ele>
        <time>2019-02-10T12:46:37Z</time>
      </trkpt>
      <trkpt lat="46.252688085660338" lon="8.010476734489203">
        <ele>2197.71</ele>
        <time>2019-02-10T12:47:12Z</time>
      </trkpt>
      <trkpt lat="46.25267936848104" lon="8.010456701740623">
        <ele>2200.1100000000001</ele>
        <time>2019-02-10T12:47:52Z</time>
      </trkpt>
      <trkpt lat="46.252681044861674" lon="8.010452007874847">
        <ele>2203.48</ele>
        <time>2019-02-10T12:48:15Z</time>
      </trkpt>
      <trkpt lat="46.252676602452993" lon="8.010504059493542">
        <ele>2206.3600000000001</ele>
        <time>2019-02-10T12:48:55Z</time>
      </trkpt>
      <trkpt lat="46.252669310197234" lon="8.010493498295546">
        <ele>2208.29</ele>
        <time>2019-02-10T12:49:29Z</time>
      </trkpt>
      <trkpt lat="46.252664448693395" lon="8.010482937097549">
        <ele>2206.8400000000001</ele>
        <time>2019-02-10T12:50:00Z</time>
      </trkpt>
      <trkpt lat="46.252681547775865" lon="8.010477405041456">
        <ele>2203.48</ele>
        <time>2019-02-10T12:50:14Z</time>
      </trkpt>
      <trkpt lat="46.252684481441975" lon="8.010477237403393">
        <ele>2203.48</ele>
        <time>2019-02-10T12:50:15Z</time>
      </trkpt>
      <trkpt lat="46.252689594402909" lon="8.010452091693878">
        <ele>2200.1100000000001</ele>
        <time>2019-02-10T12:50:28Z</time>
      </trkpt>
      <trkpt lat="46.25266470015049" lon="8.010445553809404">
        <ele>2203</ele>
        <time>2019-02-10T12:50:45Z</time>
      </trkpt>
      <trkpt lat="46.252656066790223" lon="8.010445637628436">
        <ele>2203.96</ele>
        <time>2019-02-10T12:51:16Z</time>
      </trkpt>
      <trkpt lat="46.252680458128452" lon="8.010451169684529">
        <ele>2200.5900000000001</ele>
        <time>2019-02-10T12:51:33Z</time>
      </trkpt>
      <trkpt lat="46.252692528069019" lon="8.010445302352309">
        <ele>2197.23</ele>
        <time>2019-02-10T12:51:45Z</time>
      </trkpt>
      <trkpt lat="46.252703089267015" lon="8.010456366464496">
        <ele>2198.6700000000001</ele>
        <time>2019-02-10T12:52:16Z</time>
      </trkpt>
      <trkpt lat="46.252712812274694" lon="8.010507747530937">
        <ele>2199.6300000000001</ele>
        <time>2019-02-10T12:52:43Z</time>
      </trkpt>
      <trkpt lat="46.252728318795562" lon="8.010472292080522">
        <ele>2196.75</ele>
        <time>2019-02-10T12:53:01Z</time>
      </trkpt>
      <trkpt lat="46.252714237198234" lon="8.010453013703227">
        <ele>2195.3099999999999</ele>
        <time>2019-02-10T12:53:36Z</time>
      </trkpt>
      <trkpt lat="46.252713399007916" lon="8.010466005653143">
        <ele>2196.75</ele>
        <time>2019-02-10T12:54:02Z</time>
      </trkpt>
      <trkpt lat="46.252712896093726" lon="8.010486541315913">
        <ele>2200.1100000000001</ele>
        <time>2019-02-10T12:54:21Z</time>
      </trkpt>
      <trkpt lat="46.252701664343476" lon="8.010499617084861">
        <ele>2201.0799999999999</ele>
        <time>2019-02-10T12:54:58Z</time>
      </trkpt>
      <trkpt lat="46.252698982134461" lon="8.010509675368667">
        <ele>2204.4400000000001</ele>
        <time>2019-02-10T12:55:25Z</time>
      </trkpt>
      <trkpt lat="46.252691270783544" lon="8.010486708953977">
        <ele>2205.4000000000001</ele>
        <time>2019-02-10T12:55:50Z</time>
      </trkpt>
      <trkpt lat="46.25268473289907" lon="8.010494839400053">
        <ele>2205.8800000000001</ele>
        <time>2019-02-10T12:56:22Z</time>
      </trkpt>
      <trkpt lat="46.25268867239356" lon="8.010492157191038">
        <ele>2206.8400000000001</ele>
        <time>2019-02-10T12:56:48Z</time>
      </trkpt>
      <trkpt lat="46.25267593190074" lon="8.01049567759037">
        <ele>2209.25</ele>
        <time>2019-02-10T12:57:07Z</time>
      </trkpt>
      <trkpt lat="46.252726977691054" lon="8.010520739480853">
        <ele>2208.29</ele>
        <time>2019-02-10T12:57:31Z</time>
      </trkpt>
      <trkpt lat="46.252716248854995" lon="8.010514453053474">
        <ele>2205.8800000000001</ele>
        <time>2019-02-10T12:57:39Z</time>
      </trkpt>
      <trkpt lat="46.25268766656518" lon="8.010420324280858">
        <ele>2202.52</ele>
        <time>2019-02-10T12:58:01Z</time>
      </trkpt>
      <trkpt lat="46.252692192792892" lon="8.01042577251792">
        <ele>2199.1500000000001</ele>
        <time>2019-02-10T12:58:06Z</time>
      </trkpt>
      <trkpt lat="46.252692192792892" lon="8.010417222976685">
        <ele>2197.71</ele>
        <time>2019-02-10T12:58:09Z</time>
      </trkpt>
      <trkpt lat="46.252665454521775" lon="8.010403895750642">
        <ele>2196.75</ele>
        <time>2019-02-10T12:58:38Z</time>
      </trkpt>
      <trkpt lat="46.252665622159839" lon="8.010434154421091">
        <ele>2197.71</ele>
        <time>2019-02-10T12:58:54Z</time>
      </trkpt>
      <trkpt lat="46.252687247470021" lon="8.010442955419421">
        <ele>2198.6700000000001</ele>
        <time>2019-02-10T12:59:02Z</time>
      </trkpt>
      <trkpt lat="46.25270476564765" lon="8.010462736710906">
        <ele>2196.27</ele>
        <time>2019-02-10T12:59:20Z</time>
      </trkpt>
      <trkpt lat="46.25270719639957" lon="8.010457959026098">
        <ele>2196.75</ele>
        <time>2019-02-10T12:59:28Z</time>
      </trkpt>
      <trkpt lat="46.252697724848986" lon="8.010465083643794">
        <ele>2196.75</ele>
        <time>2019-02-10T12:59:37Z</time>
      </trkpt>
      <trkpt lat="46.252683307975531" lon="8.010426945984364">
        <ele>2196.27</ele>
        <time>2019-02-10T12:59:40Z</time>
      </trkpt>
      <trkpt lat="46.252615330740809" lon="8.010345138609409">
        <ele>2196.75</ele>
        <time>2019-02-10T12:59:47Z</time>
      </trkpt>
      <trkpt lat="46.252574175596237" lon="8.010294009000063">
        <ele>2196.27</ele>
        <time>2019-02-10T12:59:52Z</time>
      </trkpt>
      <trkpt lat="46.252523884177208" lon="8.010232988744974">
        <ele>2196.75</ele>
        <time>2019-02-10T12:59:58Z</time>
      </trkpt>
      <trkpt lat="46.25249220058322" lon="8.010131567716599">
        <ele>2195.79</ele>
        <time>2019-02-10T13:00:08Z</time>
      </trkpt>
      <trkpt lat="46.25247267074883" lon="8.010109271854162">
        <ele>2195.3099999999999</ele>
        <time>2019-02-10T13:00:17Z</time>
      </trkpt>
      <trkpt lat="46.252471916377544" lon="8.010108768939972">
        <ele>2196.27</ele>
        <time>2019-02-10T13:00:30Z</time>
      </trkpt>
      <trkpt lat="46.252493038773537" lon="8.01005051471293">
        <ele>2195.79</ele>
        <time>2019-02-10T13:00:38Z</time>
      </trkpt>
      <trkpt lat="46.252531344071031" lon="8.010066691786051">
        <ele>2195.3099999999999</ele>
        <time>2019-02-10T13:00:42Z</time>
      </trkpt>
      <trkpt lat="46.252583982422948" lon="8.010109690949321">
        <ele>2196.27</ele>
        <time>2019-02-10T13:00:52Z</time>
      </trkpt>
      <trkpt lat="46.252572331577539" lon="8.010034002363682">
        <ele>2197.71</ele>
        <time>2019-02-10T13:01:01Z</time>
      </trkpt>
      <trkpt lat="46.252582054585218" lon="8.009984632954001">
        <ele>2198.1900000000001</ele>
        <time>2019-02-10T13:01:10Z</time>
      </trkpt>
      <trkpt lat="46.252596387639642" lon="8.009935598820448">
        <ele>2199.1500000000001</ele>
        <time>2019-02-10T13:01:19Z</time>
      </trkpt>
      <trkpt lat="46.252603679895401" lon="8.009883463382721">
        <ele>2201.5599999999999</ele>
        <time>2019-02-10T13:01:28Z</time>
      </trkpt>
      <trkpt lat="46.252609044313431" lon="8.009874159470201">
        <ele>2201.0799999999999</ele>
        <time>2019-02-10T13:01:36Z</time>
      </trkpt>
      <trkpt lat="46.252602338790894" lon="8.009832333773375">
        <ele>2202.52</ele>
        <time>2019-02-10T13:01:43Z</time>
      </trkpt>
      <trkpt lat="46.252606278285384" lon="8.009799728170037">
        <ele>2204.9200000000001</ele>
        <time>2019-02-10T13:01:51Z</time>
      </trkpt>
      <trkpt lat="46.252616504207253" lon="8.009792603552342">
        <ele>2205.8800000000001</ele>
        <time>2019-02-10T13:02:01Z</time>
      </trkpt>
      <trkpt lat="46.252628406509757" lon="8.009801404550672">
        <ele>2206.3600000000001</ele>
        <time>2019-02-10T13:02:13Z</time>
      </trkpt>
      <trkpt lat="46.252621365711093" lon="8.009782126173377">
        <ele>2206.3600000000001</ele>
        <time>2019-02-10T13:02:24Z</time>
      </trkpt>
      <trkpt lat="46.25257970765233" lon="8.009757567197084">
        <ele>2204.9200000000001</ele>
        <time>2019-02-10T13:02:34Z</time>
      </trkpt>
      <trkpt lat="46.252496894448996" lon="8.009668048471212">
        <ele>2204.4400000000001</ele>
        <time>2019-02-10T13:02:46Z</time>
      </trkpt>
      <trkpt lat="46.252480549737811" lon="8.009656649082899">
        <ele>2203.96</ele>
        <time>2019-02-10T13:02:48Z</time>
      </trkpt>
      <trkpt lat="46.252453224733472" lon="8.009608956053853">
        <ele>2203</ele>
        <time>2019-02-10T13:02:58Z</time>
      </trkpt>
      <trkpt lat="46.252413410693407" lon="8.009598730131984">
        <ele>2203.48</ele>
        <time>2019-02-10T13:03:10Z</time>
      </trkpt>
      <trkpt lat="46.252368148416281" lon="8.009601747617126">
        <ele>2201.5599999999999</ele>
        <time>2019-02-10T13:03:19Z</time>
      </trkpt>
      <trkpt lat="46.252316851168871" lon="8.009633179754019">
        <ele>2200.1100000000001</ele>
        <time>2019-02-10T13:03:28Z</time>
      </trkpt>
      <trkpt lat="46.252316096797585" lon="8.009681208059192">
        <ele>2198.1900000000001</ele>
        <time>2019-02-10T13:03:39Z</time>
      </trkpt>
      <trkpt lat="46.252319784834981" lon="8.009692607447505">
        <ele>2199.1500000000001</ele>
        <time>2019-02-10T13:03:51Z</time>
      </trkpt>
      <trkpt lat="46.252323891967535" lon="8.009703084826469">
        <ele>2201.0799999999999</ele>
        <time>2019-02-10T13:04:05Z</time>
      </trkpt>
      <trkpt lat="46.252296399325132" lon="8.009701743721962">
        <ele>2200.1100000000001</ele>
        <time>2019-02-10T13:04:15Z</time>
      </trkpt>
      <trkpt lat="46.252267314121127" lon="8.009740635752678">
        <ele>2199.1500000000001</ele>
        <time>2019-02-10T13:04:25Z</time>
      </trkpt>
      <trkpt lat="46.252259770408273" lon="8.009744742885232">
        <ele>2198.6700000000001</ele>
        <time>2019-02-10T13:04:26Z</time>
      </trkpt>
      <trkpt lat="46.252178130671382" lon="8.00974071957171">
        <ele>2197.71</ele>
        <time>2019-02-10T13:04:35Z</time>
      </trkpt>
      <trkpt lat="46.252092970535159" lon="8.009711215272546">
        <ele>2197.23</ele>
        <time>2019-02-10T13:04:45Z</time>
      </trkpt>
      <trkpt lat="46.252095736563206" lon="8.009698139503598">
        <ele>2195.79</ele>
        <time>2019-02-10T13:04:56Z</time>
      </trkpt>
      <trkpt lat="46.252046031877398" lon="8.009696714580059">
        <ele>2194.8299999999999</ele>
        <time>2019-02-10T13:05:06Z</time>
      </trkpt>
      <trkpt lat="46.251979479566216" lon="8.009665617719293">
        <ele>2194.8299999999999</ele>
        <time>2019-02-10T13:05:14Z</time>
      </trkpt>
      <trkpt lat="46.251909490674734" lon="8.009624378755689">
        <ele>2195.3099999999999</ele>
        <time>2019-02-10T13:05:24Z</time>
      </trkpt>
      <trkpt lat="46.251903455704451" lon="8.009640639647842">
        <ele>2194.8299999999999</ele>
        <time>2019-02-10T13:05:35Z</time>
      </trkpt>
      <trkpt lat="46.251810919493437" lon="8.009603004902601">
        <ele>2192.4200000000001</ele>
        <time>2019-02-10T13:05:46Z</time>
      </trkpt>
      <trkpt lat="46.251734895631671" lon="8.009575176984072">
        <ele>2190.02</ele>
        <time>2019-02-10T13:05:55Z</time>
      </trkpt>
      <trkpt lat="46.251645628362894" lon="8.009561011567712">
        <ele>2188.5799999999999</ele>
        <time>2019-02-10T13:06:05Z</time>
      </trkpt>
      <trkpt lat="46.251634480431676" lon="8.009554808959365">
        <ele>2188.5799999999999</ele>
        <time>2019-02-10T13:06:06Z</time>
      </trkpt>
      <trkpt lat="46.251589888706803" lon="8.009538715705276">
        <ele>2188.5799999999999</ele>
        <time>2019-02-10T13:06:11Z</time>
      </trkpt>
      <trkpt lat="46.251508751884103" lon="8.009499656036496">
        <ele>2188.0999999999999</ele>
        <time>2019-02-10T13:06:21Z</time>
      </trkpt>
      <trkpt lat="46.251494167372584" lon="8.009472247213125">
        <ele>2188.0999999999999</ele>
        <time>2019-02-10T13:06:24Z</time>
      </trkpt>
      <trkpt lat="46.25147539190948" lon="8.009422877803445">
        <ele>2188.5799999999999</ele>
        <time>2019-02-10T13:06:28Z</time>
      </trkpt>
      <trkpt lat="46.251389477401972" lon="8.009302765130997">
        <ele>2189.0599999999999</ele>
        <time>2019-02-10T13:06:40Z</time>
      </trkpt>
      <trkpt lat="46.251336587592959" lon="8.009224813431501">
        <ele>2189.0599999999999</ele>
        <time>2019-02-10T13:06:49Z</time>
      </trkpt>
      <trkpt lat="46.251293839886785" lon="8.009180473163724">
        <ele>2188.5799999999999</ele>
        <time>2019-02-10T13:06:55Z</time>
      </trkpt>
      <trkpt lat="46.25125746242702" lon="8.009146023541689">
        <ele>2188.0999999999999</ele>
        <time>2019-02-10T13:07:00Z</time>
      </trkpt>
      <trkpt lat="46.251225862652063" lon="8.009127834811807">
        <ele>2187.6199999999999</ele>
        <time>2019-02-10T13:07:05Z</time>
      </trkpt>
      <trkpt lat="46.251193843781948" lon="8.009125823155046">
        <ele>2187.1399999999999</ele>
        <time>2019-02-10T13:07:08Z</time>
      </trkpt>
      <trkpt lat="46.25116216018796" lon="8.009106544777751">
        <ele>2186.6599999999999</ele>
        <time>2019-02-10T13:07:12Z</time>
      </trkpt>
      <trkpt lat="46.251127207651734" lon="8.009090619161725">
        <ele>2186.1799999999998</ele>
        <time>2019-02-10T13:07:16Z</time>
      </trkpt>
      <trkpt lat="46.25108253210783" lon="8.009042590856552">
        <ele>2184.25</ele>
        <time>2019-02-10T13:07:26Z</time>
      </trkpt>
      <trkpt lat="46.251077838242054" lon="8.008999424055219">
        <ele>2183.29</ele>
        <time>2019-02-10T13:07:38Z</time>
      </trkpt>
      <trkpt lat="46.25106493011117" lon="8.008991461247206">
        <ele>2183.29</ele>
        <time>2019-02-10T13:07:40Z</time>
      </trkpt>
      <trkpt lat="46.250976165756583" lon="8.008997831493616">
        <ele>2181.3699999999999</ele>
        <time>2019-02-10T13:07:51Z</time>
      </trkpt>
      <trkpt lat="46.250963173806667" lon="8.009043596684933">
        <ele>2179.9299999999998</ele>
        <time>2019-02-10T13:07:55Z</time>
      </trkpt>
      <trkpt lat="46.250934926792979" lon="8.009193297475576">
        <ele>2176.5599999999999</ele>
        <time>2019-02-10T13:08:07Z</time>
      </trkpt>
      <trkpt lat="46.250886730849743" lon="8.00928776152432">
        <ele>2174.6399999999999</ele>
        <time>2019-02-10T13:08:17Z</time>
      </trkpt>
      <trkpt lat="46.250843144953251" lon="8.009389685466886">
        <ele>2174.1599999999999</ele>
        <time>2019-02-10T13:08:27Z</time>
      </trkpt>
      <trkpt lat="46.250806767493486" lon="8.009513150900602">
        <ele>2173.6799999999998</ele>
        <time>2019-02-10T13:08:39Z</time>
      </trkpt>
      <trkpt lat="46.250770809128881" lon="8.00961758941412">
        <ele>2172.7199999999998</ele>
        <time>2019-02-10T13:08:48Z</time>
      </trkpt>
      <trkpt lat="46.25074926763773" lon="8.009718591347337">
        <ele>2171.7600000000002</ele>
        <time>2019-02-10T13:08:57Z</time>
      </trkpt>
      <trkpt lat="46.250738287344575" lon="8.009779695421457">
        <ele>2169.3499999999999</ele>
        <time>2019-02-10T13:09:06Z</time>
      </trkpt>
      <trkpt lat="46.250724289566278" lon="8.009837027639151">
        <ele>2169.3499999999999</ele>
        <time>2019-02-10T13:09:19Z</time>
      </trkpt>
      <trkpt lat="46.250724708661437" lon="8.009958313778043">
        <ele>2169.8299999999999</ele>
        <time>2019-02-10T13:09:29Z</time>
      </trkpt>
      <trkpt lat="46.250738622620702" lon="8.010084126144648">
        <ele>2170.3099999999999</ele>
        <time>2019-02-10T13:09:39Z</time>
      </trkpt>
      <trkpt lat="46.250769216567278" lon="8.010151097550988">
        <ele>2170.79</ele>
        <time>2019-02-10T13:09:44Z</time>
      </trkpt>
      <trkpt lat="46.250777933746576" lon="8.010182194411755">
        <ele>2170.3099999999999</ele>
        <time>2019-02-10T13:09:46Z</time>
      </trkpt>
      <trkpt lat="46.250824118033051" lon="8.010312113910914">
        <ele>2171.27</ele>
        <time>2019-02-10T13:09:56Z</time>
      </trkpt>
      <trkpt lat="46.25086166895926" lon="8.01042627543211">
        <ele>2171.7600000000002</ele>
        <time>2019-02-10T13:10:06Z</time>
      </trkpt>
      <trkpt lat="46.250912798568606" lon="8.010539514943957">
        <ele>2172.2399999999998</ele>
        <time>2019-02-10T13:10:17Z</time>
      </trkpt>
      <trkpt lat="46.250958815217018" lon="8.010601624846458">
        <ele>2171.27</ele>
        <time>2019-02-10T13:10:27Z</time>
      </trkpt>
      <trkpt lat="46.251002484932542" lon="8.010662896558642">
        <ele>2170.79</ele>
        <time>2019-02-10T13:10:38Z</time>
      </trkpt>
      <trkpt lat="46.251048082485795" lon="8.010747553780675">
        <ele>2169.8299999999999</ele>
        <time>2019-02-10T13:10:48Z</time>
      </trkpt>
      <trkpt lat="46.251056799665093" lon="8.010837491601706">
        <ele>2167.4299999999998</ele>
        <time>2019-02-10T13:10:58Z</time>
      </trkpt>
      <trkpt lat="46.251079933717847" lon="8.010950479656458">
        <ele>2165.0300000000002</ele>
        <time>2019-02-10T13:11:09Z</time>
      </trkpt>
      <trkpt lat="46.251081693917513" lon="8.011039244011045">
        <ele>2163.0999999999999</ele>
        <time>2019-02-10T13:11:19Z</time>
      </trkpt>
      <trkpt lat="46.251084292307496" lon="8.011140078306198">
        <ele>2160.2199999999998</ele>
        <time>2019-02-10T13:11:29Z</time>
      </trkpt>
      <trkpt lat="46.251081861555576" lon="8.011243594810367">
        <ele>2157.3400000000001</ele>
        <time>2019-02-10T13:11:41Z</time>
      </trkpt>
      <trkpt lat="46.25109183602035" lon="8.011329844594002">
        <ele>2154.4499999999998</ele>
        <time>2019-02-10T13:11:52Z</time>
      </trkpt>
      <trkpt lat="46.251080185174942" lon="8.011412406340241">
        <ele>2151.5700000000002</ele>
        <time>2019-02-10T13:12:02Z</time>
      </trkpt>
      <trkpt lat="46.251098290085793" lon="8.011491028591991">
        <ele>2149.6500000000001</ele>
        <time>2019-02-10T13:12:12Z</time>
      </trkpt>
      <trkpt lat="46.251125447452068" lon="8.011578368023038">
        <ele>2146.2800000000002</ele>
        <time>2019-02-10T13:12:21Z</time>
      </trkpt>
      <trkpt lat="46.251159813255072" lon="8.01168842241168">
        <ele>2143.8800000000001</ele>
        <time>2019-02-10T13:12:32Z</time>
      </trkpt>
      <trkpt lat="46.251175571233034" lon="8.011799985542893">
        <ele>2140.5100000000002</ele>
        <time>2019-02-10T13:12:43Z</time>
      </trkpt>
      <trkpt lat="46.251223515719175" lon="8.011881625279784">
        <ele>2139.0700000000002</ele>
        <time>2019-02-10T13:12:54Z</time>
      </trkpt>
      <trkpt lat="46.251262659206986" lon="8.011962762102485">
        <ele>2137.1500000000001</ele>
        <time>2019-02-10T13:13:04Z</time>
      </trkpt>
      <trkpt lat="46.251298114657402" lon="8.012061333283782">
        <ele>2134.7399999999998</ele>
        <time>2019-02-10T13:13:15Z</time>
      </trkpt>
      <trkpt lat="46.251310100778937" lon="8.012076336890459">
        <ele>2133.3000000000002</ele>
        <time>2019-02-10T13:13:23Z</time>
      </trkpt>
      <trkpt lat="46.251361481845379" lon="8.012171387672424">
        <ele>2131.3800000000001</ele>
        <time>2019-02-10T13:13:32Z</time>
      </trkpt>
      <trkpt lat="46.251412192359567" lon="8.012311197817326">
        <ele>2131.8600000000001</ele>
        <time>2019-02-10T13:13:44Z</time>
      </trkpt>
      <trkpt lat="46.251440271735191" lon="8.012454276904464">
        <ele>2131.3800000000001</ele>
        <time>2019-02-10T13:13:56Z</time>
      </trkpt>
      <trkpt lat="46.251470278948545" lon="8.012612191960216">
        <ele>2129.9400000000001</ele>
        <time>2019-02-10T13:14:09Z</time>
      </trkpt>
      <trkpt lat="46.251505902037024" lon="8.012743201106787">
        <ele>2128.5</ele>
        <time>2019-02-10T13:14:20Z</time>
      </trkpt>
      <trkpt lat="46.251517049968243" lon="8.012817464768887">
        <ele>2128.5</ele>
        <time>2019-02-10T13:14:26Z</time>
      </trkpt>
      <trkpt lat="46.251534400507808" lon="8.012998178601265">
        <ele>2126.5700000000002</ele>
        <time>2019-02-10T13:14:39Z</time>
      </trkpt>
      <trkpt lat="46.251552756875753" lon="8.013121308758855">
        <ele>2125.6100000000001</ele>
        <time>2019-02-10T13:14:49Z</time>
      </trkpt>
      <trkpt lat="46.251573627814651" lon="8.013254078105092">
        <ele>2125.1300000000001</ele>
        <time>2019-02-10T13:14:59Z</time>
      </trkpt>
      <trkpt lat="46.251577148213983" lon="8.013276290148497">
        <ele>2125.6100000000001</ele>
        <time>2019-02-10T13:15:01Z</time>
      </trkpt>
      <trkpt lat="46.251580333337188" lon="8.013321217149496">
        <ele>2124.6500000000001</ele>
        <time>2019-02-10T13:15:05Z</time>
      </trkpt>
      <trkpt lat="46.251597516238689" lon="8.013486340641975">
        <ele>2124.1700000000001</ele>
        <time>2019-02-10T13:15:17Z</time>
      </trkpt>
      <trkpt lat="46.25160631723702" lon="8.013628330081701">
        <ele>2123.6900000000001</ele>
        <time>2019-02-10T13:15:29Z</time>
      </trkpt>
      <trkpt lat="46.251616710796952" lon="8.013762272894383">
        <ele>2124.1700000000001</ele>
        <time>2019-02-10T13:15:40Z</time>
      </trkpt>
      <trkpt lat="46.251620734110475" lon="8.013905351981521">
        <ele>2124.6500000000001</ele>
        <time>2019-02-10T13:15:51Z</time>
      </trkpt>
      <trkpt lat="46.251636324450374" lon="8.014027057215571">
        <ele>2124.6500000000001</ele>
        <time>2019-02-10T13:16:01Z</time>
      </trkpt>
      <trkpt lat="46.251656860113144" lon="8.014153372496367">
        <ele>2125.1300000000001</ele>
        <time>2019-02-10T13:16:12Z</time>
      </trkpt>
      <trkpt lat="46.251675635576248" lon="8.014279268682003">
        <ele>2126.5700000000002</ele>
        <time>2019-02-10T13:16:22Z</time>
      </trkpt>
      <trkpt lat="46.251692986115813" lon="8.014424191787839">
        <ele>2127.5300000000002</ele>
        <time>2019-02-10T13:16:33Z</time>
      </trkpt>
      <trkpt lat="46.251699943095446" lon="8.0145747307688">
        <ele>2128.5</ele>
        <time>2019-02-10T13:16:44Z</time>
      </trkpt>
      <trkpt lat="46.251699104905128" lon="8.014626363292337">
        <ele>2128.5</ele>
        <time>2019-02-10T13:16:48Z</time>
      </trkpt>
      <trkpt lat="46.251707319170237" lon="8.0147750582546">
        <ele>2128.02</ele>
        <time>2019-02-10T13:16:59Z</time>
      </trkpt>
      <trkpt lat="46.251724753528833" lon="8.014891566708684">
        <ele>2128.5</ele>
        <time>2019-02-10T13:17:09Z</time>
      </trkpt>
      <trkpt lat="46.251729698851705" lon="8.014941355213523">
        <ele>2128.02</ele>
        <time>2019-02-10T13:17:18Z</time>
      </trkpt>
      <trkpt lat="46.251720897853374" lon="8.015065155923367">
        <ele>2126.5700000000002</ele>
        <time>2019-02-10T13:17:29Z</time>
      </trkpt>
      <trkpt lat="46.251698350533843" lon="8.01503992639482">
        <ele>2122.73</ele>
        <time>2019-02-10T13:17:32Z</time>
      </trkpt>
      <trkpt lat="46.251702709123492" lon="8.015090804547072">
        <ele>2120.8099999999999</ele>
        <time>2019-02-10T13:17:44Z</time>
      </trkpt>
      <trkpt lat="46.251692064106464" lon="8.015226675197482">
        <ele>2119.3600000000001</ele>
        <time>2019-02-10T13:17:57Z</time>
      </trkpt>
      <trkpt lat="46.251651495695114" lon="8.015217036008835">
        <ele>2116.96</ele>
        <time>2019-02-10T13:18:07Z</time>
      </trkpt>
      <trkpt lat="46.251634564250708" lon="8.01518895663321">
        <ele>2117.9200000000001</ele>
        <time>2019-02-10T13:18:21Z</time>
      </trkpt>
      <trkpt lat="46.251657530665398" lon="8.015175294131041">
        <ele>2117.4400000000001</ele>
        <time>2019-02-10T13:18:36Z</time>
      </trkpt>
      <trkpt lat="46.251652501523495" lon="8.015168085694313">
        <ele>2117.4400000000001</ele>
        <time>2019-02-10T13:18:45Z</time>
      </trkpt>
      <trkpt lat="46.251661805436015" lon="8.015221059322357">
        <ele>2117.9200000000001</ele>
        <time>2019-02-10T13:18:55Z</time>
      </trkpt>
      <trkpt lat="46.251660967245698" lon="8.015219969674945">
        <ele>2118.4000000000001</ele>
        <time>2019-02-10T13:19:11Z</time>
      </trkpt>
      <trkpt lat="46.251634145155549" lon="8.015200356021524">
        <ele>2116.96</ele>
        <time>2019-02-10T13:19:24Z</time>
      </trkpt>
      <trkpt lat="46.251642275601625" lon="8.015203876420856">
        <ele>2117.4400000000001</ele>
        <time>2019-02-10T13:19:25Z</time>
      </trkpt>
      <trkpt lat="46.251663649454713" lon="8.015269339084625">
        <ele>2116.48</ele>
        <time>2019-02-10T13:19:33Z</time>
      </trkpt>
      <trkpt lat="46.251685945317149" lon="8.01529984921217">
        <ele>2116.48</ele>
        <time>2019-02-10T13:19:44Z</time>
      </trkpt>
      <trkpt lat="46.251680413261056" lon="8.015387943014503">
        <ele>2117.9200000000001</ele>
        <time>2019-02-10T13:19:53Z</time>
      </trkpt>
      <trkpt lat="46.251667086035013" lon="8.015535548329353">
        <ele>2118.8800000000001</ele>
        <time>2019-02-10T13:20:04Z</time>
      </trkpt>
      <trkpt lat="46.251653339713812" lon="8.015643255785108">
        <ele>2117.9200000000001</ele>
        <time>2019-02-10T13:20:14Z</time>
      </trkpt>
      <trkpt lat="46.251654932275414" lon="8.015774516388774">
        <ele>2117.4400000000001</ele>
        <time>2019-02-10T13:20:25Z</time>
      </trkpt>
      <trkpt lat="46.251655602827668" lon="8.015938550233841">
        <ele>2118.4000000000001</ele>
        <time>2019-02-10T13:20:38Z</time>
      </trkpt>
      <trkpt lat="46.251649903133512" lon="8.016067631542683">
        <ele>2117.4400000000001</ele>
        <time>2019-02-10T13:20:48Z</time>
      </trkpt>
      <trkpt lat="46.251648310571909" lon="8.016204927116633">
        <ele>2116.48</ele>
        <time>2019-02-10T13:20:59Z</time>
      </trkpt>
      <trkpt lat="46.251640012487769" lon="8.016349514946342">
        <ele>2115.04</ele>
        <time>2019-02-10T13:21:10Z</time>
      </trkpt>
      <trkpt lat="46.25163079239428" lon="8.016479182988405">
        <ele>2113.5999999999999</ele>
        <time>2019-02-10T13:21:20Z</time>
      </trkpt>
      <trkpt lat="46.25163515098393" lon="8.016614634543657">
        <ele>2113.1199999999999</ele>
        <time>2019-02-10T13:21:31Z</time>
      </trkpt>
      <trkpt lat="46.251647053286433" lon="8.016720497980714">
        <ele>2111.6700000000001</ele>
        <time>2019-02-10T13:21:41Z</time>
      </trkpt>
      <trkpt lat="46.251662727445364" lon="8.016868522390723">
        <ele>2108.79</ele>
        <time>2019-02-10T13:21:53Z</time>
      </trkpt>
      <trkpt lat="46.251687202602625" lon="8.017018307000399">
        <ele>2106.8699999999999</ele>
        <time>2019-02-10T13:22:05Z</time>
      </trkpt>
      <trkpt lat="46.251692567020655" lon="8.017118303105235">
        <ele>2103.98</ele>
        <time>2019-02-10T13:22:14Z</time>
      </trkpt>
      <trkpt lat="46.251704469323158" lon="8.017194410786033">
        <ele>2100.6199999999999</ele>
        <time>2019-02-10T13:22:22Z</time>
      </trkpt>
      <trkpt lat="46.251733638346195" lon="8.017281498759985">
        <ele>2098.21</ele>
        <time>2019-02-10T13:22:32Z</time>
      </trkpt>
      <trkpt lat="46.251763477921486" lon="8.017400437965989">
        <ele>2095.8099999999999</ele>
        <time>2019-02-10T13:22:43Z</time>
      </trkpt>
      <trkpt lat="46.251785857602954" lon="8.017541505396366">
        <ele>2093.8899999999999</ele>
        <time>2019-02-10T13:22:54Z</time>
      </trkpt>
      <trkpt lat="46.251799101009965" lon="8.017650553956628">
        <ele>2092.9299999999998</ele>
        <time>2019-02-10T13:23:03Z</time>
      </trkpt>
      <trkpt lat="46.251803543418646" lon="8.017744095996022">
        <ele>2092.9299999999998</ele>
        <time>2019-02-10T13:23:11Z</time>
      </trkpt>
      <trkpt lat="46.251816367730498" lon="8.017847025766969">
        <ele>2092.4499999999998</ele>
        <time>2019-02-10T13:23:19Z</time>
      </trkpt>
      <trkpt lat="46.25181938521564" lon="8.017924390733242">
        <ele>2094.3699999999999</ele>
        <time>2019-02-10T13:23:28Z</time>
      </trkpt>
      <trkpt lat="46.251837573945522" lon="8.017993289977312">
        <ele>2094.3699999999999</ele>
        <time>2019-02-10T13:23:38Z</time>
      </trkpt>
      <trkpt lat="46.251811422407627" lon="8.017980884760618">
        <ele>2091.4899999999998</ele>
        <time>2019-02-10T13:23:46Z</time>
      </trkpt>
      <trkpt lat="46.251796670258045" lon="8.01799463108182">
        <ele>2091</ele>
        <time>2019-02-10T13:23:48Z</time>
      </trkpt>
      <trkpt lat="46.251728860661387" lon="8.018116671591997">
        <ele>2089.5599999999999</ele>
        <time>2019-02-10T13:24:01Z</time>
      </trkpt>
      <trkpt lat="46.251708660274744" lon="8.018171573057771">
        <ele>2089.5599999999999</ele>
        <time>2019-02-10T13:24:07Z</time>
      </trkpt>
      <trkpt lat="46.251728525385261" lon="8.01827953197062">
        <ele>2089.5599999999999</ele>
        <time>2019-02-10T13:24:17Z</time>
      </trkpt>
      <trkpt lat="46.251779738813639" lon="8.018383719027042">
        <ele>2088.5999999999999</ele>
        <time>2019-02-10T13:24:28Z</time>
      </trkpt>
      <trkpt lat="46.251794993877411" lon="8.018404757604003">
        <ele>2088.1199999999999</ele>
        <time>2019-02-10T13:24:30Z</time>
      </trkpt>
      <trkpt lat="46.251813685521483" lon="8.01844616420567">
        <ele>2088.1199999999999</ele>
        <time>2019-02-10T13:24:34Z</time>
      </trkpt>
      <trkpt lat="46.251877304166555" lon="8.018531994894147">
        <ele>2087.1599999999999</ele>
        <time>2019-02-10T13:24:44Z</time>
      </trkpt>
      <trkpt lat="46.251887362450361" lon="8.018611706793308">
        <ele>2085.7199999999998</ele>
        <time>2019-02-10T13:24:51Z</time>
      </trkpt>
      <trkpt lat="46.251886524260044" lon="8.018756378442049">
        <ele>2085.2399999999998</ele>
        <time>2019-02-10T13:25:01Z</time>
      </trkpt>
      <trkpt lat="46.251868419349194" lon="8.018870204687119">
        <ele>2084.2800000000002</ele>
        <time>2019-02-10T13:25:11Z</time>
      </trkpt>
      <trkpt lat="46.251850482076406" lon="8.018973218277097">
        <ele>2083.3099999999999</ele>
        <time>2019-02-10T13:25:21Z</time>
      </trkpt>
      <trkpt lat="46.251824414357543" lon="8.019073298200965">
        <ele>2082.3499999999999</ele>
        <time>2019-02-10T13:25:31Z</time>
      </trkpt>
      <trkpt lat="46.251814356073737" lon="8.019177317619324">
        <ele>2080.9099999999999</ele>
        <time>2019-02-10T13:25:42Z</time>
      </trkpt>
      <trkpt lat="46.251791138201952" lon="8.019293490797281">
        <ele>2079.4699999999998</ele>
        <time>2019-02-10T13:25:52Z</time>
      </trkpt>
      <trkpt lat="46.251774290576577" lon="8.019396169111133">
        <ele>2078.9899999999998</ele>
        <time>2019-02-10T13:26:02Z</time>
      </trkpt>
      <trkpt lat="46.251768507063389" lon="8.019404467195272">
        <ele>2078.9899999999998</ele>
        <time>2019-02-10T13:26:03Z</time>
      </trkpt>
      <trkpt lat="46.251733554527164" lon="8.019508821889758">
        <ele>2077.0700000000002</ele>
        <time>2019-02-10T13:26:14Z</time>
      </trkpt>
      <trkpt lat="46.251688459888101" lon="8.019581576809287">
        <ele>2075.6199999999999</ele>
        <time>2019-02-10T13:26:24Z</time>
      </trkpt>
      <trkpt lat="46.251667337492108" lon="8.019614517688751">
        <ele>2075.6199999999999</ele>
        <time>2019-02-10T13:26:36Z</time>
      </trkpt>
      <trkpt lat="46.251631965860724" lon="8.019579900428653">
        <ele>2076.0999999999999</ele>
        <time>2019-02-10T13:26:50Z</time>
      </trkpt>
      <trkpt lat="46.251559294760227" lon="8.019516197964549">
        <ele>2072.7399999999998</ele>
        <time>2019-02-10T13:26:59Z</time>
      </trkpt>
      <trkpt lat="46.251547560095787" lon="8.019506139680743">
        <ele>2071.7800000000002</ele>
        <time>2019-02-10T13:27:00Z</time>
      </trkpt>
      <trkpt lat="46.251503136008978" lon="8.019477976486087">
        <ele>2067.4499999999998</ele>
        <time>2019-02-10T13:27:07Z</time>
      </trkpt>
      <trkpt lat="46.251499531790614" lon="8.019470684230328">
        <ele>2066.4899999999998</ele>
        <time>2019-02-10T13:27:09Z</time>
      </trkpt>
      <trkpt lat="46.251458125188947" lon="8.019487615674734">
        <ele>2063.1300000000001</ele>
        <time>2019-02-10T13:27:17Z</time>
      </trkpt>
      <trkpt lat="46.251436667516828" lon="8.019556514918804">
        <ele>2060.7199999999998</ele>
        <time>2019-02-10T13:27:26Z</time>
      </trkpt>
      <trkpt lat="46.251423507928848" lon="8.019670927897096">
        <ele>2060.2399999999998</ele>
        <time>2019-02-10T13:27:36Z</time>
      </trkpt>
      <trkpt lat="46.251420825719833" lon="8.019792046397924">
        <ele>2058.3200000000002</ele>
        <time>2019-02-10T13:27:47Z</time>
      </trkpt>
      <trkpt lat="46.251422334462404" lon="8.019897574558854">
        <ele>2056.8800000000001</ele>
        <time>2019-02-10T13:27:57Z</time>
      </trkpt>
      <trkpt lat="46.251437002792954" lon="8.019946524873376">
        <ele>2056.4000000000001</ele>
        <time>2019-02-10T13:28:02Z</time>
      </trkpt>
      <trkpt lat="46.251446641981602" lon="8.020030511543155">
        <ele>2055.4400000000001</ele>
        <time>2019-02-10T13:28:11Z</time>
      </trkpt>
      <trkpt lat="46.251430381089449" lon="8.020054399967194">
        <ele>2053.5100000000002</ele>
        <time>2019-02-10T13:28:15Z</time>
      </trkpt>
      <trkpt lat="46.251398026943207" lon="8.020132267847657">
        <ele>2052.0700000000002</ele>
        <time>2019-02-10T13:28:23Z</time>
      </trkpt>
      <trkpt lat="46.251322338357568" lon="8.02025405690074">
        <ele>2048.71</ele>
        <time>2019-02-10T13:28:34Z</time>
      </trkpt>
      <trkpt lat="46.251259474083781" lon="8.020336367189884">
        <ele>2047.75</ele>
        <time>2019-02-10T13:28:43Z</time>
      </trkpt>
      <trkpt lat="46.251197615638375" lon="8.020412726327777">
        <ele>2048.23</ele>
        <time>2019-02-10T13:28:53Z</time>
      </trkpt>
      <trkpt lat="46.251185964792967" lon="8.020430579781532">
        <ele>2048.23</ele>
        <time>2019-02-10T13:28:55Z</time>
      </trkpt>
      <trkpt lat="46.251121507957578" lon="8.020486487075687">
        <ele>2048.23</ele>
        <time>2019-02-10T13:29:05Z</time>
      </trkpt>
      <trkpt lat="46.251090159639716" lon="8.020530994981527">
        <ele>2047.26</ele>
        <time>2019-02-10T13:29:13Z</time>
      </trkpt>
      <trkpt lat="46.251085801050067" lon="8.020502077415586">
        <ele>2047.75</ele>
        <time>2019-02-10T13:29:26Z</time>
      </trkpt>
      <trkpt lat="46.251099295914173" lon="8.020504424348474">
        <ele>2046.3</ele>
        <time>2019-02-10T13:29:39Z</time>
      </trkpt>
      <trkpt lat="46.251099044457078" lon="8.020492354407907">
        <ele>2045.8199999999999</ele>
        <time>2019-02-10T13:29:40Z</time>
      </trkpt>
      <trkpt lat="46.25109669752419" lon="8.02050719037652">
        <ele>2044.8599999999999</ele>
        <time>2019-02-10T13:29:48Z</time>
      </trkpt>
      <trkpt lat="46.251089656725526" lon="8.020496796816587">
        <ele>2048.23</ele>
        <time>2019-02-10T13:30:05Z</time>
      </trkpt>
      <trkpt lat="46.251068953424692" lon="8.020490510389209">
        <ele>2045.8199999999999</ele>
        <time>2019-02-10T13:30:24Z</time>
      </trkpt>
      <trkpt lat="46.251077838242054" lon="8.020478775724769">
        <ele>2048.71</ele>
        <time>2019-02-10T13:30:40Z</time>
      </trkpt>
      <trkpt lat="46.251116059720516" lon="8.020498305559158">
        <ele>2049.1900000000001</ele>
        <time>2019-02-10T13:30:53Z</time>
      </trkpt>
      <trkpt lat="46.251110695302486" lon="8.020486403256655">
        <ele>2047.26</ele>
        <time>2019-02-10T13:30:57Z</time>
      </trkpt>
      <trkpt lat="46.251106839627028" lon="8.020486989989877">
        <ele>2048.71</ele>
        <time>2019-02-10T13:31:14Z</time>
      </trkpt>
      <trkpt lat="46.251116981729865" lon="8.020502580329776">
        <ele>2047.26</ele>
        <time>2019-02-10T13:31:17Z</time>
      </trkpt>
      <trkpt lat="46.251116311177611" lon="8.020502412691712">
        <ele>2048.71</ele>
        <time>2019-02-10T13:31:34Z</time>
      </trkpt>
      <trkpt lat="46.251114718616009" lon="8.020494533702731">
        <ele>2049.6700000000001</ele>
        <time>2019-02-10T13:31:40Z</time>
      </trkpt>
      <trkpt lat="46.251093680039048" lon="8.020476512610912">
        <ele>2048.23</ele>
        <time>2019-02-10T13:31:51Z</time>
      </trkpt>
      <trkpt lat="46.251088650897145" lon="8.020468382164836">
        <ele>2049.1900000000001</ele>
        <time>2019-02-10T13:32:06Z</time>
      </trkpt>
      <trkpt lat="46.251084543764591" lon="8.02046662196517">
        <ele>2047.26</ele>
        <time>2019-02-10T13:32:22Z</time>
      </trkpt>
      <trkpt lat="46.251106839627028" lon="8.020475087687373">
        <ele>2047.75</ele>
        <time>2019-02-10T13:32:40Z</time>
      </trkpt>
      <trkpt lat="46.25110600143671" lon="8.020475590601564">
        <ele>2048.23</ele>
        <time>2019-02-10T13:32:49Z</time>
      </trkpt>
      <trkpt lat="46.251086555421352" lon="8.020487744361162">
        <ele>2046.78</ele>
        <time>2019-02-10T13:33:06Z</time>
      </trkpt>
      <trkpt lat="46.251092925667763" lon="8.020487995818257">
        <ele>2048.23</ele>
        <time>2019-02-10T13:33:20Z</time>
      </trkpt>
      <trkpt lat="46.251098792999983" lon="8.020486487075687">
        <ele>2048.23</ele>
        <time>2019-02-10T13:33:34Z</time>
      </trkpt>
      <trkpt lat="46.25111036002636" lon="8.020487911999226">
        <ele>2047.75</ele>
        <time>2019-02-10T13:33:45Z</time>
      </trkpt>
      <trkpt lat="46.251101307570934" lon="8.020485816523433">
        <ele>2048.23</ele>
        <time>2019-02-10T13:34:05Z</time>
      </trkpt>
      <trkpt lat="46.251112790778279" lon="8.020487828180194">
        <ele>2047.75</ele>
        <time>2019-02-10T13:34:23Z</time>
      </trkpt>
      <trkpt lat="46.251111282035708" lon="8.020477266982198">
        <ele>2047.26</ele>
        <time>2019-02-10T13:34:42Z</time>
      </trkpt>
      <trkpt lat="46.251109857112169" lon="8.020489169284701">
        <ele>2047.26</ele>
        <time>2019-02-10T13:34:57Z</time>
      </trkpt>
      <trkpt lat="46.251080436632037" lon="8.020505430176854">
        <ele>2047.26</ele>
        <time>2019-02-10T13:35:09Z</time>
      </trkpt>
      <trkpt lat="46.251083118841052" lon="8.020515656098723">
        <ele>2047.26</ele>
        <time>2019-02-10T13:35:22Z</time>
      </trkpt>
      <trkpt lat="46.251094602048397" lon="8.020522948354483">
        <ele>2048.23</ele>
        <time>2019-02-10T13:35:36Z</time>
      </trkpt>
      <trkpt lat="46.251089992001653" lon="8.02051599137485">
        <ele>2049.1900000000001</ele>
        <time>2019-02-10T13:35:49Z</time>
      </trkpt>
      <trkpt lat="46.251078257337213" lon="8.020536862313747">
        <ele>2049.6700000000001</ele>
        <time>2019-02-10T13:35:59Z</time>
      </trkpt>
      <trkpt lat="46.251043053343892" lon="8.020576341077685">
        <ele>2049.6700000000001</ele>
        <time>2019-02-10T13:36:07Z</time>
      </trkpt>
      <trkpt lat="46.251032240688801" lon="8.020591260865331">
        <ele>2049.6700000000001</ele>
        <time>2019-02-10T13:36:09Z</time>
      </trkpt>
      <trkpt lat="46.250942470505834" lon="8.020668625831604">
        <ele>2050.1500000000001</ele>
        <time>2019-02-10T13:36:21Z</time>
      </trkpt>
      <trkpt lat="46.250883545726538" lon="8.020741967484355">
        <ele>2049.6700000000001</ele>
        <time>2019-02-10T13:36:31Z</time>
      </trkpt>
      <trkpt lat="46.250828057527542" lon="8.020792761817575">
        <ele>2048.71</ele>
        <time>2019-02-10T13:36:40Z</time>
      </trkpt>
      <trkpt lat="46.250751866027713" lon="8.020834000781179">
        <ele>2048.23</ele>
        <time>2019-02-10T13:36:51Z</time>
      </trkpt>
      <trkpt lat="46.250695958733559" lon="8.020866606384516">
        <ele>2047.26</ele>
        <time>2019-02-10T13:37:00Z</time>
      </trkpt>
      <trkpt lat="46.250661257654428" lon="8.020878592506051">
        <ele>2048.23</ele>
        <time>2019-02-10T13:37:10Z</time>
      </trkpt>
      <trkpt lat="46.25061834231019" lon="8.020904073491693">
        <ele>2047.75</ele>
        <time>2019-02-10T13:37:20Z</time>
      </trkpt>
      <trkpt lat="46.250576600432396" lon="8.020931901410222">
        <ele>2047.75</ele>
        <time>2019-02-10T13:37:28Z</time>
      </trkpt>
      <trkpt lat="46.250531924888492" lon="8.02097087725997">
        <ele>2049.6700000000001</ele>
        <time>2019-02-10T13:37:39Z</time>
      </trkpt>
      <trkpt lat="46.250487752258778" lon="8.02101144567132">
        <ele>2050.6300000000001</ele>
        <time>2019-02-10T13:37:46Z</time>
      </trkpt>
      <trkpt lat="46.250425223261118" lon="8.02110381424427">
        <ele>2051.5900000000001</ele>
        <time>2019-02-10T13:37:57Z</time>
      </trkpt>
      <trkpt lat="46.250409716740251" lon="8.021139102056623">
        <ele>2052.5500000000002</ele>
        <time>2019-02-10T13:38:00Z</time>
      </trkpt>
      <trkpt lat="46.250364789739251" lon="8.021240439265966">
        <ele>2052.0700000000002</ele>
        <time>2019-02-10T13:38:10Z</time>
      </trkpt>
      <trkpt lat="46.250322125852108" lon="8.021360132843256">
        <ele>2052.0700000000002</ele>
        <time>2019-02-10T13:38:20Z</time>
      </trkpt>
      <trkpt lat="46.250298153609037" lon="8.021456440910697">
        <ele>2051.5900000000001</ele>
        <time>2019-02-10T13:38:31Z</time>
      </trkpt>
      <trkpt lat="46.250260937958956" lon="8.021581918001175">
        <ele>2050.6300000000001</ele>
        <time>2019-02-10T13:38:40Z</time>
      </trkpt>
      <trkpt lat="46.250257752835751" lon="8.021701611578465">
        <ele>2051.1100000000001</ele>
        <time>2019-02-10T13:38:51Z</time>
      </trkpt>
      <trkpt lat="46.250255824998021" lon="8.02171066403389">
        <ele>2051.1100000000001</ele>
        <time>2019-02-10T13:38:52Z</time>
      </trkpt>
      <trkpt lat="46.25024844892323" lon="8.021839745342732">
        <ele>2048.23</ele>
        <time>2019-02-10T13:39:03Z</time>
      </trkpt>
      <trkpt lat="46.250247610732913" lon="8.021848881617189">
        <ele>2047.75</ele>
        <time>2019-02-10T13:39:04Z</time>
      </trkpt>
      <trkpt lat="46.250230511650443" lon="8.021954074501991">
        <ele>2046.3</ele>
        <time>2019-02-10T13:39:13Z</time>
      </trkpt>
      <trkpt lat="46.250217938795686" lon="8.022079719230533">
        <ele>2045.8199999999999</ele>
        <time>2019-02-10T13:39:23Z</time>
      </trkpt>
      <trkpt lat="46.250192122533917" lon="8.022165633738041">
        <ele>2046.3</ele>
        <time>2019-02-10T13:39:29Z</time>
      </trkpt>
      <trkpt lat="46.250173430889845" lon="8.022316340357065">
        <ele>2045.8199999999999</ele>
        <time>2019-02-10T13:39:40Z</time>
      </trkpt>
      <trkpt lat="46.25016437843442" lon="8.022383479401469">
        <ele>2045.8199999999999</ele>
        <time>2019-02-10T13:39:45Z</time>
      </trkpt>
      <trkpt lat="46.25016001984477" lon="8.022406278178096">
        <ele>2045.3399999999999</ele>
        <time>2019-02-10T13:39:47Z</time>
      </trkpt>
      <trkpt lat="46.250149626284838" lon="8.022491103038192">
        <ele>2045.3399999999999</ele>
        <time>2019-02-10T13:39:53Z</time>
      </trkpt>
      <trkpt lat="46.250131689012051" lon="8.022581208497286">
        <ele>2044.8599999999999</ele>
        <time>2019-02-10T13:40:02Z</time>
      </trkpt>
      <trkpt lat="46.250116936862469" lon="8.022707439959049">
        <ele>2043.9000000000001</ele>
        <time>2019-02-10T13:40:15Z</time>
      </trkpt>
      <trkpt lat="46.250112159177661" lon="8.022749936208129">
        <ele>2042.46</ele>
        <time>2019-02-10T13:40:27Z</time>
      </trkpt>
      <trkpt lat="46.250126073136926" lon="8.022845657542348">
        <ele>2041.02</ele>
        <time>2019-02-10T13:40:37Z</time>
      </trkpt>
      <trkpt lat="46.250125570222735" lon="8.022934254258871">
        <ele>2038.1300000000001</ele>
        <time>2019-02-10T13:40:47Z</time>
      </trkpt>
      <trkpt lat="46.250124732032418" lon="8.023044308647513">
        <ele>2036.6900000000001</ele>
        <time>2019-02-10T13:40:57Z</time>
      </trkpt>
      <trkpt lat="46.250103777274489" lon="8.023153692483902">
        <ele>2036.21</ele>
        <time>2019-02-10T13:41:06Z</time>
      </trkpt>
      <trkpt lat="46.250097323209047" lon="8.023191746324301">
        <ele>2035.25</ele>
        <time>2019-02-10T13:41:09Z</time>
      </trkpt>
      <trkpt lat="46.250090952962637" lon="8.023223429918289">
        <ele>2034.77</ele>
        <time>2019-02-10T13:41:17Z</time>
      </trkpt>
      <trkpt lat="46.250073686242104" lon="8.02328553982079">
        <ele>2033.3299999999999</ele>
        <time>2019-02-10T13:41:29Z</time>
      </trkpt>
      <trkpt lat="46.250086678192019" lon="8.023269362747669">
        <ele>2032.8399999999999</ele>
        <time>2019-02-10T13:41:43Z</time>
      </trkpt>
      <trkpt lat="46.250066729262471" lon="8.023314708843827">
        <ele>2033.8099999999999</ele>
        <time>2019-02-10T13:41:56Z</time>
      </trkpt>
      <trkpt lat="46.250064633786678" lon="8.023348739370704">
        <ele>2031.4000000000001</ele>
        <time>2019-02-10T13:42:03Z</time>
      </trkpt>
      <trkpt lat="46.25007108785212" lon="8.023324096575379">
        <ele>2029.48</ele>
        <time>2019-02-10T13:42:16Z</time>
      </trkpt>
      <trkpt lat="46.25005348585546" lon="8.023360976949334">
        <ele>2029.48</ele>
        <time>2019-02-10T13:42:31Z</time>
      </trkpt>
      <trkpt lat="46.250002859160304" lon="8.023438341915608">
        <ele>2029</ele>
        <time>2019-02-10T13:42:40Z</time>
      </trkpt>
      <trkpt lat="46.250000763684511" lon="8.02342819981277">
        <ele>2028.52</ele>
        <time>2019-02-10T13:42:51Z</time>
      </trkpt>
      <trkpt lat="46.249997159466147" lon="8.023441778495908">
        <ele>2027.5599999999999</ele>
        <time>2019-02-10T13:43:03Z</time>
      </trkpt>
      <trkpt lat="46.250006211921573" lon="8.023484526202083">
        <ele>2026.5999999999999</ele>
        <time>2019-02-10T13:43:14Z</time>
      </trkpt>
      <trkpt lat="46.249980479478836" lon="8.023582762107253">
        <ele>2025.1500000000001</ele>
        <time>2019-02-10T13:43:23Z</time>
      </trkpt>
      <trkpt lat="46.249983832240105" lon="8.023575050756335">
        <ele>2025.6400000000001</ele>
        <time>2019-02-10T13:43:31Z</time>
      </trkpt>
      <trkpt lat="46.249961033463478" lon="8.023504223674536">
        <ele>2023.71</ele>
        <time>2019-02-10T13:43:40Z</time>
      </trkpt>
      <trkpt lat="46.249935552477837" lon="8.023513779044151">
        <ele>2024.1900000000001</ele>
        <time>2019-02-10T13:43:56Z</time>
      </trkpt>
      <trkpt lat="46.249930690973997" lon="8.023497015237808">
        <ele>2024.6700000000001</ele>
        <time>2019-02-10T13:44:10Z</time>
      </trkpt>
      <trkpt lat="46.249923566356301" lon="8.023503636941314">
        <ele>2024.6700000000001</ele>
        <time>2019-02-10T13:44:27Z</time>
      </trkpt>
      <trkpt lat="46.249948963522911" lon="8.023499278351665">
        <ele>2023.71</ele>
        <time>2019-02-10T13:44:40Z</time>
      </trkpt>
      <trkpt lat="46.249946281313896" lon="8.023486873134971">
        <ele>2022.27</ele>
        <time>2019-02-10T13:44:56Z</time>
      </trkpt>
      <trkpt lat="46.24993035569787" lon="8.023503385484219">
        <ele>2022.27</ele>
        <time>2019-02-10T13:45:07Z</time>
      </trkpt>
      <trkpt lat="46.249905377626419" lon="8.023487627506256">
        <ele>2022.75</ele>
        <time>2019-02-10T13:45:18Z</time>
      </trkpt>
      <trkpt lat="46.249913591891527" lon="8.023489806801081">
        <ele>2023.23</ele>
        <time>2019-02-10T13:45:30Z</time>
      </trkpt>
      <trkpt lat="46.24994158744812" lon="8.023509504273534">
        <ele>2023.71</ele>
        <time>2019-02-10T13:45:38Z</time>
      </trkpt>
      <trkpt lat="46.249900599941611" lon="8.023499781265855">
        <ele>2023.23</ele>
        <time>2019-02-10T13:45:48Z</time>
      </trkpt>
      <trkpt lat="46.249871682375669" lon="8.023498188704252">
        <ele>2021.79</ele>
        <time>2019-02-10T13:45:57Z</time>
      </trkpt>
      <trkpt lat="46.249863300472498" lon="8.023484945297241">
        <ele>2021.79</ele>
        <time>2019-02-10T13:46:08Z</time>
      </trkpt>
      <trkpt lat="46.249853745102882" lon="8.023478239774704">
        <ele>2022.27</ele>
        <time>2019-02-10T13:46:23Z</time>
      </trkpt>
      <trkpt lat="46.249855002388358" lon="8.023492740467191">
        <ele>2022.75</ele>
        <time>2019-02-10T13:46:34Z</time>
      </trkpt>
      <trkpt lat="46.249858858063817" lon="8.023477988317609">
        <ele>2021.79</ele>
        <time>2019-02-10T13:46:46Z</time>
      </trkpt>
      <trkpt lat="46.249828850850463" lon="8.023473545908928">
        <ele>2022.75</ele>
        <time>2019-02-10T13:46:56Z</time>
      </trkpt>
      <trkpt lat="46.249796664342284" lon="8.023464912548661">
        <ele>2021.3099999999999</ele>
        <time>2019-02-10T13:47:06Z</time>
      </trkpt>
      <trkpt lat="46.249776463955641" lon="8.023447310552001">
        <ele>2018.4300000000001</ele>
        <time>2019-02-10T13:47:19Z</time>
      </trkpt>
      <trkpt lat="46.249744612723589" lon="8.023434989154339">
        <ele>2019.3900000000001</ele>
        <time>2019-02-10T13:47:29Z</time>
      </trkpt>
      <trkpt lat="46.249765735119581" lon="8.0234335642308">
        <ele>2018.9100000000001</ele>
        <time>2019-02-10T13:47:36Z</time>
      </trkpt>
      <trkpt lat="46.249793143942952" lon="8.023442197591066">
        <ele>2018.4300000000001</ele>
        <time>2019-02-10T13:47:39Z</time>
      </trkpt>
      <trkpt lat="46.249845866113901" lon="8.023458374664187">
        <ele>2018.4300000000001</ele>
        <time>2019-02-10T13:47:48Z</time>
      </trkpt>
      <trkpt lat="46.249857852235436" lon="8.023437922820449">
        <ele>2017.9400000000001</ele>
        <time>2019-02-10T13:48:01Z</time>
      </trkpt>
      <trkpt lat="46.249850643798709" lon="8.023441610857844">
        <ele>2019.3900000000001</ele>
        <time>2019-02-10T13:48:14Z</time>
      </trkpt>
      <trkpt lat="46.249862881377339" lon="8.023466253653169">
        <ele>2018.9100000000001</ele>
        <time>2019-02-10T13:48:27Z</time>
      </trkpt>
      <trkpt lat="46.249867491424084" lon="8.023459548130631">
        <ele>2018.4300000000001</ele>
        <time>2019-02-10T13:48:40Z</time>
      </trkpt>
      <trkpt lat="46.249866569414735" lon="8.02344186231494">
        <ele>2018.9100000000001</ele>
        <time>2019-02-10T13:49:04Z</time>
      </trkpt>
      <trkpt lat="46.24986925162375" lon="8.023435575887561">
        <ele>2018.4300000000001</ele>
        <time>2019-02-10T13:49:19Z</time>
      </trkpt>
      <trkpt lat="46.249866066500545" lon="8.023438258096576">
        <ele>2018.4300000000001</ele>
        <time>2019-02-10T13:49:40Z</time>
      </trkpt>
      <trkpt lat="46.249852906912565" lon="8.023443790152669">
        <ele>2018.4300000000001</ele>
        <time>2019-02-10T13:49:55Z</time>
      </trkpt>
      <trkpt lat="46.249853996559978" lon="8.023449657484889">
        <ele>2018.4300000000001</ele>
        <time>2019-02-10T13:50:14Z</time>
      </trkpt>
      <trkpt lat="46.249849386513233" lon="8.023455524817109">
        <ele>2017.9400000000001</ele>
        <time>2019-02-10T13:50:31Z</time>
      </trkpt>
      <trkpt lat="46.249853074550629" lon="8.023450747132301">
        <ele>2016.98</ele>
        <time>2019-02-10T13:50:50Z</time>
      </trkpt>
      <trkpt lat="46.249852403998375" lon="8.02345359697938">
        <ele>2017.9400000000001</ele>
        <time>2019-02-10T13:51:04Z</time>
      </trkpt>
      <trkpt lat="46.249852068722248" lon="8.023453764617443">
        <ele>2018.4300000000001</ele>
        <time>2019-02-10T13:51:22Z</time>
      </trkpt>
      <trkpt lat="46.249813176691532" lon="8.023470360785723">
        <ele>2018.9100000000001</ele>
        <time>2019-02-10T13:51:34Z</time>
      </trkpt>
      <trkpt lat="46.249781744554639" lon="8.023458290845156">
        <ele>2017.9400000000001</ele>
        <time>2019-02-10T13:51:42Z</time>
      </trkpt>
      <trkpt lat="46.249737236648798" lon="8.023467343300581">
        <ele>2016.5</ele>
        <time>2019-02-10T13:51:52Z</time>
      </trkpt>
      <trkpt lat="46.249700523912907" lon="8.023550659418106">
        <ele>2014.5799999999999</ele>
        <time>2019-02-10T13:52:00Z</time>
      </trkpt>
      <trkpt lat="46.24967479147017" lon="8.023656103760004">
        <ele>2010.73</ele>
        <time>2019-02-10T13:52:10Z</time>
      </trkpt>
      <trkpt lat="46.249650483950973" lon="8.023740844801068">
        <ele>2011.22</ele>
        <time>2019-02-10T13:52:18Z</time>
      </trkpt>
      <trkpt lat="46.249658782035112" lon="8.023766744881868">
        <ele>2010.73</ele>
        <time>2019-02-10T13:52:21Z</time>
      </trkpt>
      <trkpt lat="46.249668505042791" lon="8.02381569519639">
        <ele>2010.73</ele>
        <time>2019-02-10T13:52:25Z</time>
      </trkpt>
      <trkpt lat="46.249679736793041" lon="8.023855006322265">
        <ele>2011.22</ele>
        <time>2019-02-10T13:52:28Z</time>
      </trkpt>
      <trkpt lat="46.24967965297401" lon="8.023956343531609">
        <ele>2010.25</ele>
        <time>2019-02-10T13:52:35Z</time>
      </trkpt>
      <trkpt lat="46.249693818390369" lon="8.023994565010071">
        <ele>2009.77</ele>
        <time>2019-02-10T13:52:39Z</time>
      </trkpt>
      <trkpt lat="46.249674456194043" lon="8.024075785651803">
        <ele>2009.77</ele>
        <time>2019-02-10T13:52:46Z</time>
      </trkpt>
      <trkpt lat="46.249607484787703" lon="8.02415331825614">
        <ele>2008.3299999999999</ele>
        <time>2019-02-10T13:52:56Z</time>
      </trkpt>
      <trkpt lat="46.249549817293882" lon="8.024178044870496">
        <ele>2007.3699999999999</ele>
        <time>2019-02-10T13:53:02Z</time>
      </trkpt>
      <trkpt lat="46.249505812302232" lon="8.024194305762649">
        <ele>2006.4100000000001</ele>
        <time>2019-02-10T13:53:06Z</time>
      </trkpt>
      <trkpt lat="46.249452335759997" lon="8.024211321026087">
        <ele>2006.4100000000001</ele>
        <time>2019-02-10T13:53:11Z</time>
      </trkpt>
      <trkpt lat="46.249338174238801" lon="8.024217858910561">
        <ele>2005.9300000000001</ele>
        <time>2019-02-10T13:53:22Z</time>
      </trkpt>
      <trkpt lat="46.249257875606418" lon="8.024194305762649">
        <ele>2005.45</ele>
        <time>2019-02-10T13:53:31Z</time>
      </trkpt>
      <trkpt lat="46.249218732118607" lon="8.024190366268158">
        <ele>2004.49</ele>
        <time>2019-02-10T13:53:36Z</time>
      </trkpt>
      <trkpt lat="46.249199621379375" lon="8.024200340732932">
        <ele>2004.01</ele>
        <time>2019-02-10T13:53:38Z</time>
      </trkpt>
      <trkpt lat="46.249160310253501" lon="8.024237891659141">
        <ele>2003.52</ele>
        <time>2019-02-10T13:53:42Z</time>
      </trkpt>
      <trkpt lat="46.249054446816444" lon="8.024305030703545">
        <ele>2002.5599999999999</ele>
        <time>2019-02-10T13:53:53Z</time>
      </trkpt>
      <trkpt lat="46.248980602249503" lon="8.024329757317901">
        <ele>2002.0799999999999</ele>
        <time>2019-02-10T13:54:02Z</time>
      </trkpt>
      <trkpt lat="46.248917318880558" lon="8.024366637691855">
        <ele>2003.04</ele>
        <time>2019-02-10T13:54:10Z</time>
      </trkpt>
      <trkpt lat="46.248830901458859" lon="8.02439957857132">
        <ele>2002.5599999999999</ele>
        <time>2019-02-10T13:54:20Z</time>
      </trkpt>
      <trkpt lat="46.24874540604651" lon="8.024392034858465">
        <ele>2004.01</ele>
        <time>2019-02-10T13:54:30Z</time>
      </trkpt>
      <trkpt lat="46.248684888705611" lon="8.024376276880503">
        <ele>2003.52</ele>
        <time>2019-02-10T13:54:39Z</time>
      </trkpt>
      <trkpt lat="46.248666951432824" lon="8.02440251223743">
        <ele>2003.52</ele>
        <time>2019-02-10T13:54:44Z</time>
      </trkpt>
      <trkpt lat="46.248572068288922" lon="8.024430004879832">
        <ele>2001.5999999999999</ele>
        <time>2019-02-10T13:54:55Z</time>
      </trkpt>
      <trkpt lat="46.248455559834838" lon="8.024469651281834">
        <ele>2000.6400000000001</ele>
        <time>2019-02-10T13:55:06Z</time>
      </trkpt>
      <trkpt lat="46.248340057209134" lon="8.024496557191014">
        <ele>1999.2</ele>
        <time>2019-02-10T13:55:16Z</time>
      </trkpt>
      <trkpt lat="46.248246179893613" lon="8.024499239400029">
        <ele>1998.72</ele>
        <time>2019-02-10T13:55:25Z</time>
      </trkpt>
      <trkpt lat="46.24815029092133" lon="8.024526983499527">
        <ele>1999.6800000000001</ele>
        <time>2019-02-10T13:55:36Z</time>
      </trkpt>
      <trkpt lat="46.24810628592968" lon="8.024532599374652">
        <ele>1999.2</ele>
        <time>2019-02-10T13:55:40Z</time>
      </trkpt>
      <trkpt lat="46.248081978410482" lon="8.024538718163967">
        <ele>2000.1600000000001</ele>
        <time>2019-02-10T13:55:42Z</time>
      </trkpt>
      <trkpt lat="46.247960943728685" lon="8.024559672921896">
        <ele>2000.6400000000001</ele>
        <time>2019-02-10T13:55:53Z</time>
      </trkpt>
      <trkpt lat="46.247942168265581" lon="8.024579873308539">
        <ele>2001.1199999999999</ele>
        <time>2019-02-10T13:55:56Z</time>
      </trkpt>
      <trkpt lat="46.247882321476936" lon="8.024654807522893">
        <ele>2001.1199999999999</ele>
        <time>2019-02-10T13:56:07Z</time>
      </trkpt>
      <trkpt lat="46.247829096391797" lon="8.024725047871471">
        <ele>2000.6400000000001</ele>
        <time>2019-02-10T13:56:18Z</time>
      </trkpt>
      <trkpt lat="46.2477598618716" lon="8.024829737842083">
        <ele>1998.24</ele>
        <time>2019-02-10T13:56:30Z</time>
      </trkpt>
      <trkpt lat="46.247686017304659" lon="8.024886064231396">
        <ele>1996.8</ele>
        <time>2019-02-10T13:56:40Z</time>
      </trkpt>
      <trkpt lat="46.247622650116682" lon="8.024925207719207">
        <ele>1995.8299999999999</ele>
        <time>2019-02-10T13:56:49Z</time>
      </trkpt>
      <trkpt lat="46.24759566038847" lon="8.024947168305516">
        <ele>1995.8299999999999</ele>
        <time>2019-02-10T13:56:52Z</time>
      </trkpt>
      <trkpt lat="46.24753262847662" lon="8.024973571300507">
        <ele>1995.8299999999999</ele>
        <time>2019-02-10T13:56:59Z</time>
      </trkpt>
      <trkpt lat="46.247446294873953" lon="8.024991089478135">
        <ele>1995.3499999999999</ele>
        <time>2019-02-10T13:57:10Z</time>
      </trkpt>
      <trkpt lat="46.247360548004508" lon="8.025033418089151">
        <ele>1994.8699999999999</ele>
        <time>2019-02-10T13:57:21Z</time>
      </trkpt>
      <trkpt lat="46.247282261028886" lon="8.025057725608349">
        <ele>1994.8699999999999</ele>
        <time>2019-02-10T13:57:31Z</time>
      </trkpt>
      <trkpt lat="46.247225347906351" lon="8.025050517171621">
        <ele>1995.3499999999999</ele>
        <time>2019-02-10T13:57:40Z</time>
      </trkpt>
      <trkpt lat="46.247142450883985" lon="8.025075159966946">
        <ele>1996.3199999999999</ele>
        <time>2019-02-10T13:57:49Z</time>
      </trkpt>
      <trkpt lat="46.247063912451267" lon="8.025080105289817">
        <ele>1995.3499999999999</ele>
        <time>2019-02-10T13:57:59Z</time>
      </trkpt>
      <trkpt lat="46.246981015428901" lon="8.025088822469115">
        <ele>1994.8699999999999</ele>
        <time>2019-02-10T13:58:08Z</time>
      </trkpt>
      <trkpt lat="46.246886970475316" lon="8.025137269869447">
        <ele>1995.3499999999999</ele>
        <time>2019-02-10T13:58:20Z</time>
      </trkpt>
      <trkpt lat="46.246861070394516" lon="8.025153279304504">
        <ele>1995.3499999999999</ele>
        <time>2019-02-10T13:58:23Z</time>
      </trkpt>
      <trkpt lat="46.246772054582834" lon="8.02519803866744">
        <ele>1995.8299999999999</ele>
        <time>2019-02-10T13:58:32Z</time>
      </trkpt>
      <trkpt lat="46.246755374595523" lon="8.025210611522198">
        <ele>1996.3199999999999</ele>
        <time>2019-02-10T13:58:34Z</time>
      </trkpt>
      <trkpt lat="46.24664674513042" lon="8.025253610685468">
        <ele>1995.8299999999999</ele>
        <time>2019-02-10T13:58:45Z</time>
      </trkpt>
      <trkpt lat="46.246639704331756" lon="8.025256209075451">
        <ele>1995.8299999999999</ele>
        <time>2019-02-10T13:58:46Z</time>
      </trkpt>
      <trkpt lat="46.2465475872159" lon="8.025277499109507">
        <ele>1994.3900000000001</ele>
        <time>2019-02-10T13:58:56Z</time>
      </trkpt>
      <trkpt lat="46.246447591111064" lon="8.025301890447736">
        <ele>1994.8699999999999</ele>
        <time>2019-02-10T13:59:07Z</time>
      </trkpt>
      <trkpt lat="46.246401071548462" lon="8.025338435545564">
        <ele>1996.8</ele>
        <time>2019-02-10T13:59:17Z</time>
      </trkpt>
      <trkpt lat="46.246332675218582" lon="8.025325024500489">
        <ele>1998.24</ele>
        <time>2019-02-10T13:59:27Z</time>
      </trkpt>
      <trkpt lat="46.246309373527765" lon="8.025339273735881">
        <ele>1999.6800000000001</ele>
        <time>2019-02-10T13:59:30Z</time>
      </trkpt>
      <trkpt lat="46.246257741004229" lon="8.02526836283505">
        <ele>2001.5999999999999</ele>
        <time>2019-02-10T13:59:41Z</time>
      </trkpt>
      <trkpt lat="46.246254974976182" lon="8.025259478017688">
        <ele>2001.5999999999999</ele>
        <time>2019-02-10T13:59:42Z</time>
      </trkpt>
      <trkpt lat="46.246260674670339" lon="8.025223352015019">
        <ele>2003.04</ele>
        <time>2019-02-10T13:59:53Z</time>
      </trkpt>
      <trkpt lat="46.246265871450305" lon="8.025182699784637">
        <ele>2002.0799999999999</ele>
        <time>2019-02-10T14:00:03Z</time>
      </trkpt>
      <trkpt lat="46.246257573366165" lon="8.025190327316523">
        <ele>2004.01</ele>
        <time>2019-02-10T14:00:15Z</time>
      </trkpt>
      <trkpt lat="46.246266542002559" lon="8.025193428620696">
        <ele>2004.49</ele>
        <time>2019-02-10T14:00:29Z</time>
      </trkpt>
    </trkseg>
  </trk>

</gpx>